[[{"header":{"parameterUnit":"m.s-1","parameterCategory":1,"la1":30.6,"la2":29.2853,"lo1":-89.7004,"lo2":-87.6739,"dy":0.0162,"dx":0.0183,"nx":112,"ny":82,"refTime":"2023-06-07T06:00:00:Z","depth":0,"parameterNumber":2,"parameterNumberName":"U-component_of_WINDS"},"data":[0.0,0.0,0.0,0.0,0.0,0.0,0.0,0.0,0.0,0.0,0.0,0.0,0.0,0.0,0.0,0.0,0.0,0.0,0.0,0.0,0.0,0.0,0.0,0.0,0.0,0.0,0.0,0.0,0.0,0.0,0.0,0.0,0.0,0.0,0.0,0.0,0.0,0.0,0.0,0.0,0.0,0.0,0.0,0.0,0.0,0.0,0.0,0.0,0.0,0.0,0.0,0.0,0.0,0.0,0.0,0.0,0.0,0.0,0.0,0.0,0.0,0.0,0.0,0.0,0.0,0.0,0.0,0.0,0.0,0.0,0.0,0.0,0.0,0.0,0.0,0.0,0.0,0.0,0.0,0.0,0.0,0.0,0.0,0.0,0.0,0.0,0.0,0.0,0.0,0.0,-1.3526,-1.3948,-1.5106,-1.5832,-1.5832,-1.5832,-1.5832,-1.5832,0.0,0.0,0.0,0.0,0.0,0.0,0.0,0.0,0.0,0.0,0.0,0.0,0.0,0.0,0.0,0.0,0.0,0.0,0.0,0.0,0.0,0.0,0.0,0.0,0.0,0.0,0.0,0.0,0.0,0.0,0.0,0.0,0.0,0.0,0.0,0.0,0.0,0.0,0.0,0.0,0.0,0.0,0.0,0.0,0.0,0.0,0.0,0.0,0.0,0.0,0.0,0.0,0.0,0.0,0.0,0.0,0.0,0.0,0.0,0.0,0.0,0.0,0.0,0.0,0.0,0.0,0.0,0.0,0.0,0.0,0.0,0.0,0.0,0.0,0.0,0.0,0.0,0.0,0.0,0.0,0.0,0.0,0.0,0.0,0.0,0.0,0.0,0.0,0.0,0.0,0.0,0.0,0.0,0.0,0.0,0.0,0.0,0.0,0.0,0.0,0.0,0.0,0.0,0.0,-1.2919,-1.5253,-1.5704,-1.5832,-1.5832,-1.5832,-1.5832,-1.5832,0.0,0.0,0.0,0.0,0.0,0.0,0.0,0.0,0.0,0.0,0.0,0.0,0.0,0.0,0.0,0.0,0.0,0.0,0.0,0.0,0.0,0.0,0.0,0.0,0.0,0.0,0.0,0.0,0.0,0.0,0.0,0.0,0.0,0.0,0.0,0.0,0.0,0.0,0.0,0.0,0.0,0.0,0.0,0.0,0.0,0.0,0.0,0.0,0.0,0.0,0.0,0.0,0.0,0.0,0.0,0.0,0.0,0.0,0.0,0.0,0.0,0.0,0.0,0.0,0.0,0.0,0.0,0.0,0.0,0.0,0.0,0.0,0.0,0.0,0.0,0.0,0.0,0.0,0.0,0.0,0.0,0.0,0.0,0.0,0.0,0.0,0.0,0.0,0.0,0.0,0.0,0.0,0.0,0.0,0.0,0.0,0.0,0.0,0.0,0.0,0.0,0.0,0.0,-1.2864,-1.3648,-1.5615,-1.5832,-1.5832,-1.5832,-1.5832,-1.5832,-1.5832,-1.5832,0.0,0.0,0.0,0.0,0.0,0.0,0.0,0.0,0.0,0.0,0.0,0.0,0.0,0.0,0.0,0.0,0.0,0.0,0.0,0.0,0.0,0.0,0.0,0.0,0.0,0.0,0.0,0.0,0.0,0.0,0.0,0.0,0.0,0.0,0.0,0.0,0.0,0.0,0.0,0.0,0.0,0.0,0.0,0.0,0.0,0.0,0.0,0.0,0.0,0.0,0.0,0.0,0.0,0.0,0.0,0.0,0.0,0.0,0.0,0.0,0.0,0.0,0.0,0.0,0.0,0.0,0.0,0.0,0.0,0.0,0.0,0.0,0.0,0.0,0.0,0.0,0.0,0.0,0.0,0.0,0.0,0.0,0.0,0.0,0.0,0.0,0.0,0.0,0.0,0.0,0.0,0.0,0.0,0.0,0.0,0.0,0.0,0.0,0.0,0.0,0.0,0.0,-1.4752,-1.4752,-1.573,-1.5832,-1.5832,-1.5832,-1.5832,-1.5832,-1.5832,-1.5832,0.0,0.0,0.0,0.0,0.0,0.0,0.0,0.0,0.0,0.0,0.0,0.0,0.0,0.0,0.0,0.0,0.0,0.0,0.0,0.0,0.0,0.0,0.0,0.0,0.0,0.0,0.0,0.0,0.0,0.0,0.0,0.0,0.0,0.0,0.0,0.0,0.0,0.0,0.0,0.0,0.0,0.0,0.0,0.0,0.0,0.0,0.0,0.0,0.0,0.0,0.0,0.0,0.0,0.0,0.0,0.0,0.0,0.0,0.0,0.0,0.0,0.0,0.0,0.0,0.0,0.0,0.0,0.0,0.0,0.0,0.0,0.0,0.0,0.0,0.0,0.0,0.0,0.0,0.0,0.0,0.0,0.0,0.0,0.0,0.0,0.0,0.0,0.0,0.0,0.0,0.0,0.0,0.0,0.0,0.0,0.0,0.0,0.0,0.0,0.0,0.0,0.0,-1.4949,-1.573,-1.5825,-1.5832,-1.5832,-1.5832,-1.5832,-1.5832,-1.5832,-1.5832,0.0,0.0,0.0,0.0,0.0,0.0,0.0,0.0,0.0,0.0,0.0,0.0,0.0,0.0,0.0,0.0,0.0,0.0,0.0,0.0,0.0,0.0,0.0,0.0,0.0,0.0,0.0,0.0,0.0,0.0,0.0,0.0,0.0,0.0,0.0,0.0,0.0,0.0,0.0,0.0,0.0,0.0,0.0,0.0,0.0,0.0,0.0,0.0,0.0,0.0,0.0,0.0,0.0,0.0,0.0,0.0,0.0,0.0,0.0,0.0,0.0,0.0,0.0,0.0,0.0,0.0,0.0,0.0,0.0,0.0,0.0,0.0,0.0,0.0,0.0,0.0,0.0,0.0,0.0,0.0,0.0,0.0,0.0,0.0,0.0,0.0,0.0,0.0,0.0,0.0,0.0,0.0,0.0,0.0,0.0,0.0,0.0,0.0,0.0,0.0,0.0,0.0,-1.4848,-1.4949,0.0,-1.5832,-1.5832,-1.5832,-1.5832,-1.5832,-1.5832,0.0,0.0,0.0,0.0,0.0,0.0,0.0,0.0,0.0,0.0,0.0,0.0,0.0,0.0,0.0,0.0,0.0,0.0,0.0,0.0,0.0,0.0,0.0,0.0,0.0,0.0,0.0,0.0,0.0,0.0,0.0,0.0,0.0,0.0,0.0,0.0,0.0,0.0,0.0,0.0,0.0,0.0,0.0,0.0,0.0,0.0,0.0,0.0,0.0,0.0,0.0,0.0,0.0,0.0,0.0,0.0,0.0,0.0,0.0,0.0,0.0,0.0,0.0,0.0,0.0,0.0,0.0,0.0,0.0,0.0,0.0,0.0,0.0,0.0,0.0,0.0,0.0,0.0,0.0,0.0,0.0,0.0,0.0,0.0,0.0,0.0,0.0,0.0,0.0,0.0,0.0,0.0,0.0,0.0,0.0,0.0,0.0,0.0,0.0,0.0,0.0,0.0,-1.554,-1.5045,-1.4848,0.0,-1.5832,-1.5832,-1.5832,-1.5832,-1.5832,-1.5832,0.0,0.0,0.0,0.0,0.0,0.0,0.0,0.0,0.0,0.0,0.0,0.0,0.0,0.0,0.0,0.0,0.0,0.0,0.0,0.0,0.0,0.0,0.0,0.0,0.0,0.0,0.0,0.0,0.0,0.0,0.0,0.0,0.0,0.0,0.0,0.0,0.0,0.0,0.0,0.0,0.0,0.0,0.0,0.0,0.0,0.0,0.0,0.0,0.0,0.0,0.0,0.0,0.0,0.0,0.0,0.0,0.0,0.0,0.0,0.0,0.0,0.0,0.0,0.0,0.0,0.0,0.0,0.0,0.0,0.0,0.0,0.0,0.0,0.0,0.0,0.0,0.0,0.0,0.0,0.0,0.0,0.0,0.0,0.0,0.0,0.0,0.0,0.0,0.0,0.0,0.0,0.0,0.0,0.0,0.0,0.0,0.0,0.0,0.0,0.0,0.0,0.0,-1.5635,-1.5832,-1.5832,-1.5832,-1.5832,-1.5832,-1.5832,-1.5832,-1.5832,0.0,0.0,0.0,0.0,0.0,0.0,0.0,0.0,0.0,0.0,0.0,0.0,0.0,0.0,0.0,0.0,0.0,0.0,0.0,0.0,0.0,0.0,0.0,0.0,0.0,0.0,0.0,0.0,0.0,0.0,0.0,0.0,0.0,0.0,0.0,0.0,0.0,0.0,0.0,0.0,0.0,0.0,0.0,0.0,0.0,0.0,0.0,0.0,0.0,0.0,0.0,0.0,0.0,0.0,0.0,0.0,0.0,0.0,0.0,0.0,0.0,0.0,0.0,0.0,0.0,0.0,0.0,0.0,0.0,0.0,0.0,0.0,0.0,0.0,0.0,0.0,0.0,0.0,0.0,0.0,0.0,0.0,0.0,0.0,0.0,0.0,0.0,0.0,0.0,0.0,0.0,0.0,0.0,0.0,0.0,0.0,0.0,0.0,0.0,0.0,0.0,0.0,0.0,-1.573,-1.5832,-1.5832,-1.5832,-1.5832,-1.5832,-1.5832,-1.5832,-1.5832,-1.5832,0.0,0.0,0.0,0.0,0.0,0.0,0.0,0.0,0.0,0.0,0.0,0.0,0.0,0.0,0.0,0.0,0.0,0.0,0.0,0.0,0.0,0.0,0.0,0.0,0.0,0.0,0.0,0.0,0.0,0.0,0.0,0.0,0.0,0.0,0.0,0.0,0.0,0.0,0.0,0.0,0.0,0.0,0.0,0.0,0.0,0.0,0.0,0.0,0.0,0.0,0.0,0.0,0.0,0.0,0.0,0.0,0.0,0.0,0.0,0.0,0.0,0.0,0.0,0.0,0.0,0.0,0.0,0.0,0.0,0.0,0.0,0.0,0.0,0.0,0.0,0.0,0.0,0.0,0.0,0.0,0.0,0.0,0.0,0.0,0.0,0.0,0.0,0.0,0.0,0.0,0.0,0.0,0.0,0.0,0.0,0.0,0.0,0.0,0.0,0.0,0.0,0.0,-1.5832,-1.5832,-1.6015,-1.648,-1.6574,-1.6756,-1.7203,-1.6842,-1.6574,-1.6574,0.0,0.0,0.0,0.0,0.0,0.0,0.0,0.0,0.0,0.0,0.0,0.0,0.0,0.0,0.0,0.0,0.0,0.0,0.0,0.0,0.0,0.0,0.0,0.0,0.0,0.0,0.0,0.0,0.0,0.0,0.0,0.0,0.0,0.0,0.0,0.0,0.0,0.0,0.0,0.0,0.0,0.0,0.0,0.0,0.0,0.0,0.0,0.0,0.0,0.0,0.0,0.0,0.0,0.0,0.0,0.0,0.0,0.0,0.0,0.0,0.0,0.0,0.0,0.0,0.0,0.0,0.0,0.0,0.0,0.0,0.0,0.0,0.0,0.0,0.0,0.0,0.0,0.0,0.0,0.0,0.0,0.0,0.0,0.0,0.0,0.0,0.0,0.0,0.0,0.0,0.0,0.0,0.0,0.0,0.0,0.0,0.0,0.0,0.0,0.0,0.0,0.0,-1.5832,-1.5832,-1.6197,-1.7412,-1.7498,-1.8048,-1.9222,-1.8326,-1.7785,-1.787,0.0,0.0,0.0,0.0,0.0,0.0,0.0,0.0,0.0,0.0,0.0,0.0,0.0,0.0,0.0,0.0,0.0,0.0,0.0,0.0,0.0,0.0,0.0,0.0,0.0,0.0,0.0,0.0,0.0,0.0,0.0,0.0,0.0,0.0,0.0,0.0,0.0,0.0,0.0,0.0,0.0,0.0,0.0,0.0,0.0,0.0,0.0,0.0,0.0,0.0,0.0,0.0,0.0,0.0,0.0,0.0,0.0,0.0,0.0,0.0,-1.3188,0.0,0.0,0.0,0.0,0.0,0.0,0.0,0.0,0.0,0.0,0.0,0.0,0.0,0.0,0.0,0.0,0.0,0.0,0.0,0.0,0.0,0.0,0.0,0.0,0.0,0.0,0.0,0.0,0.0,0.0,0.0,0.0,0.0,0.0,0.0,0.0,0.0,0.0,0.0,0.0,0.0,-1.5832,-1.5832,-1.592,-1.6204,-1.6204,-1.6756,-1.7956,-1.787,-1.8141,-1.9039,-1.8856,0.0,0.0,0.0,0.0,0.0,0.0,0.0,0.0,0.0,0.0,0.0,0.0,0.0,0.0,0.0,0.0,0.0,0.0,0.0,0.0,0.0,0.0,0.0,0.0,0.0,0.0,0.0,0.0,0.0,0.0,0.0,0.0,0.0,0.0,0.0,0.0,0.0,0.0,0.0,0.0,0.0,0.0,0.0,0.0,0.0,0.0,0.0,0.0,0.0,0.0,0.0,0.0,0.0,0.0,0.0,0.0,0.0,0.0,0.0,0.0,-1.4721,0.0,0.0,0.0,0.0,0.0,0.0,0.0,0.0,0.0,0.0,0.0,0.0,0.0,0.0,0.0,0.0,0.0,0.0,0.0,0.0,0.0,0.0,0.0,0.0,0.0,0.0,0.0,0.0,0.0,0.0,0.0,0.0,0.0,0.0,0.0,0.0,0.0,0.0,0.0,0.0,-1.5832,-1.5832,-1.6292,-1.7483,-1.7569,-1.8311,-2.0141,-1.9231,-1.8864,-1.9497,-1.8956,0.0,0.0,0.0,0.0,0.0,0.0,0.0,0.0,0.0,0.0,0.0,0.0,0.0,0.0,0.0,0.0,0.0,0.0,0.0,0.0,0.0,0.0,0.0,0.0,0.0,0.0,0.0,0.0,0.0,0.0,0.0,0.0,0.0,0.0,0.0,0.0,0.0,0.0,0.0,0.0,0.0,0.0,0.0,0.0,0.0,0.0,0.0,0.0,0.0,0.0,0.0,0.0,0.0,-1.3771,-1.4543,-1.4638,-1.6915,-1.8141,-1.8326,-1.8326,-1.8234,-1.8048,-1.8048,0.0,0.0,0.0,0.0,0.0,0.0,0.0,0.0,0.0,0.0,0.0,0.0,0.0,0.0,0.0,0.0,0.0,0.0,0.0,0.0,0.0,0.0,0.0,0.0,-1.7217,-1.6473,-1.6473,0.0,0.0,0.0,0.0,0.0,0.0,0.0,0.0,0.0,0.0,0.0,-1.6379,-1.6473,-1.7203,-1.9306,-1.9497,-2.0404,-2.2589,-2.0944,-1.9943,-2.0133,-1.9231,-1.8419,0.0,0.0,0.0,0.0,0.0,0.0,0.0,0.0,0.0,0.0,0.0,0.0,0.0,0.0,0.0,0.0,0.0,0.0,0.0,0.0,0.0,0.0,0.0,0.0,0.0,0.0,0.0,0.0,0.0,0.0,0.0,0.0,0.9015,0.8382,0.0,0.0,0.0,0.0,0.0,0.0,0.0,0.0,0.0,0.0,0.0,0.0,0.0,-1.175,-1.1945,-1.3006,-1.368,-1.368,-1.6069,-1.721,-1.721,-1.8672,-1.9861,-2.0791,-2.0854,0.0,-1.9222,-1.9222,0.0,0.0,0.0,0.0,0.0,0.0,0.0,0.0,0.0,0.0,0.0,0.0,0.0,0.0,0.0,0.0,0.0,0.0,0.0,0.0,0.0,0.0,-1.9039,-1.9222,-1.9131,-1.9031,0.0,-1.8226,-1.7412,-1.7412,-1.8319,0.0,0.0,0.0,0.0,0.0,0.0,0.0,-1.8856,-1.9031,-1.9131,-1.9497,-1.9497,-2.0034,-2.1391,-2.1203,-2.148,-2.2589,-2.2501,-2.1409,-1.9314,-1.9222,0.0,0.0,0.0,0.0,0.0,0.0,0.0,0.0,0.0,0.0,0.0,0.0,0.0,0.0,0.0,0.0,0.0,0.0,0.0,0.0,0.0,0.0,0.0,0.0,0.0,0.0,0.0,0.0,0.0,0.9422,0.6833,0.382,0.616,0.5849,0.0,0.0,0.0,0.0,0.0,0.0,0.0,0.0,0.0,-1.3006,-1.3006,-1.3397,-1.4076,-1.4657,-1.5324,-1.6062,-1.721,-1.8048,-1.8772,-1.9943,-2.0764,-2.1311,-2.2031,-2.2041,-2.1498,-2.0755,-2.0124,-1.9497,0.0,0.0,0.0,0.0,-1.8403,-1.7848,-1.7848,-1.8672,0.0,-1.8948,0.0,0.0,0.0,0.0,0.0,0.0,0.0,0.0,0.0,0.0,-1.967,-2.0395,-2.0034,-1.9497,-1.9497,-1.9579,-1.9497,0.0,-1.9131,-1.9314,-1.8772,0.0,0.0,0.0,0.0,-1.8864,-1.9397,-1.9497,-1.9761,-2.0486,-2.0477,-2.1033,-2.2217,-2.1667,-2.1569,-2.2031,-2.212,-2.1578,-2.0576,-2.0477,-1.9662,0.0,0.0,0.0,0.0,0.0,0.0,0.0,0.0,0.0,0.0,0.0,0.0,0.0,0.0,0.0,0.0,0.0,0.0,0.0,0.0,0.0,0.0,0.0,0.0,0.0,0.0,0.0,0.0,0.5615,0.2911,0.0302,0.292,0.3318,0.0,0.0,0.0,0.0,0.0,0.0,-1.0386,-1.0774,-1.2037,-1.4268,-1.4364,-1.4848,-1.5825,-1.6103,-1.6756,-1.7692,-1.8326,-1.9131,-2.0034,-2.1212,-2.1756,-2.1845,-2.2677,-2.3135,-2.3047,-2.212,-2.1212,-2.0404,-2.0404,-2.0223,-1.9943,-1.9943,-1.9761,-1.9497,-1.9497,-2.0305,-2.1114,-2.0215,-2.0576,-2.1114,-2.0215,0.0,0.0,0.0,0.0,-2.0124,-2.1025,-2.0845,-2.0674,-2.1569,-2.1033,-2.0404,-2.0404,-2.1123,-2.1391,0.0,-2.0223,-2.0314,-2.0034,0.0,0.0,0.0,0.0,-2.0034,-2.0404,-2.0404,-2.0764,-2.1658,-2.1756,-2.212,-2.3047,-2.2306,-2.1756,-2.1756,-2.1756,-2.1658,-2.1293,-2.1293,-2.0747,-1.9497,0.0,0.0,0.0,0.0,0.0,0.0,0.0,0.0,0.0,0.0,0.0,0.0,0.0,0.0,0.0,0.0,0.0,0.0,0.0,0.0,0.0,0.0,0.0,0.0,0.0,0.0,0.0,0.0,0.0,-0.0606,-0.2011,0.0,0.0,0.0,0.0,-0.8041,-0.9217,-1.0485,-1.175,-1.3006,-1.4364,-1.5635,-1.573,-1.573,-1.5832,-1.7037,-1.7598,-1.7692,-2.0034,-2.1114,-2.1203,-2.2492,-2.3047,-2.3047,-2.3047,-2.3135,-2.3135,-2.3047,-2.296,-2.296,-2.296,-2.2217,-2.1203,-2.1203,-2.0486,-1.9497,-1.9497,-2.0305,-2.1293,-2.1203,-2.1293,-2.1293,-2.1203,-2.0395,0.0,0.0,-2.0305,-2.1203,-2.1293,-2.212,-2.296,-2.296,-2.296,-2.296,-2.296,-2.296,-2.2677,0.0,-2.212,-2.2589,-2.1391,0.0,-2.1203,-2.1203,-2.1203,-2.1658,-2.2775,-2.296,-2.295,-2.296,-2.3047,-2.3047,-2.3047,-2.3047,-2.3047,-2.3047,-2.3047,-2.2492,-2.1382,-2.1293,-2.0747,-1.9497,-1.9405,0.0,0.0,0.0,0.0,0.0,0.0,0.0,0.0,0.0,0.0,0.0,0.0,0.0,0.0,0.0,0.0,0.0,0.0,0.0,0.0,0.0,0.0,0.0,0.0,0.0,0.0,0.0,0.0,-0.4954,-0.4431,0.0,-0.6442,-0.7459,-0.8357,-0.9217,-0.9706,-1.097,-1.3102,-1.368,-1.4539,-1.6106,-1.6112,-1.658,-1.7628,-1.7253,-1.7925,-1.9534,-2.0464,-2.1223,-2.2077,-2.3391,-2.3965,-2.3965,-2.3965,-2.3965,-2.3965,-2.3965,-2.3643,-2.3135,-2.3135,-2.2862,-2.2492,-2.2492,-2.2217,-2.1863,-2.1863,-2.2129,-2.2492,-2.2492,-2.2492,-2.2492,-2.2492,-2.2138,-2.1863,-2.1863,-2.2129,-2.2492,-2.2492,-2.2775,-2.3135,-2.3135,-2.3135,-2.3135,-2.3135,-2.3135,-2.296,-2.258,-2.2775,-2.296,-2.2492,-2.2492,-2.2492,-2.2492,-2.2492,-2.2589,-2.3047,-2.3135,-2.3135,-2.3135,-2.3135,-2.3135,-2.3135,-2.3135,-2.3135,-2.3135,-2.3135,-2.2872,-2.2492,-2.2492,-2.1854,-2.0666,-2.0666,-1.967,0.0,0.0,0.0,0.0,0.0,0.0,0.0,0.0,0.0,0.0,0.0,0.0,0.0,0.0,0.0,0.0,0.0,0.0,0.0,0.0,0.0,0.0,0.0,0.0,0.0,0.0,-0.3011,-0.7494,-0.645,-0.6029,-0.7869,-0.8361,-0.9038,-0.9899,-1.0936,-1.2242,-1.3905,-1.4582,-1.531,-1.6413,-1.642,-1.6993,-1.7966,-1.7584,-1.8452,-2.057,-2.1058,-2.183,-2.3084,-2.4034,-2.4414,-2.4414,-2.4414,-2.4414,-2.4414,-2.4414,-2.4082,-2.3564,-2.3564,-2.3564,-2.3564,-2.3564,-2.3564,-2.3555,-2.3408,-2.3359,-2.333,-2.3184,-2.3135,-2.3135,-2.3135,-2.3135,-2.3164,-2.332,-2.3359,-2.3389,-2.3535,-2.3564,-2.3564,-2.3564,-2.3564,-2.3564,-2.3564,-2.3564,-2.3525,-2.3389,-2.3242,-2.3135,-2.3135,-2.3135,-2.3135,-2.3135,-2.3135,-2.3135,-2.3135,-2.3135,-2.3135,-2.3135,-2.3135,-2.3135,-2.3135,-2.3135,-2.3135,-2.3135,-2.3135,-2.3135,-2.3135,-2.3135,-2.2492,-2.1293,-2.0486,-1.9497,-1.8319,0.0,0.0,0.0,0.0,0.0,0.0,0.0,0.0,0.0,0.0,0.0,0.0,0.0,0.0,0.0,0.0,0.0,0.0,0.0,0.0,0.0,0.0,0.0,0.0501,-0.2506,-0.5127,-0.7682,-0.7959,-0.8052,-0.8075,-0.9236,-1.001,-1.0113,-1.2745,-1.4365,-1.4365,-1.5831,-1.6714,-1.6734,-1.6734,-1.674,-1.6861,-1.7931,-1.929,-2.0636,-2.1908,-2.3157,-2.44,-2.4492,-2.4492,-2.4492,-2.4492,-2.4492,-2.4492,-2.4492,-2.4492,-2.4492,-2.4443,-2.4414,-2.4414,-2.4414,-2.4414,-2.4355,-2.3945,-2.3809,-2.374,-2.332,-2.3184,-2.3184,-2.3184,-2.3184,-2.3271,-2.3691,-2.3809,-2.3906,-2.4307,-2.4414,-2.4414,-2.4414,-2.4414,-2.4414,-2.4414,-2.4414,-2.4297,-2.3887,-2.3467,-2.3164,-2.3144,-2.3135,-2.3135,-2.3135,-2.3135,0.0,-2.3135,-2.3135,-2.3135,-2.3135,-2.3135,-2.3135,-2.3135,-2.3135,-2.3135,-2.3135,-2.3135,-2.3135,-2.3135,-2.3135,-2.258,-2.1382,-1.9039,-1.8411,-1.9588,0.0,0.0,0.0,0.0,0.0,0.0,0.0,0.0,0.0,0.0,0.0,0.0,0.0,0.0,0.0,0.0,0.0,0.0,0.0,0.0,0.0,0.0,0.4754,-0.4535,-0.6458,-0.7166,-0.7875,-0.7955,-0.8478,-0.9597,-1.01,-1.1148,-1.3312,-1.4194,-1.5044,-1.5969,-1.6454,-1.6901,-1.7328,-1.7341,-1.806,-1.944,-1.9857,-2.0798,-2.2146,-2.3595,-2.4528,-2.4831,-2.5881,-2.6299,-2.6299,-2.6299,-2.6299,-2.6299,-2.6299,-2.6299,-2.6182,-2.4902,-2.4414,-2.4414,-2.4414,-2.4414,-2.4394,-2.4287,-2.4248,-2.4219,-2.4102,-2.4062,-2.4062,-2.4062,-2.4062,-2.4092,-2.4209,-2.4248,-2.4268,-2.4385,-2.4414,-2.4414,-2.4414,-2.4414,-2.4414,-2.4414,-2.4414,-2.4385,-2.4268,-2.4141,-2.3867,-2.3242,-2.3135,-2.3135,-2.3135,-2.3135,0.0,-2.3135,-2.3135,-2.3135,-2.3135,-2.3135,-2.3135,-2.3135,-2.3135,-2.3135,-2.3135,-2.3135,-2.3135,-2.3135,-2.3135,-2.295,-2.2589,-2.1123,-2.0494,0.0,0.0,0.0,0.0,0.0,0.0,0.0,0.0,0.0,0.0,0.0,0.0,0.0,0.0,0.0,0.0,0.0,0.0,0.0,0.0,0.0,0.0,0.4243,-0.0504,-0.5653,-0.7278,-0.7982,-0.7962,-0.8106,-0.8769,-1.026,-1.0945,-1.2258,-1.463,-1.5571,-1.633,-1.7074,-1.7315,-1.7609,-1.7956,-1.7963,-1.855,-1.9654,-2.0397,-2.1356,-2.2749,-2.4228,-2.5289,-2.5834,-2.6686,-2.7012,-2.7012,-2.7012,-2.7012,-2.7012,-2.7012,-2.7012,0.0,0.0,0.0,0.0,0.0,-2.4971,-2.4941,-2.4756,-2.4687,-2.4658,-2.4473,-2.4414,-2.4414,-2.4414,-2.4414,-2.4453,-2.4639,-2.4687,-2.4736,-2.4922,-2.4971,-2.4971,-2.4971,-2.4971,-2.4971,-2.4971,-2.4971,-2.4912,-2.4727,-2.4687,0.0,-2.3789,-2.3672,-2.3672,-2.3672,-2.3672,-2.3672,-2.3672,-2.3516,-2.3408,-2.3408,-2.3242,-2.3135,-2.3135,-2.3135,0.0,0.0,0.0,-2.3135,-2.3135,-2.2589,0.0,0.0,0.0,-2.0755,-2.132,0.0,0.0,0.0,-1.8141,-1.7692,0.0,0.0,0.0,0.0,0.0,0.0,0.0,0.0,0.0,0.0,0.0,0.0,0.0,0.0,0.0,0.0,-0.1409,-0.7196,-0.4841,-0.657,-0.8002,-0.8069,-0.8201,-0.8907,-1.0535,-1.1928,-1.3404,-1.5083,-1.6723,-1.7682,-1.7682,0.0,0.0,0.0,0.0,-1.8557,-1.8591,-2.0084,-2.1364,-2.265,-2.436,-2.5748,-2.6943,-2.7055,-2.7158,-2.7158,-2.7158,-2.7158,-2.7158,-2.7158,-2.7158,-2.7148,-2.7051,-2.6787,-2.6406,-2.6025,-2.5879,-2.583,-2.543,0.0,0.0,-2.4834,-2.4707,-2.4697,-2.4658,-2.4639,-2.4707,-2.5049,-2.5146,-2.5234,-2.5635,-2.5742,-2.5742,-2.5742,-2.5742,-2.5742,-2.5742,-2.5742,-2.5615,-2.5215,-2.5146,-2.5019,-2.4629,-2.4482,-2.4414,-2.4414,-2.4414,-2.4414,-2.4414,-2.4092,-2.3857,-2.3857,0.0,0.0,-2.3213,-2.3213,-2.3193,-2.3144,-2.3135,-2.3135,-2.3135,-2.2031,-2.2031,-2.3047,-2.1042,-2.0395,-2.148,-2.0395,-2.0486,-2.148,-1.9131,-1.8141,0.0,0.0,0.0,0.0,0.0,0.0,0.0,0.0,0.0,0.0,0.0,0.0,0.0,0.0,0.0,0.2221,-0.3836,-0.7955,-0.7635,-0.7948,-0.8245,-0.8228,-0.8353,-0.9518,-1.2258,-1.2997,-1.4495,-1.7222,-1.8001,-1.8317,-1.8317,-1.8424,-1.8597,-1.8831,-1.8838,-1.8958,-1.9199,-2.0735,-2.1504,-2.1841,0.0,0.0,-2.6261,-2.7487,-2.8047,-2.8047,-2.8047,-2.8047,-2.8047,-2.8047,-2.8047,-2.7978,-2.7285,-2.6963,-2.6885,-2.6797,-2.6768,-2.6758,-2.667,-2.6641,-2.6621,-2.6543,-2.6514,-2.6455,-2.6103,-2.6006,0.0,-2.5684,-2.5605,-2.5625,-2.5713,-2.5742,-2.5742,-2.5742,-2.5742,-2.5742,-2.5742,-2.5742,-2.5713,-2.5625,-2.5605,-2.5586,-2.5498,-2.4893,-2.4414,-2.4414,-2.4414,-2.4414,-2.4414,-2.4346,-2.4297,-2.4297,-2.4219,-2.4033,-2.3691,-2.3662,-2.3516,-2.3164,-2.3135,-2.3135,-2.3135,-2.2862,-2.2862,-2.3135,-2.2687,-2.2501,-2.2765,-2.2501,-2.2501,-2.2677,-2.1302,-2.0576,0.0,0.0,0.0,0.0,0.0,0.0,0.0,0.0,0.0,0.0,0.0,0.8012,0.0,0.0,0.3131,0.0404,-0.3558,-0.6782,-0.8313,-0.8532,-0.8469,-0.8387,-0.8506,-0.9499,-1.1795,-1.297,-1.451,-1.6888,-1.8079,-1.8704,-1.8704,-1.8851,-1.8998,-1.9145,-1.9145,-1.9219,-1.9366,-2.0809,-2.1586,-2.1586,-2.3933,-2.538,-2.6155,-2.6825,-2.7618,-2.8291,-2.8291,-2.8291,-2.8291,-2.8291,-2.8291,-2.8252,-2.7822,-2.7529,-2.7314,-2.71,-2.7012,-2.7012,-2.7012,-2.7012,-2.7012,-2.7012,-2.7012,-2.6973,-2.6768,-2.6699,-2.665,-2.6435,-2.6377,-2.6377,-2.6377,-2.6221,-2.6064,-2.6064,-2.5898,-2.5742,-2.5742,-2.5742,-2.5742,-2.5742,-2.5742,-2.5742,-2.5742,-2.5371,-2.5078,-2.5078,-2.5078,-2.5078,-2.5078,-2.4883,-2.4746,-2.4746,-2.4551,-2.4336,-2.4121,-2.4102,-2.3926,-2.3496,-2.3467,-2.3359,-2.3154,-2.3135,-2.3135,-2.3135,-2.3135,-2.3135,-2.3135,-2.3135,-2.3135,-2.3057,-2.2492,-2.1845,0.0,0.0,0.0,0.0,0.0,0.0,0.0,0.0,0.4526,0.3416,0.4943,0.6483,0.6483,0.2929,-0.0404,-0.1522,-0.3279,-0.5494,-0.8183,-0.869,-0.8686,-0.8618,-0.8723,-0.9395,-1.0974,-1.2822,-1.4473,-1.6026,-1.7913,-1.9011,-1.9011,-1.9239,-1.9366,-1.9366,-1.9419,-1.9452,-1.9452,-2.0736,-2.1328,-2.1328,-2.3133,-2.4701,-2.5931,-2.65,-2.7356,-2.8408,-2.833,-2.8291,-2.8291,-2.8291,-2.8291,-2.8291,-2.8291,-2.8086,-2.7744,-2.7393,-2.7266,-2.7266,-2.7266,-2.7266,-2.7266,-2.7266,-2.7266,-2.7246,-2.7168,-2.7139,-2.7119,-2.7041,-2.7012,-2.7012,-2.7012,-2.6768,-2.6514,-2.6514,-2.624,-2.5967,-2.5879,-2.5859,-2.584,-2.5752,-2.5742,-2.5742,-2.5742,-2.5742,-2.5742,-2.5742,-2.5742,-2.5742,-2.5742,-2.542,-2.5195,-2.5195,-2.4883,-2.4639,-2.4551,-2.4463,-2.4277,-2.3935,-2.3906,-2.376,-2.3398,-2.3389,-2.335,-2.3271,-2.3262,-2.3262,-2.3262,-2.3262,-2.331,-2.3389,-2.3389,-2.2742,0.8038,0.7955,0.7979,0.8012,0.5954,0.3416,0.0,0.0,0.6173,0.1412,0.0707,0.0909,0.0909,0.0404,-0.1726,-0.705,-0.6009,-0.5541,-0.8441,-0.8814,-0.8801,-0.9049,-0.9093,-0.972,-1.1347,-1.3136,-1.4892,-1.6304,-1.8199,-1.9319,-1.9319,-1.9352,-1.9366,-1.9366,-1.9619,-1.9753,-1.9753,-2.012,-2.0368,-2.0361,-2.3388,-2.4895,-2.5127,-2.7911,-2.9098,-2.8828,-2.8457,-2.8291,-2.8291,-2.8291,-2.8291,-2.8291,-2.8291,-2.8262,-2.8223,-2.8164,-2.8144,-2.8144,-2.8144,-2.8144,-2.8144,-2.8144,-2.8144,-2.8076,-2.7705,-2.7598,-2.751,-2.7119,-2.7012,-2.7012,-2.7012,-2.6982,-2.6943,-2.6943,-2.6904,-2.6768,-2.6396,-2.6318,-2.6201,-2.581,-2.5742,-2.5742,-2.5742,-2.5742,-2.5742,-2.5742,-2.5742,-2.5742,-2.5742,-2.5693,-2.5664,-2.5664,-2.5615,-2.543,-2.5029,-2.4639,-2.4394,-2.4346,-2.4346,-2.4326,-2.4277,-2.4268,-2.4102,-2.3721,-2.3721,-2.3721,-2.3721,-2.3721,-2.3906,-2.4268,-2.4268,-2.3767,0.7962,0.6848,0.5334,0.0,0.252,0.141,0.0303,0.1716,0.2726,0.0505,-0.0,-0.0,-0.0,-0.0,-0.1955,0.0,-0.7839,-0.7529,-0.873,-0.8986,-0.9045,-0.9259,-0.9364,-1.0015,-1.1695,-1.3398,-1.5014,-1.6675,-1.8455,-1.9366,-1.9366,-1.9526,-1.9619,-1.9619,-1.99,-2.0054,-2.0054,-2.0174,-2.0234,-2.0234,-2.2461,-2.4101,-2.502,-2.7236,-2.8518,-2.8906,-2.873,-2.8525,-2.8291,-2.8291,-2.8291,-2.8291,-2.8291,-2.8291,-2.8291,-2.8291,-2.8291,-2.8291,-2.8291,-2.8291,-2.8291,-2.8291,-2.8291,-2.8262,-2.8086,-2.8027,-2.7998,-2.7812,-2.7764,-2.7764,-2.7764,-2.7578,-2.7393,-2.7393,-2.7197,-2.6973,-2.6797,-2.6562,-2.6338,-2.6152,-2.5908,-2.5742,-2.5742,-2.5742,-2.5742,-2.5742,-2.5742,-2.5742,-2.5742,-2.5742,-2.5742,-2.5742,-2.5742,-2.5664,-2.5478,-2.5293,-2.5078,-2.4814,-2.4795,-2.4678,-2.4424,-2.4414,-2.4336,-2.416,-2.415,-2.415,-2.415,-2.415,-2.4248,-2.4414,-2.4414,-2.4219,0.7982,0.6042,0.3314,0.0706,-0.0,-0.0,-0.0,-0.0,-0.0,-0.0,-0.0,-0.0,-0.0,-0.0,-0.1675,-0.686,-0.8317,-0.8896,-0.891,-0.9116,-0.9208,-0.9364,-0.9863,-1.0909,-1.2591,-1.3771,-1.5125,-1.6833,-1.8525,-1.9406,-1.9486,-1.9686,-1.9833,-1.9913,-2.0201,-2.0354,-2.0354,-2.0434,-2.0474,-2.0474,-2.2147,-2.3569,-2.4617,-2.651,-2.806,-2.9258,-2.9023,-2.875,-2.8457,-2.834,-2.8291,-2.8291,-2.8291,-2.8291,-2.8291,-2.8291,-2.8291,-2.8291,-2.8291,-2.8291,-2.8291,-2.8291,-2.8291,-2.8291,-2.8291,-2.8291,-2.8291,-2.8291,-2.8291,-2.8291,-2.8291,-2.8066,-2.7842,-2.7842,-2.7598,-2.7334,-2.7217,-2.6953,-2.6709,-2.6582,-2.6211,-2.5918,-2.5918,-2.582,-2.5742,-2.5742,-2.5742,-2.5742,-2.5742,-2.5742,-2.5742,-2.5742,-2.5742,-2.5742,-2.5742,-2.5742,-2.5596,-2.5273,-2.5254,-2.5107,-2.4795,-2.4775,-2.4727,-2.46,-2.459,-2.459,-2.459,-2.459,-2.4658,-2.4775,-2.4775,-2.4775,0.7982,0.6042,0.3314,0.0706,-0.0,-0.0,-0.0,-0.0,-0.0,-0.0,-0.0,-0.0,-0.0,-0.0,-0.107,-0.4124,-0.6997,-0.8927,-0.8916,-0.9059,-0.9208,-0.9364,-1.0899,-1.2591,0.0,-1.4594,-1.5306,-1.6844,-1.8525,-1.9492,-1.9773,-1.98,-1.9927,-2.0214,-2.0508,-2.0661,-2.0661,-2.0942,-2.1082,-2.1082,-2.2805,-2.3544,-2.3777,-2.6559,-2.8635,-3.0107,-2.9277,-2.8916,-2.8867,-2.8457,-2.8291,-2.8291,-2.8291,-2.8291,-2.8291,-2.8291,-2.8291,-2.8291,-2.8291,-2.8291,-2.8291,-2.8291,-2.8291,-2.8291,-2.8291,-2.8291,-2.8291,-2.8291,-2.8291,-2.8291,-2.8291,-2.8281,-2.8271,-2.8271,-2.8262,-2.8144,-2.7734,-2.7637,-2.75,-2.708,-2.666,-2.6367,-2.6367,-2.6016,-2.5742,-2.5742,-2.5742,-2.5742,-2.5742,-2.5742,-2.5742,-2.5742,-2.5742,-2.5742,-2.5742,-2.5742,-2.5732,-2.5723,-2.5713,-2.5713,-2.5693,-2.5693,-2.5488,-2.5059,-2.5049,-2.5049,-2.5049,-2.5049,-2.5273,-2.5693,-2.5693,-2.5693,0.7985,0.7381,0.5557,0.111,-0.0,-0.0,-0.0,-0.0,-0.0,-0.0,-0.0,-0.0,-0.0,-0.0,-0.0977,-0.4029,-0.6955,-0.8967,-0.9066,-0.9211,-0.9361,-0.9513,-1.107,0.0,0.0,0.0,0.0,-1.8519,-1.9298,-1.9693,-1.98,-2.0167,-2.0428,-2.0528,-2.0808,-2.0962,-2.0962,-2.1056,-2.1109,-2.1109,-2.2834,-2.4663,-2.6841,-2.7798,-2.8913,-3.0176,-2.9893,-2.9443,-2.8906,-2.876,-2.8545,-2.8291,-2.8291,-2.8291,-2.8291,-2.8291,-2.8291,-2.8291,-2.8291,-2.8291,-2.8291,-2.8291,-2.8291,-2.8291,-2.8291,-2.8291,-2.8291,-2.8291,-2.8291,-2.8291,-2.8291,-2.8291,-2.8291,-2.8291,-2.8291,-2.8252,-2.8115,-2.7861,-2.7627,-2.748,-2.71,-2.6807,-2.6807,-2.668,-2.6484,-2.6211,-2.5918,-2.5742,-2.5742,-2.5742,-2.5742,-2.5742,-2.5742,-2.5742,-2.5742,-2.5742,-2.5742,-2.5742,-2.5742,-2.5742,-2.5742,-2.5742,-2.5664,-2.5518,-2.5518,-2.5518,-2.5518,-2.5518,-2.5596,-2.5742,-2.5742,-2.5742,0.7999,0.8012,0.669,0.1313,-0.0,-0.0,-0.0,-0.0,-0.0,-0.0,-0.0,-0.0,-0.0,-0.0,-0.0662,-0.2528,-0.6232,-0.893,-0.915,-0.9289,-0.9439,-0.9591,-1.116,-1.2813,0.0,0.0,0.0,-1.9249,-1.9639,-1.9846,-1.9947,-2.0414,-2.0722,-2.0828,-2.1009,-2.1109,-2.1109,-2.1109,-2.1109,-2.1109,-2.2223,-2.4054,-2.672,-2.672,-2.7798,-2.9583,-2.9431,-2.9307,-2.9355,-2.9043,-2.876,-2.8506,-2.835,-2.8291,-2.8291,-2.8291,-2.8291,-2.8291,-2.8291,-2.8291,-2.8291,-2.8291,-2.8291,-2.8291,-2.8291,-2.8291,-2.8291,-2.8291,-2.8291,-2.8291,-2.8291,-2.8291,-2.8291,-2.8291,-2.8291,-2.8291,-2.8291,-2.8086,-2.7891,-2.7891,-2.7539,-2.7246,-2.7246,-2.7119,-2.6924,-2.665,-2.6377,-2.6084,-2.5781,-2.5742,-2.5742,-2.5742,-2.5742,-2.5742,-2.5742,-2.5742,-2.5742,-2.5742,-2.5742,-2.5742,-2.5742,-2.5742,-2.5742,-2.5742,-2.5742,-2.5742,-2.5742,-2.5742,-2.5742,-2.5742,-2.5742,-2.5742,0.8016,0.7818,0.6382,0.1313,-0.0,-0.0,-0.0,-0.0,-0.0,-0.0,-0.0,-0.0,0.0,-0.0,-0.0,-0.0223,-0.5037,-0.8818,-0.9167,-0.93,-0.9439,0.0,0.0,0.0,0.0,0.0,0.0,-1.9249,0.0,-1.994,-2.0221,-2.0528,-2.0822,-2.1102,-2.1109,-2.1109,-2.1109,-2.1109,-2.1109,-2.1109,-2.1109,-2.1971,-2.3574,-2.3574,-2.5391,-2.8399,-2.803,-2.8681,-3.0127,-2.9297,-2.8935,-2.8877,-2.8457,-2.8291,-2.8291,-2.8291,-2.8291,-2.8291,-2.8291,-2.8291,-2.8291,-2.8291,-2.8291,-2.8291,-2.8291,-2.8291,-2.8291,-2.8291,-2.8291,-2.8291,-2.8291,-2.8291,-2.8291,-2.8291,-2.8291,-2.8291,-2.8291,-2.8291,-2.8291,-2.8291,-2.7969,-2.7695,-2.7695,-2.7334,-2.7051,-2.7051,-2.7031,-2.6719,-2.5908,-2.5801,-2.5801,-2.5801,-2.5801,-2.5801,-2.5801,-2.5781,-2.5771,-2.5771,-2.5752,-2.5742,-2.5742,-2.5742,-2.5742,-2.5742,-2.5742,-2.5742,-2.5742,-2.5742,-2.5742,-2.5742,-2.5762,-2.5771,0.8022,0.5056,0.1716,0.0303,-0.0,-0.0,-0.0,-0.0,-0.0,-0.0,-0.0,-0.0,0.0,-0.0,-0.0784,-0.3017,-0.4585,0.0,-0.8911,-0.9289,0.0,-0.9591,0.0,-1.2813,-1.4485,-1.602,0.0,0.0,-1.9833,-2.0154,-2.0227,-2.0722,-2.1036,-2.1109,-2.1109,-2.1109,-2.1109,-2.1109,-2.1109,-2.1109,-2.1109,-2.1971,-2.3574,-2.3574,-2.5391,-2.8408,-2.8309,-2.8941,-3.0156,-2.9619,-2.9219,-2.8877,-2.8457,-2.8291,-2.8291,-2.8291,-2.8291,-2.8291,-2.8291,-2.8291,-2.8291,-2.8291,-2.8291,-2.8291,-2.8291,-2.8291,-2.8291,-2.8291,-2.8291,-2.8291,-2.8291,-2.8291,-2.8291,-2.8291,-2.8291,-2.8291,-2.8291,-2.8291,-2.8291,-2.8291,-2.8203,-2.8135,-2.8135,-2.7783,-2.75,-2.75,-2.7217,-2.6934,-2.6719,-2.6689,-2.6689,-2.6689,-2.6689,-2.6689,-2.6689,-2.6406,-2.6221,-2.6221,-2.5918,-2.5742,-2.5742,-2.5742,-2.5742,-2.5742,-2.5742,-2.5742,-2.5742,-2.5742,-2.5742,-2.5742,-2.6074,-2.6221,0.5157,0.2322,-0.0,-0.0,-0.0,-0.0,-0.0,-0.0,-0.0,-0.0,-0.0,0.0,-0.0,-0.0,0.0,0.0,0.0,0.0,-0.8917,-0.9293,-0.9439,0.0,-1.116,0.0,-1.4485,-1.602,-1.7683,0.0,-1.9907,-2.0234,-2.0234,-2.0788,-2.1109,-2.1109,-2.1109,-2.1109,-2.1109,-2.1109,-2.1109,-2.1109,-2.1109,-2.1601,-2.2591,-2.3201,-2.5032,-2.7443,0.0,-2.9146,-3.0469,-3.0029,-2.959,-2.916,-2.873,-2.8457,-2.8291,-2.8291,-2.8291,-2.8291,-2.8291,-2.8291,-2.8291,-2.8291,-2.8291,-2.8291,-2.8291,-2.8291,-2.8291,-2.8291,-2.8291,-2.8291,-2.8291,-2.8291,-2.8291,-2.8291,-2.8291,-2.8291,-2.8291,-2.8291,-2.8291,-2.8291,-2.8291,-2.8291,-2.8291,-2.8096,-2.7939,-2.7939,-2.7734,-2.7578,-2.7578,-2.7246,-2.7012,-2.7012,-2.7012,-2.7012,-2.7012,-2.6797,-2.666,-2.666,-2.6435,-2.6299,-2.6299,-2.6299,-2.6299,-2.6299,-2.6299,-2.6299,-2.6299,-2.6299,-2.6299,-2.6309,-2.6553,-2.666,0.1313,-0.0,-0.0,-0.0,-0.0,-0.0,-0.0,-0.0,-0.0,-0.0,0.0,-0.0,-0.0,-0.0,-0.1681,-0.6857,0.0,-0.893,-0.9144,-0.9286,-0.9432,-0.9564,-1.1144,-1.2813,-1.4485,-1.602,-1.7683,-1.9249,-1.9907,-2.0234,-2.0234,-2.0788,-2.1109,-2.1109,-2.1109,-2.1109,-2.1109,-2.1109,-2.1109,-2.1109,-2.1109,-2.1109,-2.1109,-2.2591,-2.4294,-2.6098,-2.7443,0.0,-3.0859,-3.0391,-2.998,-2.96,-2.9111,-2.8701,-2.8369,-2.831,-2.8291,-2.8291,-2.8291,-2.8291,-2.8291,-2.8291,-2.8291,-2.8291,-2.8291,-2.8291,-2.8291,-2.8291,-2.8291,-2.8291,-2.8291,-2.8291,-2.8291,-2.8291,-2.8291,-2.8291,-2.8291,-2.8291,-2.8291,-2.8291,-2.8291,-2.8291,-2.8291,-2.8291,-2.8291,-2.8291,-2.8291,-2.8291,-2.8291,-2.7646,-2.7187,-2.7187,-2.7187,-2.7187,-2.7187,-2.7129,-2.71,-2.71,-2.7041,-2.7012,-2.7012,-2.7012,-2.7012,-2.7012,-2.7012,-2.7012,-2.7012,-2.7012,-2.7012,-2.7012,-2.707,-2.71,0.0303,-0.0,-0.0,-0.0,-0.0,-0.0,-0.0,-0.0,0.0,0.0,-0.0,-0.0,-0.0,-0.0,0.0,-0.1341,0.0,0.0,0.0,0.0,-0.9391,0.0,0.0,0.0,0.0,0.0,0.0,0.0,0.0,-2.0234,-2.0234,-2.0788,-2.1109,-2.1109,-2.1109,-2.1109,-2.1109,-2.1109,-2.1109,-2.1109,-2.1109,-2.1109,-2.1109,-2.1355,-2.3186,-2.5976,-2.634,0.0,-3.0859,-3.0391,-3.0156,-3.001,-2.9228,-2.8877,-2.8769,-2.8418,-2.8291,-2.8291,-2.8291,-2.8291,-2.8291,-2.8291,-2.8291,-2.8291,-2.8291,-2.8291,-2.8291,-2.8291,-2.8291,-2.8291,-2.8291,-2.8291,-2.8291,-2.8291,-2.8291,-2.8291,-2.8291,-2.8291,-2.8291,-2.8291,-2.8291,-2.8291,-2.8291,-2.8291,-2.8291,-2.8291,-2.8291,-2.8291,-2.8291,-2.8164,-2.8066,-2.8066,-2.8066,-2.8066,-2.8066,-2.7754,-2.7559,-2.7559,-2.7217,-2.7012,-2.7012,-2.7012,-2.7012,-2.7012,-2.7012,-2.7012,-2.7012,-2.7012,-2.7012,-2.7021,-2.7393,-2.7559,-0.0,-0.0,-0.0,-0.0,-0.0,-0.0,-0.0,0.0,0.0,0.0,-0.0,-0.0,-0.0,0.0,0.0,0.0,0.0,0.0,0.0,0.0,0.0,0.0,0.0,0.0,0.0,0.0,0.0,0.0,0.0,-2.0074,-2.0227,-2.0788,-2.1109,-2.1109,-2.1109,-2.1109,-2.1109,-2.1109,-2.1109,-2.1109,-2.1109,-2.1109,-2.1109,-2.282,-2.4525,-2.6106,-2.7811,0.0,-3.0869,-3.0644,-3.042,-3.0156,-2.9746,-2.9316,-2.8896,-2.8691,-2.8476,-2.8291,-2.8291,-2.8291,-2.8291,-2.8291,-2.8291,-2.8291,-2.8291,-2.8291,-2.8291,-2.8291,-2.8291,-2.8291,-2.8291,-2.8291,-2.8291,-2.8291,-2.8291,-2.8291,-2.8291,-2.8291,-2.8291,-2.8291,-2.8291,-2.8291,-2.8291,-2.8291,-2.8291,-2.8291,-2.8291,-2.8291,-2.8291,-2.8291,-2.8291,-2.8291,-2.8291,-2.8291,-2.8291,-2.8105,-2.7988,-2.7988,-2.7793,-2.7676,-2.7676,-2.7676,-2.7676,-2.7676,-2.7676,-2.7676,-2.7676,-2.7676,-2.7676,-2.7685,-2.79,-2.7545,-0.1551,-0.1879,-0.1797,-0.1086,-0.0987,-0.0772,-0.0112,-0.0,0.0,0.0,-0.0,-0.0336,-0.1681,0.0,0.0,0.0,0.0,0.0,0.0,0.0,0.0,0.0,0.0,0.0,0.0,0.0,0.0,0.0,0.0,0.0,-2.0307,-2.0822,-2.1109,-2.1109,-2.1109,-2.1109,-2.1109,-2.1109,-2.1109,-2.1109,-2.1109,-2.1109,-2.1235,-2.3792,-2.5367,-2.6098,-2.8673,0.0,0.0,-3.0889,-3.0674,-3.0332,-3.0234,-2.9785,-2.918,-2.9092,-2.8789,-2.8428,-2.8428,-2.8369,-2.8291,-2.8291,-2.8291,-2.8291,-2.8291,-2.8291,-2.8291,-2.8291,-2.8291,-2.8291,-2.8291,-2.8291,-2.8291,-2.8291,-2.8291,-2.8291,-2.8291,-2.8291,-2.8291,-2.8291,-2.8291,-2.8291,-2.8291,-2.8291,-2.8291,-2.8291,-2.8291,-2.8291,-2.8291,-2.8291,-2.8291,-2.8291,-2.8291,-2.8291,-2.8291,-2.8291,-2.8291,-2.8291,-2.8291,-2.8291,-2.8291,-2.8291,-2.8291,-2.8291,-2.8291,-2.8291,-2.8291,-2.8291,-2.8291,-2.8291,-2.796,-2.7168,-0.6562,-0.8127,-0.7442,-0.4798,-0.4079,-0.3346,-0.067,0.0,0.0,-0.0,-0.0,-0.1681,-0.7086,-0.8562,0.0,0.0,0.0,0.0,0.0,0.0,0.0,0.0,0.0,0.0,0.0,0.0,0.0,0.0,0.0,0.0,-2.0608,-2.0935,-2.1109,-2.1109,-2.1109,-2.1109,-2.1109,-2.1109,-2.1109,-2.1109,-2.1109,-2.1109,-2.1109,-2.1348,-2.3179,-2.5976,-2.6349,0.0,0.0,-3.0889,-3.0869,-3.0781,-3.0361,-3.0146,-3.0039,-2.9648,-2.9238,-2.8857,-2.8857,-2.8613,-2.8291,-2.8291,-2.8291,-2.8291,-2.8291,-2.8291,-2.8291,-2.8291,-2.8291,-2.8291,-2.8291,-2.8291,-2.8291,-2.8291,-2.8291,-2.8291,-2.8291,-2.8291,-2.8291,-2.8291,-2.8291,-2.8291,-2.8291,-2.8291,-2.8291,-2.8291,-2.8291,-2.8291,-2.8291,-2.8291,-2.8291,-2.8291,-2.8291,-2.8291,-2.8291,-2.8291,-2.8291,-2.8291,-2.8291,-2.8291,-2.8291,-2.8291,-2.8291,-2.8291,-2.8291,-2.8291,-2.8291,-2.8291,-2.8291,-2.8291,-2.6943,-2.6264,-0.61,-0.7535,-0.859,-0.7428,-0.7146,-0.6842,-0.5601,0.0,0.0,-0.2684,-0.2817,-0.3631,-0.6025,-0.8208,-0.9132,0.0,0.0,0.0,0.0,0.0,0.0,0.0,0.0,0.0,0.0,0.0,0.0,0.0,0.0,0.0,-2.0134,-2.0595,-2.0929,-2.1102,-2.1109,-2.1109,-2.1109,-2.1109,-2.1109,-2.1109,-2.1109,-2.1109,-2.1109,-2.2097,-2.3799,-2.6098,-2.7073,0.0,0.0,-3.0889,-3.0889,-3.0869,-3.0684,-3.0449,-3.0176,-3.001,-2.9678,-2.9277,-2.9014,-2.8809,-2.8633,-2.8369,-2.8291,-2.8291,-2.8291,-2.8291,-2.8291,-2.8291,-2.8291,-2.8291,-2.8291,-2.8291,-2.8291,-2.8291,-2.8291,-2.8291,-2.8291,-2.8291,-2.8291,-2.8291,-2.8291,-2.8291,-2.8291,-2.8291,-2.8291,-2.8291,-2.8291,-2.8291,-2.8291,-2.8291,-2.8291,-2.8291,-2.8291,-2.8291,-2.8291,-2.8291,-2.8291,-2.8291,-2.8291,-2.8291,-2.8291,-2.8291,-2.8291,-2.8291,-2.8291,-2.8291,-2.8291,-2.8291,-2.7843,-2.6943,-2.6381,-2.5151,-0.6409,-0.7285,-0.8862,-0.8853,-0.8876,-0.8876,0.0,0.0,0.0,-0.5969,-0.6143,-0.6198,-0.6226,-0.809,-0.9624,0.0,0.0,0.0,0.0,0.0,0.0,0.0,0.0,0.0,0.0,0.0,0.0,0.0,0.0,0.0,-1.98,-2.0194,-2.0548,-2.0842,-2.0848,-2.0848,-2.0848,-2.0935,-2.0982,-2.0982,-2.1069,-2.1109,-2.1109,-2.2834,-2.454,-2.6098,-2.7683,0.0,0.0,-3.0889,-3.0889,-3.0889,-3.0889,-3.0693,-3.04,-3.04,-3.0127,-2.9707,-2.9404,-2.9219,-2.9043,-2.8613,-2.8476,-2.8457,-2.833,-2.8291,-2.8291,-2.8291,-2.8291,-2.8291,-2.8291,-2.8291,-2.8291,-2.8291,-2.8291,-2.8291,-2.8291,-2.8291,-2.8291,-2.8291,-2.8291,-2.8291,-2.8291,-2.8291,-2.8291,-2.8291,-2.8291,-2.8291,-2.8291,-2.8291,-2.8291,-2.8291,-2.8291,-2.8291,-2.8291,-2.8291,-2.8291,-2.8291,-2.8291,-2.8291,-2.8291,-2.8291,-2.8291,-2.8291,-2.8291,-2.8291,-2.8291,-2.8291,-2.7501,-2.6045,-2.5599,-2.3813,-0.8855,-0.8876,-0.8856,-0.8947,-0.894,-0.8947,0.0,0.0,0.0,-0.9305,-0.9339,-0.938,-0.9391,-0.9662,-0.9758,-0.9612,0.0,0.0,0.0,0.0,0.0,0.0,0.0,0.0,0.0,0.0,0.0,0.0,0.0,0.0,-1.9786,-1.9806,-1.994,-2.0234,-2.0241,-2.0241,-2.0241,-2.0535,-2.0681,-2.0681,-2.0969,-2.1109,-2.1109,-2.2834,-2.454,0.0,0.0,0.0,0.0,-3.0889,-3.0889,-3.0889,-3.0889,-3.0889,-3.0889,-3.0889,-3.0596,-3.0185,-3.0185,-2.9912,-2.9492,-2.9053,-2.8916,-2.8838,-2.8418,-2.8291,-2.8291,-2.8291,-2.8291,-2.8291,-2.8291,-2.8291,-2.8291,-2.8291,-2.8291,-2.8291,-2.8291,-2.8291,-2.8291,-2.8291,-2.8291,-2.8291,-2.8291,-2.8291,-2.8291,-2.8291,-2.8291,-2.8291,-2.8291,-2.8291,-2.8291,-2.8291,-2.8291,-2.8291,-2.8291,-2.8291,-2.8291,-2.8291,-2.8291,-2.8291,-2.8291,-2.8291,-2.8291,-2.8291,-2.8291,-2.8291,-2.8291,-2.8291,-2.7501,-2.6045,-2.4488,-2.2266,-0.8192,-0.8739,-0.8947,-0.894,-0.894,-0.894,-0.8947,0.0,0.0,-0.9257,-0.9373,-0.9378,-0.9523,-0.9669,-0.9764,-0.9754,-1.0748,0.0,0.0,0.0,0.0,0.0,0.0,0.0,0.0,0.0,0.0,0.0,0.0,0.0,-1.9499,-1.9506,-1.9726,-2.0221,-2.0234,-2.0234,-2.0234,-2.0327,-2.0374,-2.0374,-2.0675,-2.0815,-2.0822,-2.1512,-2.3435,0.0,0.0,0.0,0.0,-3.0889,-3.0889,-3.0889,-3.0889,-3.0889,-3.0889,-3.0889,-3.0801,-3.0625,-3.0303,-3.0107,-2.9932,-2.9502,-2.916,-2.8896,-2.876,-2.8525,-2.8291,-2.8291,-2.8291,-2.8291,-2.8291,-2.8291,-2.8291,-2.8291,-2.8291,-2.8291,-2.8291,-2.8291,-2.8291,-2.8291,-2.8291,-2.8291,-2.8291,-2.8291,-2.8291,-2.8291,-2.8291,-2.8291,-2.8291,-2.8291,-2.8291,-2.8291,-2.8291,-2.8291,-2.8291,-2.8291,-2.8291,-2.8291,-2.8291,-2.8291,-2.8291,-2.8291,-2.8291,-2.8291,-2.8291,-2.8291,-2.8291,-2.8291,-2.6943,-2.4488,-2.3039,-2.1259,0.0,-0.8773,-0.894,-0.894,-0.894,0.0,0.0,0.0,0.0,-0.9208,-0.9361,-0.9513,-0.9663,-1.0236,-1.066,-1.066,-1.2097,0.0,0.0,0.0,0.0,0.0,0.0,0.0,0.0,0.0,0.0,0.0,0.0,0.0,-1.9366,-1.9366,-1.9533,-1.9893,-1.9907,-1.9907,-1.9907,-2.0013,-2.0067,-2.0074,-2.0368,-2.0568,-2.0681,-2.1472,-2.3076,0.0,0.0,0.0,0.0,-3.0645,-3.0889,-3.0889,-3.0889,-3.0889,-3.0889,-3.0889,-3.0889,-3.085,-3.0566,-3.0459,-3.0391,-2.9951,-2.9404,-2.8887,-2.873,-2.8496,-2.8291,-2.8291,-2.8291,-2.8291,-2.8291,-2.8291,-2.8291,-2.8291,-2.8291,-2.8291,-2.8291,-2.8291,-2.8291,-2.8291,-2.8291,-2.8291,-2.8291,-2.8291,-2.8291,-2.8291,-2.8291,-2.8291,-2.8291,-2.8291,-2.8291,-2.8291,-2.8291,-2.8291,-2.8291,-2.8291,-2.8291,-2.8291,-2.8291,-2.8291,-2.8291,-2.8291,-2.8291,-2.8291,-2.8291,-2.8291,-2.8291,-2.7726,-2.5936,-2.2927,-2.2032,-2.0809,0.0,0.0,0.0,0.0,0.0,0.0,0.0,0.0,0.0,0.0,0.0,0.0,-0.9913,-1.1257,-1.2333,-1.2333,-1.3765,0.0,0.0,0.0,0.0,0.0,0.0,0.0,0.0,0.0,0.0,0.0,0.0,0.0,-1.9366,-1.9366,-1.9366,-1.9366,-1.9366,-1.9366,-1.9366,-1.9633,-1.9766,-1.9773,-2.006,-2.0347,-2.0738,-2.222,-2.3245,0.0,0.0,0.0,0.0,-3.0265,-3.0889,-3.0889,-3.0889,-3.0889,-3.0889,-3.0889,-3.0889,-3.0889,-3.0889,-3.0889,-3.081,-3.0342,-2.9639,-2.8887,-2.8467,-2.831,-2.8291,-2.8291,-2.8291,-2.8291,-2.8291,-2.8291,-2.8291,-2.8291,-2.8291,-2.8291,-2.8291,-2.8291,-2.8291,-2.8291,-2.8291,-2.8291,-2.8291,-2.8291,-2.8291,-2.8291,-2.8291,-2.8291,-2.8291,-2.8291,-2.8291,-2.8291,-2.8291,-2.8291,-2.8291,-2.8291,-2.8291,-2.8291,-2.8291,-2.8291,-2.8291,-2.8291,-2.8291,-2.8291,-2.8291,-2.8291,-2.8291,-2.6825,-2.4591,-2.1692,-2.1699,-2.0809,-0.8947,0.0,-0.894,-0.894,-0.894,0.0,0.0,0.0,0.0,0.0,0.0,0.0,0.0,0.0,0.0,0.0,0.0,0.0,0.0,0.0,0.0,0.0,0.0,0.0,0.0,0.0,0.0,0.0,0.0,-1.9366,-1.9366,-1.9366,-1.9366,-1.9366,-1.9366,-1.9366,-1.9366,-1.9432,-1.9466,-1.9472,-1.9766,-1.994,-2.002,-2.0829,-2.263,0.0,0.0,0.0,-3.0392,-3.0762,-3.0889,-3.0889,-3.0889,-3.0889,-3.0889,-3.0889,-3.0889,-3.0889,-3.0889,-3.0889,-3.081,-3.0342,-2.9844,-2.9336,-2.8906,-2.8545,-2.8291,-2.8291,-2.8291,-2.8291,-2.8291,-2.8291,-2.8291,-2.8291,-2.8291,-2.8291,-2.8291,-2.8291,-2.8291,-2.8291,-2.8291,-2.8291,-2.8291,-2.8291,-2.8291,-2.8291,-2.8291,-2.8291,-2.8291,-2.8291,-2.8291,-2.8291,-2.8291,-2.8291,-2.8291,-2.8291,-2.8291,-2.8291,-2.8291,-2.8291,-2.8291,-2.8291,-2.8291,-2.8291,-2.8291,-2.8291,-2.8291,-2.6825,-2.5151,-2.3263,-2.2145,-2.0809,-0.9699,-0.9372,-0.894,-0.894,-0.9372,-0.9699,0.0,0.0,0.0,0.0,0.0,0.0,0.0,0.0,0.0,0.0,0.0,0.0,0.0,0.0,0.0,0.0,0.0,0.0,0.0,0.0,0.0,0.0,0.0,-1.9366,-1.9366,-1.9366,-1.9366,-1.9366,-1.9366,-1.9366,-1.9366,-1.9366,-1.9366,-1.9372,-1.9526,-1.9673,-1.9813,-2.0127,-2.1369,0.0,0.0,0.0,-2.8801,-3.0274,-3.0889,-3.0889,-3.0889,-3.0889,-3.0889,-3.0889,-3.0889,-3.0889,-3.0889,-3.0889,-3.081,-3.0342,-3.0039,-2.9736,-2.9111,-2.876,-2.8535,-2.835,-2.8291,-2.8291,-2.8291,-2.8291,-2.8291,-2.8291,-2.8291,-2.8291,-2.8291,-2.8291,-2.8291,-2.8291,-2.8291,-2.8291,-2.8291,-2.8291,-2.8291,-2.8291,-2.8291,-2.8291,-2.8291,-2.8291,-2.8291,-2.8291,-2.8291,-2.8291,-2.8291,-2.8291,-2.8291,-2.8291,-2.8291,-2.8291,-2.8291,-2.8291,-2.8291,-2.8291,-2.8291,-2.795,-2.7276,-2.649,-2.4931,-2.2814,-2.1919,-2.0809,-1.0781,-1.0347,-0.9592,-0.9592,-1.0457,-1.1105,0.0,0.0,0.0,0.0,0.0,0.0,0.0,0.0,0.0,0.0,0.0,0.0,0.0,0.0,0.0,0.0,0.0,0.0,0.0,0.0,0.0,0.0,0.0,-1.9366,-1.9366,-1.9366,-1.9366,-1.9366,-1.9366,-1.9366,-1.9366,-1.9366,-1.9366,-1.9366,-1.9366,-1.9499,-1.9733,-1.978,-2.0328,-2.1565,0.0,0.0,-2.6961,-2.9785,-3.0889,-3.0889,-3.0889,-3.0889,-3.0889,-3.0889,-3.0889,-3.0889,-3.0889,-3.0889,-3.083,-3.043,-3.0254,-3.0059,-2.9336,-2.9023,-2.8848,-2.8486,-2.834,-2.8291,-2.8291,-2.8291,-2.8291,-2.8291,-2.8291,-2.8291,-2.8291,-2.8291,-2.8291,-2.8291,-2.8291,-2.8291,-2.8291,-2.8291,-2.8291,-2.8291,-2.8291,-2.8291,-2.8291,-2.8291,-2.8291,-2.8291,-2.8291,-2.8291,-2.8291,-2.8291,-2.8291,-2.8291,-2.8291,-2.8291,-2.8291,-2.8291,-2.8291,-2.8291,-2.8291,-2.7726,-2.6381,-2.5927,-2.448,-2.1919,-2.1472,-2.0587,-1.1,-1.1864,-1.2615,-1.2615,-1.2837,-1.294,-1.2729,0.0,0.0,0.0,0.0,0.0,0.0,0.0,0.0,0.0,0.0,0.0,0.0,0.0,0.0,0.0,0.0,0.0,0.0,0.0,0.0,0.0,0.0,-1.9366,-1.9366,-1.9366,-1.9366,-1.9366,-1.9366,-1.9366,-1.9366,-1.9366,-1.9366,-1.9366,-1.9366,-1.9392,-1.9446,-1.9686,-2.1486,-2.4416,0.0,-2.734,-3.0157,-3.0645,-3.0889,-3.0889,-3.0889,-3.0889,-3.0889,-3.0889,-3.0889,-3.0889,-3.0889,-3.0889,-3.0879,-3.081,-3.0518,-3.0176,-3.0039,-2.9492,-2.8906,-2.8838,-2.8564,-2.8291,-2.8291,-2.8291,-2.8291,-2.8291,-2.8291,-2.8291,-2.8291,-2.8291,-2.8291,-2.8291,-2.8291,-2.8291,-2.8291,-2.8291,-2.8291,-2.8291,-2.8291,-2.8291,-2.8291,-2.8291,-2.8291,-2.8291,-2.8291,-2.8291,-2.8291,-2.8291,-2.8291,-2.8291,-2.8291,-2.8291,-2.8291,-2.8291,-2.8291,-2.8291,-2.8291,-2.8184,-2.796,-2.538,-2.3933,-2.3375,-2.0931,-1.9591,-1.3264,-1.3911,-1.4663,-1.5423,-1.499,-1.4234,-1.348,0.0,0.0,0.0,0.0,0.0,0.0,0.0,0.0,0.0,0.0,0.0,0.0,0.0,0.0,0.0,0.0,0.0,0.0,0.0,0.0,0.0,0.0,0.0,-1.9366,-1.9366,-1.9366,-1.9366,-1.9366,-1.9366,-1.9366,-1.9366,-1.9366,-1.9366,-1.9366,-1.9366,-1.9372,-1.9506,-2.0524,-2.2326,0.0,-2.6302,-2.812,-3.0052,-3.0889,-3.0889,-3.0889,-3.0889,-3.0889,-3.0889,-3.0889,-3.0889,-3.0889,-3.0889,-3.0889,-3.0889,-3.0742,-3.0527,-3.0273,-2.9922,-2.956,-2.9336,-2.8799,-2.8291,-2.8291,-2.8291,-2.8291,-2.8291,-2.8291,-2.8291,-2.8291,-2.8291,-2.8291,-2.8291,-2.8291,-2.8291,-2.8291,-2.8291,-2.8291,-2.8291,-2.8291,-2.8291,-2.8291,-2.8291,-2.8291,-2.8291,-2.8291,-2.8291,-2.8291,-2.8291,-2.8291,-2.8291,-2.8291,-2.8291,-2.8291,-2.8291,-2.8291,-2.8291,-2.8291,-2.8291,-2.8291,-2.527,-2.3822,-2.371,-2.0823,-1.9366,-1.5091,-1.563,-1.6174,-1.7364,0.0,-1.5636,-1.4556,0.0,0.0,0.0,0.0,0.0,0.0,0.0,0.0,0.0,0.0,0.0,0.0,0.0,0.0,0.0,0.0,0.0,0.0,0.0,0.0,0.0,0.0,0.0,-1.9366,-1.9366,-1.9366,-1.9366,-1.9366,-1.9366,-1.9366,-1.9366,-1.9366,-1.9366,-1.9366,-1.9366,-1.9366,-1.9366,-1.998,-2.1078,-2.3933,-2.5687,-2.6767,-2.9723,-3.0889,-3.0889,-3.0889,-3.0889,-3.0889,-3.0889,-3.0889,-3.0889,-3.0889,-3.0889,-3.0889,-3.0889,-3.0889,-3.083,-3.0469,-3.0283,-3.0127,-2.9814,-2.917,-2.8574,-2.8467,-2.8369,-2.8291,-2.8291,-2.8291,-2.8291,-2.8291,-2.8291,-2.8291,-2.8291,-2.8291,-2.8291,-2.8291,-2.8291,-2.8291,-2.8291,-2.8291,-2.8291,-2.8291,-2.8291,-2.8291,-2.8291,-2.8291,-2.8291,-2.8291,-2.8291,-2.8291,-2.8291,-2.8291,-2.8291,-2.8291,-2.8291,-2.8291,-2.8291,-2.8291,-2.8291,-2.8291,-2.527,-2.3822,-2.371,-2.0823,-1.9406,-1.5417,-1.6393,-1.7477,-1.7582,0.0,0.0,-1.7259,-1.7609,0.0,0.0,0.0,0.0,0.0,0.0,0.0,0.0,0.0,0.0,0.0,0.0,0.0,0.0,0.0,0.0,0.0,0.0,0.0,0.0,0.0,0.0,-1.9482,-1.9366,-1.9366,-1.9366,-1.9366,-1.9366,-1.9366,-1.9366,-1.9366,-1.9366,-1.9366,-1.9366,-1.9366,-1.9366,-2.1104,-2.4163,-2.4862,-2.6858,-2.9872,-3.0577,-3.0889,-3.0889,-3.0889,-3.0889,-3.0889,-3.0889,-3.0889,-3.0889,-3.0889,-3.0889,-3.0889,-3.0889,-3.0889,-3.0889,-3.085,-3.0537,-3.0185,-3.0156,-2.9824,-2.9385,-2.8984,-2.8584,-2.8291,-2.8291,-2.8291,-2.8291,-2.8291,-2.8291,-2.8291,-2.8291,-2.8291,-2.8291,-2.8291,-2.8291,-2.8291,-2.8291,-2.8291,-2.8291,-2.8291,-2.8291,-2.8291,-2.8291,-2.8291,-2.8291,-2.8291,-2.8291,-2.8291,-2.8291,-2.8291,-2.8291,-2.8291,-2.8291,-2.8291,-2.8291,-2.8291,-2.8291,-2.8291,-2.527,-2.3822,-2.371,-2.0823,-1.9512,-1.6823,-1.7153,-1.7582,-1.7582,0.0,0.0,0.0,0.0,0.0,0.0,0.0,0.0,0.0,0.0,0.0,0.0,0.0,0.0,0.0,0.0,0.0,0.0,0.0,0.0,0.0,0.0,0.0,0.0,0.0,0.0,-2.2161,-2.2153,-2.2153,-2.2153,-2.1259,-2.0816,-2.0816,-1.9809,-1.9366,-1.9366,-1.9366,-1.9366,-1.9366,-1.9366,-2.0658,-2.2808,-2.4187,-2.6162,-2.8539,-2.992,-3.0635,-3.0889,-3.0889,-3.0889,-3.0889,-3.0889,-3.0889,-3.0889,-3.0889,-3.0889,-3.0889,-3.0889,-3.0889,-3.0889,-3.0889,-3.0771,-3.0635,-3.0635,-3.0312,-2.9863,-2.9434,-2.9209,-2.9014,-2.874,-2.8682,-2.8613,-2.835,-2.8291,-2.8291,-2.8291,-2.8291,-2.8291,-2.8291,-2.8291,-2.8291,-2.8291,-2.8291,-2.8291,-2.8291,-2.8291,-2.8291,-2.8291,-2.8291,-2.8291,-2.8291,-2.8291,-2.8291,-2.8291,-2.8291,-2.8291,-2.8291,-2.8291,-2.8291,-2.8291,-2.8291,-2.7843,-2.6943,-2.4829,-2.3375,-2.2371,-2.0568,-1.9693,-1.7582,-1.7582,-1.7681,0.0,0.0,0.0,0.0,0.0,0.0,0.0,0.0,0.0,0.0,0.0,0.0,0.0,0.0,0.0,0.0,0.0,0.0,0.0,0.0,0.0,0.0,0.0,0.0,0.0,0.0,0.0,0.0,-2.3822,-2.3822,-2.3822,-2.2371,-2.1586,-2.1586,-2.0148,-1.9366,-1.9366,-1.9366,-1.9366,-1.9366,-1.9366,-2.0479,-2.2387,-2.3869,-2.577,-2.7902,-2.9497,-3.0469,-3.0889,-3.0889,-3.0889,-3.0889,-3.0889,-3.0889,-3.0889,-3.0889,-3.0889,-3.0889,-3.0889,-3.0889,-3.0889,-3.0889,-3.0889,-3.0889,-3.0889,-3.0664,-3.0351,-3.0059,-2.9775,-2.9492,-2.9199,-2.9121,-2.9014,-2.8584,-2.8496,-2.8447,-2.832,-2.8291,-2.8291,-2.8291,-2.8291,-2.8291,-2.8291,-2.8291,-2.8291,-2.8291,-2.8291,-2.8291,-2.8291,-2.8291,-2.8291,-2.8291,-2.8291,-2.8291,-2.8291,-2.8291,-2.8291,-2.8291,-2.8291,-2.8291,-2.8291,-2.8291,-2.7609,-2.6155,-2.4599,-2.3095,-2.1743,-2.0386,-1.99,-1.7582,-1.7582,-1.7891,0.0,0.0,0.0,0.0,0.0,0.0,0.0,0.0,0.0,0.0,0.0,0.0,0.0,0.0,0.0,0.0,0.0,0.0,0.0,0.0,0.0,0.0,0.0,0.0,0.0,0.0,0.0,0.0,-2.3822,-2.3822,-2.3822,-2.2363,-2.1699,-2.1699,-2.0148,-1.9482,-1.9482,-1.9482,-1.9482,-1.9366,-1.9366,-2.1045,-2.3847,-2.4315,-2.6184,-2.8984,-2.9844,-3.0469,-3.0889,-3.0889,-3.0889,-3.0889,-3.0889,-3.0889,-3.0889,-3.0889,-3.0889,-3.0889,-3.0889,-3.0889,-3.0889,-3.0889,-3.0889,-3.0889,-3.0889,-3.0889,-3.0889,-3.0889,-3.0244,-2.958,-2.958,-2.958,-2.9453,-2.9023,-2.8926,-2.8799,-2.8379,-2.8301,-2.8301,-2.8291,-2.8291,-2.8291,-2.8291,-2.8291,-2.8291,-2.8291,-2.8291,-2.8291,-2.8291,-2.8291,-2.8291,-2.8291,-2.8291,-2.8291,-2.8291,-2.8291,-2.8291,-2.8291,-2.8291,-2.8291,-2.8291,-2.8291,-2.7501,-2.6045,-2.4488,-2.3101,-2.1955,-2.0482,-2.012,-1.8708,-1.902,0.0,0.0,0.0,0.0,0.0,0.0,0.0,0.0,0.0,0.0,0.0,0.0,0.0,0.0,0.0,0.0,0.0,0.0,0.0,0.0,0.0,0.0,0.0,0.0,0.0,0.0,0.0,0.0,0.0,-2.6952,-2.6952,-2.6952,-2.5489,-2.4812,-2.4812,-2.3263,-2.2492,-2.2492,-2.2492,-2.138,-1.9482,-2.0479,-2.204,-2.383,-2.5051,-2.683,-2.8984,-2.9844,-3.0469,-3.0889,-3.0889,-3.0889,-3.0889,-3.0889,-3.0889,-3.0889,-3.0889,-3.0889,-3.0889,-3.0889,-3.0889,-3.0889,-3.0889,-3.0889,-3.0889,-3.0889,-3.0889,-3.0889,-3.0889,-3.0693,-3.042,-3.0088,-3.001,-2.9893,-2.9463,-2.9375,-2.9248,-2.8818,-2.873,-2.8643,-2.834,-2.8291,-2.8291,-2.8291,-2.8291,-2.8291,-2.8291,-2.8291,-2.8291,-2.8291,-2.8291,-2.8291,-2.8291,-2.8291,-2.8291,-2.8291,-2.8291,-2.8291,-2.8291,-2.8291,-2.8291,-2.8291,-2.7276,-2.6045,-2.4488,-2.2927,-2.1643,-2.0489,-2.024,-2.0307,-2.0025,0.0,0.0,0.0,0.0,0.0,0.0,0.0,0.0,0.0,0.0,0.0,0.0,0.0,0.0,0.0,0.0,0.0,0.0,0.0,0.0,0.0,0.0,0.0,0.0,0.0,0.0,0.0,0.0,0.0,0.0,-2.8291,-2.8291,-2.8291,-2.6825,-2.6155,-2.6155,-2.4599,-2.3822,-2.3822,-2.3822,-2.2822,-2.1152,-2.204,-2.3263,-2.482,-2.6273,-2.7729,-2.8975,-2.9668,-3.0215,-3.0635,-3.082,-3.0889,-3.0889,-3.0889,-3.0889,-3.0889,-3.0889,-3.0889,-3.0889,-3.0889,-3.0889,-3.0889,-3.0889,-3.0889,-3.0889,-3.0889,-3.0889,-3.0889,-3.0889,-3.0889,-3.082,-3.0537,-3.0478,-3.0351,-2.9912,-2.9824,-2.9697,-2.9258,-2.9033,-2.8838,-2.8584,-2.8398,-2.8291,-2.8291,-2.8291,-2.8291,-2.8291,-2.8291,-2.8291,-2.8291,-2.8291,-2.8291,-2.8291,-2.8291,-2.8291,-2.8291,-2.8291,-2.8291,-2.8291,-2.8291,-2.8291,-2.8291,-2.6825,-2.5371,-2.3822,-2.2389,-2.1154,-1.998,-2.0274,-2.0568,0.0,0.0,0.0,0.0,0.0,0.0,0.0,0.0,0.0,0.0,0.0,0.0,0.0,0.0,0.0,0.0,0.0,0.0,0.0,0.0,0.0,0.0,0.0,0.0,0.0,0.0,0.0,0.0,0.0,0.0,0.0,-2.8291,-2.8291,-2.8291,-2.7051,-2.6264,-2.6264,-2.4931,-2.4156,-2.4156,-2.4156,-2.4156,-2.4156,-2.4044,-2.482,-2.6381,-2.7726,-2.8535,-2.8945,-2.9346,-2.9785,-3.0234,-3.0664,-3.0859,-3.0889,-3.0889,-3.0889,-3.0889,-3.0889,-3.0889,-3.0889,-3.0889,-3.0889,-3.0889,-3.0889,-3.0889,-3.0889,-3.0889,-3.0889,-3.0889,-3.0889,-3.0889,-3.0889,-3.0889,-3.0889,-3.0771,-3.0351,-3.0264,-3.0137,-2.9707,-2.9307,-2.9014,-2.8926,-2.8603,-2.834,-2.8301,-2.8291,-2.8291,-2.8291,-2.8291,-2.8291,-2.8291,-2.8291,-2.8291,-2.8291,-2.8291,-2.8291,-2.8291,-2.8291,-2.8291,-2.8291,-2.8291,-2.8291,-2.8291,-2.6825,-2.5397,-2.3871,-2.2605,-2.145,-2.0281,-2.0548,-2.0828,0.0,0.0,0.0,0.0,0.0,0.0,0.0,0.0,0.0,0.0,0.0,0.0,0.0,0.0,0.0,0.0,0.0,0.0,0.0,0.0,0.0,0.0,0.0,0.0,0.0,0.0,0.0,0.0,0.0,0.0,-2.8291,-2.8291,-2.8291,-2.8291,-2.795,-2.7843,-2.7843,-2.7501,-2.7286,0.0,-2.7286,-2.7286,-2.7286,-2.6164,-2.6381,-2.7843,-2.8174,-2.8535,-2.8926,-2.9023,-2.9502,-3.0205,-3.0303,-3.0566,-3.0889,-3.0889,-3.0889,-3.0889,-3.0889,-3.0889,-3.0889,-3.0889,-3.0889,-3.0889,-3.0889,-3.0889,-3.0889,-3.0889,-3.0889,-3.0889,-3.0889,-3.0889,-3.0889,-3.0889,-3.0889,-3.0859,-3.0762,-3.0742,-3.0605,-3.0156,-2.999,-2.9707,-2.9033,-2.8848,-2.8672,-2.834,-2.8291,-2.8291,-2.8291,-2.8291,-2.8291,-2.8291,-2.8291,-2.8291,-2.8291,-2.8291,-2.8291,-2.8291,-2.8291,-2.8291,-2.8291,-2.8291,-2.8291,-2.8291,-2.6825,-2.5418,-2.4137,-2.2721,-2.1565,-2.0581,-2.0648,-2.0828,0.0,0.0,0.0,0.0,0.0,0.0,0.0,0.0,0.0,0.0,0.0,0.0,0.0,0.0,0.0,0.0,0.0,0.0,0.0,0.0,0.0,0.0,0.0,0.0,0.0,0.0,0.0,0.0,0.0,-2.8291,-2.8291,-2.8291,-2.8291,-2.8291,-2.8291,-2.8291,-2.8291,-2.8291,-2.8291,-2.8291,-2.8291,-2.8291,-2.8291,-2.7501,-2.7609,-2.8291,-2.8291,-2.8418,-2.8633,-2.8838,-2.9307,-2.9912,-3.0117,-3.0478,-3.0889,-3.0889,-3.0889,-3.0889,-3.0889,-3.0889,-3.0889,-3.0889,-3.0889,-3.0889,-3.0889,-3.0889,-3.0889,-3.0889,-3.0889,-3.0889,-3.0889,-3.0889,-3.0889,-3.0889,-3.0889,-3.0889,-3.0889,-3.0889,-3.082,-3.0576,-3.0342,-3.0059,-2.9609,-2.9189,-2.8848,-2.8623,-2.8418,-2.8291,-2.8291,-2.8291,-2.8291,-2.8291,-2.8291,-2.8291,-2.8291,-2.8291,-2.8291,-2.8291,-2.8291,-2.8291,-2.8291,-2.8291,-2.8291,-2.8291,-2.7029,-2.5646,-2.4261,-2.3099,-2.1903,-2.0681,-2.0822,-2.0962,0.0,0.0,0.0,0.0,0.0,0.0,0.0,0.0,0.0,0.0,0.0,0.0,0.0,0.0,0.0,0.0,0.0,0.0,0.0,0.0,0.0,0.0,0.0,0.0,0.0,0.0,0.0,0.0,0.0,-2.8291,-2.8291,-2.8291,-2.8291,-2.8291,-2.8291,-2.8291,-2.8291,-2.8291,-2.8291,-2.8291,-2.8291,-2.8291,-2.8291,-2.8291,-2.8291,-2.8291,-2.8291,-2.8291,-2.832,-2.8672,-2.9062,-2.9502,-2.9922,-3.0371,-3.0781,-3.0859,-3.0889,-3.0889,-3.0889,-3.0889,-3.0889,-3.0889,-3.0889,-3.0889,-3.0889,-3.0889,-3.0889,-3.0889,-3.0889,-3.0889,-3.0889,-3.0889,-3.0889,-3.0889,-3.0889,-3.0889,-3.0889,-3.0889,-3.0889,-3.0889,-3.0518,-3.0195,-3.0195,-2.9551,-2.9033,-2.9033,-2.874,-2.8486,-2.8408,-2.8398,-2.8369,-2.8301,-2.8291,-2.8291,-2.8291,-2.8291,-2.8291,-2.8291,-2.8291,-2.833,-2.8398,-2.8398,-2.8437,-2.8516,-2.7547,-2.6376,-2.4901,-2.3984,-2.2745,-2.1245,-2.1121,-2.1109,0.0,0.0,0.0,0.0,0.0,0.0,0.0,0.0,0.0,0.0,0.0,0.0,0.0,0.0,0.0,0.0,0.0,0.0,0.0,0.0,0.0,0.0,0.0,0.0,0.0,0.0,0.0,0.0,-2.8086,-2.8291,-2.8291,-2.8291,-2.8291,-2.8291,-2.8291,-2.8291,-2.8291,-2.8291,-2.8291,-2.8291,-2.8291,-2.8291,-2.8291,-2.8291,-2.8291,-2.8291,-2.8291,-2.8291,-2.8301,-2.8359,-2.8623,-2.9053,-2.9482,-2.9912,-3.0332,-3.0742,-3.0889,-3.0889,-3.0889,-3.0889,-3.0889,-3.0889,-3.0889,-3.0889,-3.0889,-3.0889,-3.0889,-3.0889,-3.0889,-3.0889,-3.0889,-3.0889,-3.0889,-3.0889,-3.0889,-3.0889,-3.0889,-3.0889,-3.0889,-3.0889,-3.0518,-3.0195,-3.0195,-2.9805,-2.9482,-2.9482,-2.9434,-2.9268,-2.8887,-2.8838,-2.8701,-2.833,-2.8291,-2.8291,-2.8291,-2.8291,-2.8291,-2.8291,-2.8291,-2.8457,-2.8818,-2.8838,-2.9014,-2.9394,-2.8852,-2.8145,-2.7329,-2.5754,-2.4409,-2.3142,-2.1706,-2.1109,0.0,0.0,0.0,0.0,0.0,0.0,0.0,0.0,0.0,0.0,0.0,0.0,0.0,0.0,0.0,0.0,0.0,0.0,0.0,0.0,0.0,0.0,0.0,0.0,0.0,0.0,0.0,0.0,-2.7832,-2.8047,-2.8281,-2.8291,-2.8291,-2.8291,-2.8291,-2.8291,-2.8291,-2.8291,-2.8291,-2.8291,-2.8291,-2.8291,-2.8291,-2.8291,-2.8291,-2.8291,-2.8291,-2.8291,-2.8291,-2.8291,-2.8535,-2.8935,-2.9131,-2.9609,-3.0225,-3.043,-3.0664,-3.0889,-3.0889,-3.0889,-3.0889,-3.0889,-3.0889,-3.0889,-3.0889,-3.0889,-3.0889,-3.0889,-3.0889,-3.0889,-3.0889,-3.0889,-3.0889,-3.0889,-3.0889,-3.0889,-3.0889,-3.0889,-3.0889,-3.0889,-3.0723,-3.0586,-3.0586,-3.0215,-2.9922,-2.9922,-2.9717,-2.9502,-2.9307,-2.9287,-2.9209,-2.9033,-2.9004,-2.9004,-2.9004,-2.9004,-2.9004,-2.9004,-2.9004,-2.9092,-2.9277,-2.9287,-2.9482,-2.9912,-2.9736,-2.9003,-2.784,-2.6364,-2.4987,-2.3574,-2.1853,-2.1109,0.0,0.0,0.0,0.0,0.0,0.0,0.0,0.0,0.0,0.0,0.0,0.0,0.0,0.0,0.0,0.0,0.0,0.0,0.0,0.0,0.0,0.0,0.0,0.0,0.0,0.0,0.0,0.0,-2.7539,-2.7803,-2.8115,-2.8232,-2.8291,-2.8291,-2.8291,-2.8291,-2.8291,-2.8291,-2.8291,-2.8291,-2.8291,-2.8291,-2.8291,-2.8291,-2.8291,-2.8291,-2.8291,-2.8291,-2.8291,-2.8291,-2.8476,-2.8769,-2.8877,-2.9375,-3.0049,-3.0156,-3.0488,-3.0889,-3.0889,-3.0889,-3.0889,-3.0889,-3.0889,-3.0889,-3.0889,-3.0889,-3.0889,-3.0889,-3.0889,-3.0889,-3.0889,-3.0889,-3.0889,-3.0889,-3.0889,-3.0889,-3.0889,-3.0889,-3.0889,-3.0889,-3.0889,-3.0889,-3.0889,-3.0605,-3.0371,-3.0371,-3.0107,-2.9863,-2.9746,-2.9726,-2.9687,-2.958,-2.957,-2.957,-2.957,-2.957,-2.957,-2.957,-2.957,-2.9619,-2.9726,-2.9726,-2.9932,-3.0361,-3.0371,-2.9776,-2.8597,-2.6824,-2.5375,-2.4178,-2.209,-2.1109,0.0,0.0,0.0,0.0,0.0,0.0,0.0,0.0,0.0,0.0,0.0,0.0,0.0,0.0,0.0,0.0,0.0,0.0,0.0,0.0,0.0,0.0,0.0,0.0,0.0,0.0,0.0,0.0,-2.7207,-2.7676,-2.7695,-2.8076,-2.8291,-2.8291,-2.8291,-2.8291,-2.8291,-2.8291,-2.8291,-2.8291,-2.8291,-2.8291,-2.8291,-2.8291,-2.8291,-2.8291,-2.8291,-2.8291,-2.8291,-2.8291,-2.8301,-2.8369,-2.876,-2.9199,-2.9648,-3.0049,-3.0488,-3.0889,-3.0889,-3.0889,-3.0889,-3.0889,-3.0889,-3.0889,-3.0889,-3.0889,-3.0889,-3.0889,-3.0889,-3.0889,-3.0889,-3.0889,-3.0889,-3.0889,-3.0889,-3.0889,-3.0889,-3.0889,-3.0889,-3.0889,-3.0889,-3.0889,-3.0889,-3.0869,-3.0859,-3.0859,-3.084,-3.0664,-3.0225,-3.0166,-3.001,-2.9609,-2.957,-2.957,-2.957,-2.957,-2.957,-2.957,-2.957,-2.9746,-3.0146,-3.0166,-3.0381,-3.084,-3.0859,-3.085,-3.0733,-2.7563,-2.5976,-2.5863,-2.2577,-2.1109,0.0,0.0,0.0,0.0,0.0,0.0,0.0,0.0,0.0,0.0,0.0,0.0,0.0,0.0,0.0,0.0,0.0,0.0,0.0,0.0,0.0,0.0,0.0,0.0,0.0,0.0,0.0,0.0,0.0,-2.709,-2.7637,-2.7812,-2.8018,-2.8281,-2.8291,-2.8291,-2.8291,-2.8291,-2.8291,-2.8291,-2.8291,-2.8291,-2.8291,-2.8291,-2.8291,-2.8291,-2.8291,-2.8291,-2.8291,-2.8291,-2.8291,-2.831,-2.8457,-2.8779,-2.9199,-2.9639,-3.0068,-3.0488,-3.0791,-3.0889,-3.0889,-3.0889,-3.0889,-3.0889,-3.0889,-3.0889,-3.0889,-3.0889,-3.0889,-3.0889,-3.0889,-3.0889,-3.0889,-3.0889,-3.0889,-3.0889,-3.0889,-3.0889,-3.0889,-3.0889,-3.0889,-3.0889,-3.0889,-3.0889,-3.0889,-3.0889,-3.0889,-3.083,-3.0664,-3.0644,-3.0586,-3.043,-3.042,-3.042,-3.042,-3.042,-3.042,-3.042,-3.042,-3.0488,-3.0635,-3.0644,-3.0723,-3.0889,-3.0889,-3.0889,-3.0889,-2.8673,-2.6953,-2.5984,-2.3683,-2.2097,0.0,0.0,0.0,0.0,0.0,0.0,0.0,0.0,0.0,0.0,0.0,0.0,0.0,0.0,0.0,0.0,0.0,0.0,0.0,0.0,0.0,0.0,0.0,0.0,0.0,0.0,0.0,0.0,0.0,0.0,-2.7207,-2.751,-2.7861,-2.8281,-2.8291,-2.8291,-2.8291,-2.8291,-2.8291,-2.8291,-2.8291,-2.8291,-2.8291,-2.8291,-2.8291,-2.8291,-2.8291,-2.8291,-2.8291,-2.8291,-2.8291,-2.8291,-2.8291,-2.8555,-2.8955,-2.9248,-2.9707,-3.0244,-3.0547,-3.0762,-3.0889,-3.0889,-3.0889,-3.0889,-3.0889,-3.0889,-3.0889,-3.0889,-3.0889,-3.0889,-3.0889,-3.0889,-3.0889,-3.0889,-3.0889,-3.0889,-3.0889,-3.0889,-3.0889,-3.0889,-3.0889,-3.0889,-3.0889,-3.0889,-3.0889,-3.0889,-3.0889,-3.0889,-3.0889,-3.0889,-3.0889,-3.0889,-3.0889,-3.0889,-3.0889,-3.0889,-3.0889,-3.0889,-3.0889,-3.0889,-3.0889,-3.0889,-3.0889,-3.0889,-3.0889,-3.0889,-3.0889,-2.8673,-2.7073,-2.5984,-2.3807,-2.2215,0.0,0.0,0.0,0.0,0.0,0.0,0.0,0.0,0.0,0.0,0.0,0.0,0.0,0.0,0.0,0.0,0.0,0.0,0.0,0.0,0.0,0.0,0.0,0.0,0.0,0.0,0.0,0.0,-2.6133,-2.6377,-2.6387,-2.7207,-2.7861,-2.8281,-2.8291,-2.8291,-2.8291,-2.8291,-2.8291,-2.8291,-2.8291,-2.8291,-2.8291,-2.8291,-2.8291,-2.8291,-2.8291,-2.8291,-2.8291,-2.8291,-2.8291,-2.8291,-2.8291,-2.8545,-2.8896,-2.8916,-2.9443,-3.0166,-3.0185,-3.0488,-3.0869,-3.0889,-3.0889,-3.0889,-3.0889,-3.0889,-3.0889,-3.0889,-3.0889,-3.0889,-3.0889,-3.0889,-3.0889,-3.0889,-3.0889,-3.0889,-3.0889,-3.0889,-3.0889,-3.0889,-3.0889,-3.0889,-3.0889,-3.0889,-3.0889,-3.0889,-3.0889,-3.0889,-3.0889,-3.0889,-3.0889,-3.0889,-3.0889,-3.0889,-3.0889,-3.0889,-3.0889,-3.0889,-3.0889,-3.0889,-3.0889,-3.0889,-3.0889,-3.0889,-3.0889,-3.0889,-3.0889,-2.7692,-2.6098,-2.5976,-2.257,-2.1109,-2.5742,0.0,0.0,0.0,0.0,0.0,0.0,0.0,0.0,0.0,0.0,0.0,0.0,0.0,0.0,0.0,0.0,0.0,0.0,0.0,0.0,0.0,0.0,0.0,0.0,0.0,0.0,0.0,-2.585,-2.6055,-2.6367,-2.7207,-2.7861,-2.8281,-2.8291,-2.8291,-2.8291,-2.8291,-2.8291,-2.8291,-2.8291,-2.8291,-2.8291,-2.8291,-2.8291,-2.8291,-2.8291,-2.8291,-2.8291,-2.8291,-2.8291,-2.8291,-2.8291,-2.8359,-2.8506,-2.8809,-2.9072,-2.9365,-2.998,-3.0283,-3.0449,-3.0781,-3.0889,-3.0889,-3.0889,-3.0889,-3.0889,-3.0889,-3.0889,-3.0889,-3.0889,-3.0889,-3.0889,-3.0889,-3.0889,-3.0889,-3.0889,-3.0889,-3.0889,-3.0889,-3.0889,-3.0889,-3.0889,-3.0889,-3.0889,-3.0889,-3.0889,-3.0889,-3.0889,-3.0889,-3.0889,-3.0889,-3.0889,-3.0889,-3.0889,-3.0889,-3.0889,-3.0889,-3.0889,-3.0889,-3.0889,-3.0889,-3.0889,-3.0889,-3.0889,-3.0889,-3.0889,-2.8792,-2.7194,-2.5976,-2.257,-2.1109,0.0,0.0,0.0,0.0,0.0,0.0,-2.5742,-2.5742,0.0,0.0,0.0,0.0,0.0,0.0,0.0,0.0,0.0,0.0,0.0,0.0,0.0,0.0,0.0,0.0,0.0,-2.5742,-2.5742,-2.5742,-2.5742,-2.5928,-2.6367,-2.7031,-2.7588,-2.8018,-2.8203,-2.8291,-2.8291,-2.8291,-2.8291,-2.8291,-2.8291,-2.8291,-2.8291,-2.8291,-2.8291,-2.8291,-2.8291,-2.8291,-2.8291,-2.8291,-2.8291,-2.8291,-2.8291,-2.8291,-2.832,-2.8564,-2.8769,-2.8984,-2.9492,-2.9902,-3.0244,-3.0518,-3.0732,-3.0889,-3.0889,-3.0889,-3.0889,-3.0889,-3.0889,-3.0889,-3.0889,-3.0889,-3.0889,-3.0889,-3.0889,-3.0889,-3.0889,-3.0889,-3.0889,-3.0889,-3.0889,-3.0889,-3.0889,-3.0889,-3.0889,-3.0889,-3.0889,-3.0889,-3.0889,-3.0889,-3.0889,-3.0889,-3.0889,-3.0889,-3.0889,-3.0889,-3.0889,-3.0889,-3.0889,-3.0889,-3.0889,-3.0889,-3.0889,-3.0889,-3.0889,-3.0274,-2.8801,-2.7931,-2.6227,-2.3915,-2.1964,-2.1109,0.0,0.0,0.0,0.0,0.0,0.0,-2.5742,-2.5742,-2.5742,0.0,0.0,0.0,0.0,0.0,0.0,0.0,0.0,0.0,0.0,0.0,0.0,0.0,0.0,0.0,-2.5742,-2.5742,-2.5742,-2.5742,-2.5742,-2.5928,-2.6367,-2.6787,-2.7217,-2.7656,-2.8076,-2.8291,-2.8291,-2.8291,-2.8291,-2.8291,-2.8291,-2.8291,-2.8291,-2.8291,-2.8291,-2.8291,-2.8291,-2.8291,-2.8291,-2.8291,-2.8291,-2.8291,-2.8291,-2.8291,-2.8291,-2.8291,-2.8525,-2.8857,-2.8896,-2.9414,-3.0059,-3.0107,-3.041,-3.0752,-3.0801,-3.081,-3.083,-3.0879,-3.0889,-3.0889,-3.0889,-3.0889,-3.0889,-3.0889,-3.0889,-3.0889,-3.0889,-3.0889,-3.0889,-3.0889,-3.0889,-3.0889,-3.0889,-3.0889,-3.0889,-3.0889,-3.0889,-3.0889,-3.0889,-3.0889,-3.0889,-3.0889,-3.0889,-3.0889,-3.0889,-3.0889,-3.0889,-3.0889,-3.0889,-3.0889,-3.0889,-3.0889,-3.0889,-3.0889,-3.0889,-2.9285,-2.5976,-2.5976,-2.4278,-2.1109,-2.1109,-2.1109,0.0,0.0,0.0,0.0,0.0,0.0,-2.5742,-2.5742,-2.5742,0.0,0.0,0.0,0.0,0.0,0.0,0.0,0.0,0.0,0.0,0.0,0.0,0.0,0.0,0.0,-2.5742,-2.5742,-2.5742,-2.5742,-2.5742,-2.5928,-2.6367,-2.6787,-2.7217,-2.7656,-2.8076,-2.8291,-2.8291,-2.8291,-2.8291,-2.8291,-2.8291,-2.8291,-2.8291,-2.8291,-2.8291,-2.8291,-2.8291,-2.8291,-2.8291,-2.8291,-2.8291,-2.8291,-2.8291,-2.8291,-2.8291,-2.8291,-2.834,-2.8467,-2.8799,-2.9033,-2.9228,-2.958,-2.9756,-2.9893,-3.0225,-3.0332,-3.041,-3.0781,-3.0889,-3.0889,-3.0889,-3.0889,-3.0889,-3.0889,-3.0889,-3.0889,-3.0889,-3.0889,-3.0889,-3.0889,-3.0889,-3.0889,-3.0889,-3.0889,-3.0889,-3.0889,-3.0889,-3.0889,-3.0889,-3.0889,-3.0889,-3.0889,-3.0889,-3.0889,-3.0889,-3.0889,-3.0889,-3.0889,-3.0889,-3.0889,-3.0889,-3.0889,-3.0889,-3.0889,-3.0889,-2.9285,-2.5976,-2.5976,-2.4278,-2.1109,-2.1109,-2.1109,0.0,0.0,0.0,-2.5742,0.0,0.0,0.0,-2.5742,-2.5742,0.0,0.0,0.0,0.0,0.0,0.0,0.0,0.0,0.0,0.0,0.0,0.0,0.0,0.0,0.0,-2.5742,-2.5742,-2.5742,-2.5742,-2.5742,-2.583,-2.6055,-2.6465,-2.6894,-2.7334,-2.7754,-2.8086,-2.8291,-2.8291,-2.8291,-2.8291,-2.8291,-2.8291,-2.8291,-2.8291,-2.8291,-2.8291,-2.8291,-2.8291,-2.8291,-2.8291,-2.8291,-2.8291,-2.8291,-2.8291,-2.8291,-2.8291,-2.8291,-2.832,-2.8535,-2.874,-2.8955,-2.917,-2.9394,-2.9609,-2.9824,-3.0029,-3.0244,-3.0478,-3.0713,-3.0889,-3.0889,-3.0889,-3.0889,-3.0889,-3.0889,-3.0889,-3.0889,-3.0889,-3.0889,-3.0889,-3.0889,-3.0889,-3.0889,-3.0889,-3.0889,-3.0889,-3.0889,-3.0889,-3.0889,-3.0889,-3.0889,-3.0889,-3.0889,-3.0889,-3.0889,-3.0889,-3.0889,-3.0889,-3.0889,-3.0889,-3.0889,-3.0889,-3.0889,-3.0889,-3.003,-2.8426,-2.5976,-2.5138,-2.3559,-2.1109,-2.1109,-2.1109,0.0,0.0,0.0,0.0,0.0,-2.5742,0.0,0.0,0.0,0.0,0.0,0.0,0.0,0.0,0.0,0.0,0.0,0.0,0.0,0.0,0.0,0.0,0.0,0.0,0.0,-2.5742,-2.5742,-2.5742,-2.5742,-2.5742,-2.5742,-2.6152,-2.6543,-2.6885,-2.7393,-2.7832,-2.8164,-2.8252,-2.8291,-2.8291,-2.8291,-2.8291,-2.8291,-2.8291,-2.8291,-2.8291,-2.8291,-2.8291,-2.8291,-2.8291,-2.8291,-2.8291,-2.8291,-2.8291,-2.8291,-2.8291,-2.8291,-2.8291,-2.8291,-2.8516,-2.8799,-2.8799,-2.9092,-2.9443,-2.9443,-2.9736,-3.0078,-3.0078,-3.0351,-3.0654,-3.0732,-3.0762,-3.0781,-3.0869,-3.0889,-3.0889,-3.0889,-3.0889,-3.0889,-3.0889,-3.0889,-3.0889,-3.0889,-3.0889,-3.0889,-3.0889,-3.0889,-3.0889,-3.0889,-3.0889,-3.0889,-3.0889,-3.0889,-3.0889,-3.0889,-3.0889,-3.0889,-3.0889,-3.0889,-3.0889,-3.0889,-3.0889,-3.0889,-3.0889,-2.953,-2.7931,-2.5976,-2.4655,-2.3076,-2.1109,-2.1109,-2.1109,0.0,0.0,0.0,0.0,-2.5742,0.0,0.0,0.0,-2.5742,-2.5742,0.0,0.0,0.0,0.0,0.0,0.0,0.0,0.0,0.0,0.0,0.0,0.0,0.0,0.0,0.0,-2.5742,-2.5742,-2.5742,-2.5742,-2.5742,-2.5742,-2.6152,-2.6406,-2.6455,-2.7246,-2.7685,-2.7734,-2.8105,-2.8291,-2.8291,-2.8291,-2.8291,-2.8291,-2.8291,-2.8291,-2.8291,-2.8291,-2.8291,-2.8291,-2.8291,-2.8291,-2.8291,-2.8291,-2.8291,-2.8291,-2.8291,-2.8291,-2.8291,-2.8291,-2.832,-2.8359,-2.8359,-2.8652,-2.8994,-2.8994,-2.9297,-2.9639,-2.9639,-2.9678,-2.9805,-3.0185,-3.0273,-3.0381,-3.0791,-3.0889,-3.0889,-3.0889,-3.0889,-3.0889,-3.0889,-3.0889,-3.0889,-3.0889,-3.0889,-3.0889,-3.0889,-3.0889,-3.0889,-3.0889,-3.0889,-3.0889,-3.0889,-3.0889,-3.0889,-3.0889,-3.0889,-3.0889,-3.0889,-3.0889,-3.0889,-3.0889,-3.0889,-3.0889,-3.0889,-3.0762,-2.9039,-2.5976,-2.5863,-2.4155,-2.1109,-2.1109,-2.1109,0.0,0.0,0.0,0.0,0.0,0.0,-2.5742,0.0,-2.5742,0.0,0.0,0.0,0.0,0.0,0.0,0.0,0.0,0.0,0.0,0.0,0.0,0.0,0.0,0.0,0.0,0.0,0.0,0.0,-2.5742,-2.5742,-2.5742,-2.5908,-2.6133,-2.6387,-2.6973,-2.7412,-2.7666,-2.8086,-2.8291,-2.8291,-2.8291,-2.8291,-2.8291,-2.8291,-2.8291,-2.8291,-2.8291,-2.8291,-2.8291,-2.8291,-2.8291,-2.8291,-2.8291,-2.8291,-2.8291,-2.8291,-2.8291,-2.8291,-2.8291,-2.8291,-2.8291,-2.8291,-2.8408,-2.8555,-2.8555,-2.8857,-2.9189,-2.9189,-2.9375,-2.9609,-2.9785,-2.9834,-2.9941,-3.0381,-3.0488,-3.0566,-3.083,-3.0889,-3.0889,-3.0889,-3.0889,-3.0889,-3.0889,-3.0889,-3.0889,-3.0889,-3.0889,-3.0889,-3.0889,-3.0889,-3.0889,-3.0889,-3.0889,-3.0889,-3.0889,-3.0889,-3.0889,-3.0889,-3.0889,-3.0889,-3.0889,-3.0889,-3.0889,-3.0889,-2.9903,-2.8298,-2.5976,-2.5016,-2.3435,-2.1109,-2.1109,-2.1109,-2.5742,0.0,0.0,0.0,0.0,0.0,0.0,0.0,0.0,0.0,0.0,0.0,0.0,0.0,0.0,0.0,0.0,0.0,0.0,0.0,0.0,0.0,0.0,0.0,0.0,0.0,0.0,-2.5742,-2.5742,-2.5742,-2.5742,-2.5742,-2.5889,-2.6201,-2.6621,-2.7051,-2.748,-2.791,-2.8174,-2.8291,-2.8291,-2.8291,-2.8291,-2.8291,-2.8291,-2.8291,-2.8291,-2.8291,-2.8291,-2.8291,-2.8291,-2.8291,-2.8291,-2.8291,-2.8291,-2.8291,-2.8291,-2.8291,-2.8291,-2.8291,-2.8291,-2.8291,-2.8291,-2.8291,-2.8291,-2.8506,-2.875,-2.875,-2.8975,-2.9248,-2.9365,-2.9394,-2.9492,-2.9922,-3.0029,-3.0146,-3.0605,-3.0703,-3.0742,-3.0869,-3.0889,-3.0889,-3.0889,-3.0889,-3.0889,-3.0889,-3.0889,-3.0889,-3.0889,-3.0889,-3.0889,-3.0889,-3.0889,-3.0889,-3.0889,-3.0889,-3.0889,-3.0889,-3.0889,-3.0889,-3.0889,-3.0889,-3.0645,-3.0265,-2.9039,-2.7443,-2.5375,-2.4178,-2.2709,-2.1109,-2.1109,-2.1109,0.0,0.0,0.0,-2.5742,0.0,0.0,0.0,0.0,-2.5742,0.0,0.0,0.0,0.0,0.0,0.0,0.0,0.0,0.0,0.0,0.0,0.0,0.0,0.0,0.0,0.0,0.0,0.0,-2.5742,-2.5742,-2.5742,-2.5742,-2.5742,-2.5742,-2.5752,-2.6182,-2.6611,-2.7031,-2.7471,-2.7891,-2.8291,-2.8291,-2.8291,-2.8291,-2.8291,-2.8291,-2.8291,-2.8291,-2.8291,-2.8291,-2.8291,-2.8291,-2.8291,-2.8291,-2.8291,-2.8291,-2.8291,-2.8291,-2.8291,-2.8291,-2.8291,-2.8291,-2.8291,-2.8291,-2.8291,-2.8291,-2.8301,-2.831,-2.831,-2.832,-2.8428,-2.8838,-2.8945,-2.9053,-2.9482,-2.959,-2.9707,-3.0127,-3.0215,-3.0351,-3.0801,-3.0889,-3.0889,-3.0889,-3.0889,-3.0889,-3.0889,-3.0889,-3.0889,-3.0889,-3.0889,-3.0889,-3.0889,-3.0889,-3.0889,-3.0889,-3.0889,-3.0889,-3.0889,-3.0889,-3.0889,-3.0889,-3.0889,-3.0147,-2.8536,-2.8417,-2.6849,-2.3698,-2.3574,-2.2709,-2.1109,-2.1109,-2.1109,0.0,0.0,-2.5742,-2.5742,0.0,0.0,0.0,0.0,0.0,0.0,0.0,0.0,0.0,0.0,0.0,0.0,0.0,0.0,0.0,0.0,-2.5742,0.0,0.0,0.0,0.0,0.0,0.0,-2.4412,-2.5226,-2.5742,-2.5742,-2.5742,-2.5742,-2.5742,-2.6162,-2.6592,-2.7012,-2.7451,-2.7881,-2.8291,-2.8291,-2.8291,-2.8291,-2.8291,-2.8291,-2.8291,-2.8291,-2.8291,-2.8291,-2.8291,-2.8291,-2.8291,-2.8291,-2.8291,-2.8291,-2.8291,-2.8291,-2.8291,-2.8291,-2.8291,-2.8291,-2.8291,-2.8291,-2.8291,-2.8291,-2.8291,-2.8291,-2.8291,-2.8291,-2.833,-2.8467,-2.8506,-2.8613,-2.9043,-2.9141,-2.9258,-2.9687,-3.0,-3.0244,-3.04,-3.0684,-3.0889,-3.0889,-3.0889,-3.0889,-3.0889,-3.0889,-3.0889,-3.0889,-3.0889,-3.0889,-3.0889,-3.0889,-3.0889,-3.0889,-3.0889,-3.0889,-3.0889,-3.0889,-3.0889,-3.0889,-3.0889,-3.0147,-2.8417,-2.8417,-2.6849,-2.3574,-2.3574,-2.2709,-2.1109,-2.1109,-2.1109,-2.5742,-2.5742,0.0,-2.5742,-2.5742,0.0,-2.5742,0.0,0.0,0.0,0.0,0.0,0.0,0.0,0.0,0.0,0.0,0.0,0.0,-2.5742,0.0,0.0,0.0,0.0,0.0,0.0,-2.4815,-2.4412,-2.4815,-2.5226,0.0,0.0,-2.5742,-2.5742,-2.6006,-2.6357,-2.6787,-2.7217,-2.7646,-2.8066,-2.8223,-2.8291,-2.8291,-2.8291,-2.8291,-2.8291,-2.8291,-2.8291,-2.8291,-2.8291,-2.8291,-2.8291,-2.8291,-2.8291,-2.8291,-2.8291,-2.8291,-2.8291,-2.8291,-2.8291,-2.8291,-2.8291,-2.8291,-2.8291,-2.8291,-2.8291,-2.832,-2.8476,-2.8408,-2.833,-2.8476,-2.8408,-2.8359,-2.8633,-2.8701,-2.8818,-2.9248,-2.9551,-2.9834,-3.0137,-3.0439,-3.0693,-3.0859,-3.0889,-3.0889,-3.0889,-3.0889,-3.0889,-3.0889,-3.0889,-3.0889,-3.0889,-3.0889,-3.0889,-3.0889,-3.0889,-3.0889,-3.0889,-3.0889,-3.0889,-3.0889,-3.0889,-3.0071,-2.8219,-2.7741,-2.6169,-2.3402,-2.2901,-2.2223,-2.1109,-2.1109,-2.1109]},{"header":{"parameterUnit":"m.s-1","parameterCategory":1,"la1":30.6,"la2":29.2853,"lo1":-89.7004,"lo2":-87.6739,"dy":0.0162,"dx":0.0183,"nx":112,"ny":82,"refTime":"2023-06-07T06:00:00:Z","depth":0,"parameterNumber":3,"parameterNumberName":"V-component_of_WINDS"},"data":[0.0,0.0,0.0,0.0,0.0,0.0,0.0,0.0,0.0,0.0,0.0,0.0,0.0,0.0,0.0,0.0,0.0,0.0,0.0,0.0,0.0,0.0,0.0,0.0,0.0,0.0,0.0,0.0,0.0,0.0,0.0,0.0,0.0,0.0,0.0,0.0,0.0,0.0,0.0,0.0,0.0,0.0,0.0,0.0,0.0,0.0,0.0,0.0,0.0,0.0,0.0,0.0,0.0,0.0,0.0,0.0,0.0,0.0,0.0,0.0,0.0,0.0,0.0,0.0,0.0,0.0,0.0,0.0,0.0,0.0,0.0,0.0,0.0,0.0,0.0,0.0,0.0,0.0,0.0,0.0,0.0,0.0,0.0,0.0,0.0,0.0,0.0,0.0,0.0,0.0,-4.2899,-4.2927,-4.3258,-4.3497,-4.3497,-4.3497,-4.3497,-4.3497,0.0,0.0,0.0,0.0,0.0,0.0,0.0,0.0,0.0,0.0,0.0,0.0,0.0,0.0,0.0,0.0,0.0,0.0,0.0,0.0,0.0,0.0,0.0,0.0,0.0,0.0,0.0,0.0,0.0,0.0,0.0,0.0,0.0,0.0,0.0,0.0,0.0,0.0,0.0,0.0,0.0,0.0,0.0,0.0,0.0,0.0,0.0,0.0,0.0,0.0,0.0,0.0,0.0,0.0,0.0,0.0,0.0,0.0,0.0,0.0,0.0,0.0,0.0,0.0,0.0,0.0,0.0,0.0,0.0,0.0,0.0,0.0,0.0,0.0,0.0,0.0,0.0,0.0,0.0,0.0,0.0,0.0,0.0,0.0,0.0,0.0,0.0,0.0,0.0,0.0,0.0,0.0,0.0,0.0,0.0,0.0,0.0,0.0,0.0,0.0,0.0,0.0,0.0,0.0,-4.3269,-4.3373,-4.344,-4.3497,-4.3497,-4.3497,-4.3497,-4.3497,0.0,0.0,0.0,0.0,0.0,0.0,0.0,0.0,0.0,0.0,0.0,0.0,0.0,0.0,0.0,0.0,0.0,0.0,0.0,0.0,0.0,0.0,0.0,0.0,0.0,0.0,0.0,0.0,0.0,0.0,0.0,0.0,0.0,0.0,0.0,0.0,0.0,0.0,0.0,0.0,0.0,0.0,0.0,0.0,0.0,0.0,0.0,0.0,0.0,0.0,0.0,0.0,0.0,0.0,0.0,0.0,0.0,0.0,0.0,0.0,0.0,0.0,0.0,0.0,0.0,0.0,0.0,0.0,0.0,0.0,0.0,0.0,0.0,0.0,0.0,0.0,0.0,0.0,0.0,0.0,0.0,0.0,0.0,0.0,0.0,0.0,0.0,0.0,0.0,0.0,0.0,0.0,0.0,0.0,0.0,0.0,0.0,0.0,0.0,0.0,0.0,0.0,0.0,-4.3428,-4.3618,-4.3493,-4.3497,-4.3497,-4.3497,-4.3497,-4.3497,-4.3497,-4.3497,0.0,0.0,0.0,0.0,0.0,0.0,0.0,0.0,0.0,0.0,0.0,0.0,0.0,0.0,0.0,0.0,0.0,0.0,0.0,0.0,0.0,0.0,0.0,0.0,0.0,0.0,0.0,0.0,0.0,0.0,0.0,0.0,0.0,0.0,0.0,0.0,0.0,0.0,0.0,0.0,0.0,0.0,0.0,0.0,0.0,0.0,0.0,0.0,0.0,0.0,0.0,0.0,0.0,0.0,0.0,0.0,0.0,0.0,0.0,0.0,0.0,0.0,0.0,0.0,0.0,0.0,0.0,0.0,0.0,0.0,0.0,0.0,0.0,0.0,0.0,0.0,0.0,0.0,0.0,0.0,0.0,0.0,0.0,0.0,0.0,0.0,0.0,0.0,0.0,0.0,0.0,0.0,0.0,0.0,0.0,0.0,0.0,0.0,0.0,0.0,0.0,0.0,-4.3772,-4.3772,-4.3513,-4.3497,-4.3497,-4.3497,-4.3497,-4.3497,-4.3497,-4.3497,0.0,0.0,0.0,0.0,0.0,0.0,0.0,0.0,0.0,0.0,0.0,0.0,0.0,0.0,0.0,0.0,0.0,0.0,0.0,0.0,0.0,0.0,0.0,0.0,0.0,0.0,0.0,0.0,0.0,0.0,0.0,0.0,0.0,0.0,0.0,0.0,0.0,0.0,0.0,0.0,0.0,0.0,0.0,0.0,0.0,0.0,0.0,0.0,0.0,0.0,0.0,0.0,0.0,0.0,0.0,0.0,0.0,0.0,0.0,0.0,0.0,0.0,0.0,0.0,0.0,0.0,0.0,0.0,0.0,0.0,0.0,0.0,0.0,0.0,0.0,0.0,0.0,0.0,0.0,0.0,0.0,0.0,0.0,0.0,0.0,0.0,0.0,0.0,0.0,0.0,0.0,0.0,0.0,0.0,0.0,0.0,0.0,0.0,0.0,0.0,0.0,0.0,-4.3726,-4.3513,-4.3479,-4.3497,-4.3497,-4.3497,-4.3497,-4.3497,-4.3497,-4.3497,0.0,0.0,0.0,0.0,0.0,0.0,0.0,0.0,0.0,0.0,0.0,0.0,0.0,0.0,0.0,0.0,0.0,0.0,0.0,0.0,0.0,0.0,0.0,0.0,0.0,0.0,0.0,0.0,0.0,0.0,0.0,0.0,0.0,0.0,0.0,0.0,0.0,0.0,0.0,0.0,0.0,0.0,0.0,0.0,0.0,0.0,0.0,0.0,0.0,0.0,0.0,0.0,0.0,0.0,0.0,0.0,0.0,0.0,0.0,0.0,0.0,0.0,0.0,0.0,0.0,0.0,0.0,0.0,0.0,0.0,0.0,0.0,0.0,0.0,0.0,0.0,0.0,0.0,0.0,0.0,0.0,0.0,0.0,0.0,0.0,0.0,0.0,0.0,0.0,0.0,0.0,0.0,0.0,0.0,0.0,0.0,0.0,0.0,0.0,0.0,0.0,0.0,-4.374,-4.3726,0.0,-4.3497,-4.3497,-4.3497,-4.3497,-4.3497,-4.3497,0.0,0.0,0.0,0.0,0.0,0.0,0.0,0.0,0.0,0.0,0.0,0.0,0.0,0.0,0.0,0.0,0.0,0.0,0.0,0.0,0.0,0.0,0.0,0.0,0.0,0.0,0.0,0.0,0.0,0.0,0.0,0.0,0.0,0.0,0.0,0.0,0.0,0.0,0.0,0.0,0.0,0.0,0.0,0.0,0.0,0.0,0.0,0.0,0.0,0.0,0.0,0.0,0.0,0.0,0.0,0.0,0.0,0.0,0.0,0.0,0.0,0.0,0.0,0.0,0.0,0.0,0.0,0.0,0.0,0.0,0.0,0.0,0.0,0.0,0.0,0.0,0.0,0.0,0.0,0.0,0.0,0.0,0.0,0.0,0.0,0.0,0.0,0.0,0.0,0.0,0.0,0.0,0.0,0.0,0.0,0.0,0.0,0.0,0.0,0.0,0.0,0.0,-4.3582,-4.3693,-4.374,0.0,-4.3497,-4.3497,-4.3497,-4.3497,-4.3497,-4.3497,0.0,0.0,0.0,0.0,0.0,0.0,0.0,0.0,0.0,0.0,0.0,0.0,0.0,0.0,0.0,0.0,0.0,0.0,0.0,0.0,0.0,0.0,0.0,0.0,0.0,0.0,0.0,0.0,0.0,0.0,0.0,0.0,0.0,0.0,0.0,0.0,0.0,0.0,0.0,0.0,0.0,0.0,0.0,0.0,0.0,0.0,0.0,0.0,0.0,0.0,0.0,0.0,0.0,0.0,0.0,0.0,0.0,0.0,0.0,0.0,0.0,0.0,0.0,0.0,0.0,0.0,0.0,0.0,0.0,0.0,0.0,0.0,0.0,0.0,0.0,0.0,0.0,0.0,0.0,0.0,0.0,0.0,0.0,0.0,0.0,0.0,0.0,0.0,0.0,0.0,0.0,0.0,0.0,0.0,0.0,0.0,0.0,0.0,0.0,0.0,0.0,0.0,-4.3548,-4.3497,-4.3497,-4.3497,-4.3497,-4.3497,-4.3497,-4.3497,-4.3497,0.0,0.0,0.0,0.0,0.0,0.0,0.0,0.0,0.0,0.0,0.0,0.0,0.0,0.0,0.0,0.0,0.0,0.0,0.0,0.0,0.0,0.0,0.0,0.0,0.0,0.0,0.0,0.0,0.0,0.0,0.0,0.0,0.0,0.0,0.0,0.0,0.0,0.0,0.0,0.0,0.0,0.0,0.0,0.0,0.0,0.0,0.0,0.0,0.0,0.0,0.0,0.0,0.0,0.0,0.0,0.0,0.0,0.0,0.0,0.0,0.0,0.0,0.0,0.0,0.0,0.0,0.0,0.0,0.0,0.0,0.0,0.0,0.0,0.0,0.0,0.0,0.0,0.0,0.0,0.0,0.0,0.0,0.0,0.0,0.0,0.0,0.0,0.0,0.0,0.0,0.0,0.0,0.0,0.0,0.0,0.0,0.0,0.0,0.0,0.0,0.0,0.0,0.0,-4.3513,-4.3497,-4.3497,-4.3497,-4.3497,-4.3497,-4.3497,-4.3497,-4.3497,-4.3497,0.0,0.0,0.0,0.0,0.0,0.0,0.0,0.0,0.0,0.0,0.0,0.0,0.0,0.0,0.0,0.0,0.0,0.0,0.0,0.0,0.0,0.0,0.0,0.0,0.0,0.0,0.0,0.0,0.0,0.0,0.0,0.0,0.0,0.0,0.0,0.0,0.0,0.0,0.0,0.0,0.0,0.0,0.0,0.0,0.0,0.0,0.0,0.0,0.0,0.0,0.0,0.0,0.0,0.0,0.0,0.0,0.0,0.0,0.0,0.0,0.0,0.0,0.0,0.0,0.0,0.0,0.0,0.0,0.0,0.0,0.0,0.0,0.0,0.0,0.0,0.0,0.0,0.0,0.0,0.0,0.0,0.0,0.0,0.0,0.0,0.0,0.0,0.0,0.0,0.0,0.0,0.0,0.0,0.0,0.0,0.0,0.0,0.0,0.0,0.0,0.0,0.0,-4.3497,-4.3497,-4.341,-4.3214,-4.3178,-4.3087,-4.2847,-4.3032,-4.3178,-4.3178,0.0,0.0,0.0,0.0,0.0,0.0,0.0,0.0,0.0,0.0,0.0,0.0,0.0,0.0,0.0,0.0,0.0,0.0,0.0,0.0,0.0,0.0,0.0,0.0,0.0,0.0,0.0,0.0,0.0,0.0,0.0,0.0,0.0,0.0,0.0,0.0,0.0,0.0,0.0,0.0,0.0,0.0,0.0,0.0,0.0,0.0,0.0,0.0,0.0,0.0,0.0,0.0,0.0,0.0,0.0,0.0,0.0,0.0,0.0,0.0,0.0,0.0,0.0,0.0,0.0,0.0,0.0,0.0,0.0,0.0,0.0,0.0,0.0,0.0,0.0,0.0,0.0,0.0,0.0,0.0,0.0,0.0,0.0,0.0,0.0,0.0,0.0,0.0,0.0,0.0,0.0,0.0,0.0,0.0,0.0,0.0,0.0,0.0,0.0,0.0,0.0,0.0,-4.3497,-4.3497,-4.3321,-4.2826,-4.277,-4.2519,-4.1937,-4.24,-4.2673,-4.2616,0.0,0.0,0.0,0.0,0.0,0.0,0.0,0.0,0.0,0.0,0.0,0.0,0.0,0.0,0.0,0.0,0.0,0.0,0.0,0.0,0.0,0.0,0.0,0.0,0.0,0.0,0.0,0.0,0.0,0.0,0.0,0.0,0.0,0.0,0.0,0.0,0.0,0.0,0.0,0.0,0.0,0.0,0.0,0.0,0.0,0.0,0.0,0.0,0.0,0.0,0.0,0.0,0.0,0.0,0.0,0.0,0.0,0.0,0.0,0.0,-4.4167,0.0,0.0,0.0,0.0,0.0,0.0,0.0,0.0,0.0,0.0,0.0,0.0,0.0,0.0,0.0,0.0,0.0,0.0,0.0,0.0,0.0,0.0,0.0,0.0,0.0,0.0,0.0,0.0,0.0,0.0,0.0,0.0,0.0,0.0,0.0,0.0,0.0,0.0,0.0,0.0,0.0,-4.3497,-4.3497,-4.3444,-4.3339,-4.3339,-4.3087,-4.2559,-4.2616,-4.248,-4.2021,-4.2103,0.0,0.0,0.0,0.0,0.0,0.0,0.0,0.0,0.0,0.0,0.0,0.0,0.0,0.0,0.0,0.0,0.0,0.0,0.0,0.0,0.0,0.0,0.0,0.0,0.0,0.0,0.0,0.0,0.0,0.0,0.0,0.0,0.0,0.0,0.0,0.0,0.0,0.0,0.0,0.0,0.0,0.0,0.0,0.0,0.0,0.0,0.0,0.0,0.0,0.0,0.0,0.0,0.0,0.0,0.0,0.0,0.0,0.0,0.0,0.0,-4.368,0.0,0.0,0.0,0.0,0.0,0.0,0.0,0.0,0.0,0.0,0.0,0.0,0.0,0.0,0.0,0.0,0.0,0.0,0.0,0.0,0.0,0.0,0.0,0.0,0.0,0.0,0.0,0.0,0.0,0.0,0.0,0.0,0.0,0.0,0.0,0.0,0.0,0.0,0.0,0.0,-4.3497,-4.3497,-4.3286,-4.2734,-4.2678,-4.2364,-4.1525,-4.1955,-4.2121,-4.181,-4.208,0.0,0.0,0.0,0.0,0.0,0.0,0.0,0.0,0.0,0.0,0.0,0.0,0.0,0.0,0.0,0.0,0.0,0.0,0.0,0.0,0.0,0.0,0.0,0.0,0.0,0.0,0.0,0.0,0.0,0.0,0.0,0.0,0.0,0.0,0.0,0.0,0.0,0.0,0.0,0.0,0.0,0.0,0.0,0.0,0.0,0.0,0.0,0.0,0.0,0.0,0.0,0.0,0.0,-4.4009,-4.3781,-4.3749,-4.2941,-4.248,-4.24,-4.24,-4.244,-4.2519,-4.2519,0.0,0.0,0.0,0.0,0.0,0.0,0.0,0.0,0.0,0.0,0.0,0.0,0.0,0.0,0.0,0.0,0.0,0.0,0.0,0.0,0.0,0.0,0.0,0.0,-4.2884,-4.3196,-4.3196,0.0,0.0,0.0,0.0,0.0,0.0,0.0,0.0,0.0,0.0,0.0,-4.3232,-4.3196,-4.2847,-4.1877,-4.181,-4.1375,-4.0336,-4.1105,-4.1578,-4.1508,-4.1955,-4.236,0.0,0.0,0.0,0.0,0.0,0.0,0.0,0.0,0.0,0.0,0.0,0.0,0.0,0.0,0.0,0.0,0.0,0.0,0.0,0.0,0.0,0.0,0.0,0.0,0.0,0.0,0.0,0.0,0.0,0.0,0.0,0.0,-4.5323,-4.5782,0.0,0.0,0.0,0.0,0.0,0.0,0.0,0.0,0.0,0.0,0.0,0.0,0.0,-4.4631,-4.458,-4.4261,-4.4058,-4.4058,-4.3265,-4.2865,-4.2865,-4.2185,-4.1639,-4.1248,-4.115,0.0,-4.1937,-4.1937,0.0,0.0,0.0,0.0,0.0,0.0,0.0,0.0,0.0,0.0,0.0,0.0,0.0,0.0,0.0,0.0,0.0,0.0,0.0,0.0,0.0,0.0,-4.2021,-4.1937,-4.1979,-4.2003,0.0,-4.2422,-4.2826,-4.2826,-4.2382,0.0,0.0,0.0,0.0,0.0,0.0,0.0,-4.2103,-4.2003,-4.1979,-4.181,-4.181,-4.1534,-4.0874,-4.0949,-4.0827,-4.0336,-4.0385,-4.0908,-4.1895,-4.1937,0.0,0.0,0.0,0.0,0.0,0.0,0.0,0.0,0.0,0.0,0.0,0.0,0.0,0.0,0.0,0.0,0.0,0.0,0.0,0.0,0.0,0.0,0.0,0.0,0.0,0.0,0.0,0.0,0.0,-4.53,-4.5723,-4.5974,-4.6015,-4.5977,0.0,0.0,0.0,0.0,0.0,0.0,0.0,0.0,0.0,-4.4261,-4.4261,-4.4165,-4.3974,-4.3804,-4.3575,-4.3246,-4.2865,-4.2519,-4.2162,-4.1578,-4.1196,-4.0938,-4.0577,-4.0594,-4.0861,-4.1178,-4.149,-4.181,0.0,0.0,0.0,0.0,-4.2324,-4.2562,-4.2562,-4.2185,0.0,-4.2062,0.0,0.0,0.0,0.0,0.0,0.0,0.0,0.0,0.0,0.0,-4.1707,-4.1358,-4.1534,-4.181,-4.181,-4.175,-4.181,0.0,-4.1979,-4.1895,-4.2162,0.0,0.0,0.0,0.0,-4.2121,-4.1835,-4.181,-4.1664,-4.1313,-4.1296,-4.1059,-4.0497,-4.075,-4.078,-4.0577,-4.0528,-4.0797,-4.1268,-4.1296,-4.169,0.0,0.0,0.0,0.0,0.0,0.0,0.0,0.0,0.0,0.0,0.0,0.0,0.0,0.0,0.0,0.0,0.0,0.0,0.0,0.0,0.0,0.0,0.0,0.0,0.0,0.0,0.0,0.0,-4.5731,-4.5943,-4.6132,-4.6099,-4.6013,0.0,0.0,0.0,0.0,0.0,0.0,-4.4988,-4.4877,-4.4535,-4.3912,-4.3881,-4.374,-4.3479,-4.3356,-4.3087,-4.2711,-4.24,-4.1979,-4.1534,-4.0967,-4.0703,-4.0655,-4.0286,-4.007,-4.0121,-4.0528,-4.0967,-4.1375,-4.1375,-4.1464,-4.1578,-4.1578,-4.1664,-4.181,-4.181,-4.1402,-4.0995,-4.1446,-4.1268,-4.0995,-4.1446,0.0,0.0,0.0,0.0,-4.149,-4.1041,-4.1133,-4.1241,-4.078,-4.1059,-4.1375,-4.1375,-4.1013,-4.0874,0.0,-4.1464,-4.142,-4.1534,0.0,0.0,0.0,0.0,-4.1534,-4.1375,-4.1375,-4.1196,-4.0733,-4.0703,-4.0528,-4.0121,-4.0449,-4.0703,-4.0703,-4.0703,-4.0733,-4.0903,-4.0903,-4.1161,-4.181,0.0,0.0,0.0,0.0,0.0,0.0,0.0,0.0,0.0,0.0,0.0,0.0,0.0,0.0,0.0,0.0,0.0,0.0,0.0,0.0,0.0,0.0,0.0,0.0,0.0,0.0,0.0,0.0,0.0,-4.6265,-4.6069,0.0,0.0,0.0,0.0,-4.5605,-4.5302,-4.4966,-4.4631,-4.4261,-4.3881,-4.3548,-4.3513,-4.3513,-4.3497,-4.2976,-4.275,-4.2711,-4.1534,-4.0995,-4.0949,-4.0368,-4.0121,-4.0121,-4.0121,-4.007,-4.007,-4.0121,-4.0171,-4.0171,-4.0171,-4.0497,-4.0949,-4.0949,-4.1313,-4.181,-4.181,-4.1402,-4.0903,-4.0949,-4.0903,-4.0903,-4.0949,-4.1358,0.0,0.0,-4.1402,-4.0949,-4.0903,-4.0528,-4.0171,-4.0171,-4.0171,-4.0171,-4.0171,-4.0171,-4.0286,0.0,-4.0528,-4.0336,-4.0874,0.0,-4.0949,-4.0949,-4.0949,-4.0733,-4.0254,-4.0171,-4.0154,-4.0171,-4.0121,-4.0121,-4.0121,-4.0121,-4.0121,-4.0121,-4.0121,-4.0368,-4.0856,-4.0903,-4.1161,-4.181,-4.1853,0.0,0.0,0.0,0.0,0.0,0.0,0.0,0.0,0.0,0.0,0.0,0.0,0.0,0.0,0.0,0.0,0.0,0.0,0.0,0.0,0.0,0.0,0.0,0.0,0.0,0.0,0.0,0.0,-4.6161,-4.6018,0.0,-4.5838,-4.5803,-4.5647,-4.5302,-4.518,-4.483,-4.4233,-4.4058,-4.409,-4.425,-4.4268,-4.4345,-4.4465,-4.4654,-4.4367,-4.3618,-4.3147,-4.28,-4.241,-4.1767,-4.1508,-4.1508,-4.1508,-4.1508,-4.1508,-4.1508,-4.095,-4.007,-4.007,-4.0204,-4.0368,-4.0368,-4.0497,-4.0689,-4.0689,-4.0546,-4.0368,-4.0368,-4.0368,-4.0368,-4.0368,-4.0563,-4.0689,-4.0689,-4.0546,-4.0368,-4.0368,-4.0254,-4.007,-4.007,-4.007,-4.007,-4.007,-4.007,-4.0171,-4.0319,-4.0254,-4.0171,-4.0368,-4.0368,-4.0368,-4.0368,-4.0368,-4.0336,-4.0121,-4.007,-4.007,-4.007,-4.007,-4.007,-4.007,-4.007,-4.007,-4.007,-4.007,-4.0221,-4.0368,-4.0368,-4.0672,-4.1223,-4.1223,-4.1707,0.0,0.0,0.0,0.0,0.0,0.0,0.0,0.0,0.0,0.0,0.0,0.0,0.0,0.0,0.0,0.0,0.0,0.0,0.0,0.0,0.0,0.0,0.0,0.0,0.0,0.0,-4.5936,-4.6015,-4.5896,-4.5796,-4.5794,-4.5667,-4.5438,-4.5118,-4.5119,-4.4904,-4.4438,-4.4549,-4.4779,-4.5094,-4.5112,-4.515,-4.5319,-4.551,-4.5102,-4.4112,-4.3902,-4.3545,-4.2961,-4.2481,-4.2286,-4.2286,-4.2286,-4.2286,-4.2286,-4.2286,-4.1711,-4.0815,-4.0815,-4.0815,-4.0815,-4.0815,-4.0815,-4.0798,-4.0544,-4.046,-4.0409,-4.0155,-4.007,-4.007,-4.007,-4.007,-4.0121,-4.0392,-4.046,-4.051,-4.0764,-4.0815,-4.0815,-4.0815,-4.0815,-4.0815,-4.0815,-4.0815,-4.0747,-4.051,-4.0257,-4.007,-4.007,-4.007,-4.007,-4.007,-4.007,-4.007,-4.007,-4.007,-4.007,-4.007,-4.007,-4.007,-4.007,-4.007,-4.007,-4.007,-4.007,-4.007,-4.007,-4.007,-4.0368,-4.0903,-4.1313,-4.181,-4.2382,0.0,0.0,0.0,0.0,0.0,0.0,0.0,0.0,0.0,0.0,0.0,0.0,0.0,0.0,0.0,0.0,0.0,0.0,0.0,0.0,0.0,0.0,0.0,-4.5935,-4.5908,-4.5886,-4.5905,-4.5719,-4.5663,-4.5797,-4.5398,-4.5154,-4.5151,-4.519,-4.5214,-4.5214,-4.5653,-4.592,-4.5975,-4.5975,-4.5993,-4.6012,-4.5521,-4.4899,-4.4253,-4.3703,-4.3098,-4.2475,-4.2422,-4.2422,-4.2422,-4.2422,-4.2422,-4.2422,-4.2422,-4.2422,-4.2422,-4.2337,-4.2286,-4.2286,-4.2286,-4.2286,-4.2185,-4.1474,-4.1238,-4.1119,-4.0392,-4.0155,-4.0155,-4.0155,-4.0155,-4.0307,-4.1035,-4.1238,-4.1407,-4.21,-4.2286,-4.2286,-4.2286,-4.2286,-4.2286,-4.2286,-4.2286,-4.2083,-4.1373,-4.0646,-4.0121,-4.0087,-4.007,-4.007,-4.007,-4.007,0.0,-4.007,-4.007,-4.007,-4.007,-4.007,-4.007,-4.007,-4.007,-4.007,-4.007,-4.007,-4.007,-4.007,-4.007,-4.0319,-4.0856,-4.2021,-4.2342,-4.1768,0.0,0.0,0.0,0.0,0.0,0.0,0.0,0.0,0.0,0.0,0.0,0.0,0.0,0.0,0.0,0.0,0.0,0.0,0.0,0.0,0.0,0.0,-4.6201,-4.6047,-4.5955,-4.5889,-4.5832,-4.5699,-4.5744,-4.6141,-4.6034,-4.5992,-4.6044,-4.6066,-4.596,-4.5729,-4.5827,-4.6434,-4.7609,-4.7645,-4.7983,-4.8726,-4.8537,-4.8119,-4.7493,-4.6812,-4.6374,-4.6212,-4.5745,-4.5551,-4.5551,-4.5551,-4.5551,-4.5551,-4.5551,-4.5551,-4.5348,-4.3132,-4.2286,-4.2286,-4.2286,-4.2286,-4.2252,-4.2066,-4.1999,-4.1948,-4.1745,-4.1677,-4.1677,-4.1677,-4.1677,-4.1728,-4.1931,-4.1999,-4.2033,-4.2236,-4.2286,-4.2286,-4.2286,-4.2286,-4.2286,-4.2286,-4.2286,-4.2236,-4.2033,-4.1813,-4.1339,-4.0257,-4.007,-4.007,-4.007,-4.007,0.0,-4.007,-4.007,-4.007,-4.007,-4.007,-4.007,-4.007,-4.007,-4.007,-4.007,-4.007,-4.007,-4.007,-4.007,-4.0154,-4.0336,-4.1013,-4.1331,0.0,0.0,0.0,0.0,0.0,0.0,0.0,0.0,0.0,0.0,0.0,0.0,0.0,0.0,0.0,0.0,0.0,0.0,0.0,0.0,0.0,0.0,-4.6173,-4.6169,-4.6041,-4.5951,-4.5853,-4.5738,-4.597,-4.6187,-4.6279,-4.6483,-4.6558,-4.64,-4.6876,-4.7093,-4.6911,-4.7572,-4.8379,-4.9334,-4.9352,-4.9614,-5.0216,-4.9856,-4.941,-4.8785,-4.8067,-4.7562,-4.7335,-4.6927,-4.6786,-4.6786,-4.6786,-4.6786,-4.6786,-4.6786,-4.6786,0.0,0.0,0.0,0.0,0.0,-4.325,-4.32,-4.2878,-4.276,-4.2709,-4.2388,-4.2286,-4.2286,-4.2286,-4.2286,-4.2354,-4.2675,-4.276,-4.2844,-4.3166,-4.325,-4.325,-4.325,-4.325,-4.325,-4.325,-4.325,-4.3149,-4.2828,-4.276,0.0,-4.1204,-4.1001,-4.1001,-4.1001,-4.1001,-4.1001,-4.1001,-4.073,-4.0544,-4.0544,-4.0257,-4.007,-4.007,-4.007,0.0,0.0,0.0,-4.007,-4.007,-4.0336,0.0,0.0,0.0,-4.1178,-4.0955,0.0,0.0,0.0,-4.248,-4.2711,0.0,0.0,0.0,0.0,0.0,0.0,0.0,0.0,0.0,0.0,0.0,0.0,0.0,0.0,0.0,0.0,-4.6111,-4.6082,-4.6055,-4.6018,-4.5969,-4.5759,-4.6509,-4.6916,-4.6557,-4.6966,-4.7135,-4.6768,-4.7887,-4.8581,-4.8581,0.0,0.0,0.0,0.0,-5.0986,-5.1077,-5.0341,-4.9726,-4.9132,-4.8329,-4.767,-4.714,-4.7098,-4.7039,-4.7039,-4.7039,-4.7039,-4.7039,-4.7039,-4.7039,-4.7022,-4.6853,-4.6397,-4.5737,-4.5077,-4.4823,-4.4739,-4.4045,0.0,0.0,-4.3014,-4.2794,-4.2777,-4.2709,-4.2675,-4.2794,-4.3386,-4.3555,-4.3707,-4.4401,-4.4587,-4.4587,-4.4587,-4.4587,-4.4587,-4.4587,-4.4587,-4.4367,-4.3673,-4.3555,-4.3335,-4.2658,-4.2405,-4.2286,-4.2286,-4.2286,-4.2286,-4.2286,-4.1728,-4.1322,-4.1322,0.0,0.0,-4.0206,-4.0206,-4.0172,-4.0087,-4.007,-4.007,-4.007,-4.0577,-4.0577,-4.0121,-4.1076,-4.1358,-4.0827,-4.1358,-4.1313,-4.0827,-4.1979,-4.248,0.0,0.0,0.0,0.0,0.0,0.0,0.0,0.0,0.0,0.0,0.0,0.0,0.0,0.0,0.0,-4.6236,-4.6169,-4.6294,-4.6882,-4.687,-4.6759,-4.6663,-4.7375,-4.7851,-4.7829,-4.8504,-4.8933,-4.8974,-4.9795,-5.0325,-5.0325,-5.0618,-5.1096,-5.1738,-5.1756,-5.2087,-5.2747,-5.1973,-5.1597,-5.1455,0.0,0.0,-4.939,-4.883,-4.8578,-4.8578,-4.8578,-4.8578,-4.8578,-4.8578,-4.8578,-4.846,-4.7259,-4.6701,-4.6566,-4.6413,-4.6363,-4.6346,-4.6194,-4.6143,-4.6109,-4.5974,-4.5923,-4.5821,-4.5213,-4.5043,0.0,-4.4485,-4.435,-4.4384,-4.4536,-4.4587,-4.4587,-4.4587,-4.4587,-4.4587,-4.4587,-4.4587,-4.4536,-4.4384,-4.435,-4.4316,-4.4164,-4.3115,-4.2286,-4.2286,-4.2286,-4.2286,-4.2286,-4.2168,-4.2083,-4.2083,-4.1948,-4.1627,-4.1035,-4.0984,-4.073,-4.0121,-4.007,-4.007,-4.007,-4.0204,-4.0204,-4.007,-4.0303,-4.0385,-4.0237,-4.0385,-4.0385,-4.0286,-4.092,-4.1268,0.0,0.0,0.0,0.0,0.0,0.0,0.0,0.0,0.0,0.0,0.0,-4.6026,0.0,0.0,-4.6222,-4.6287,-4.6505,-4.6776,-4.7144,-4.7779,-4.8029,-4.7567,-4.824,-4.887,-4.9131,-4.9703,-5.0191,-5.0472,-5.1053,-5.1389,-5.1389,-5.1793,-5.2197,-5.2601,-5.2601,-5.2803,-5.3206,-5.249,-5.2112,-5.2112,-5.1034,-5.0352,-4.9976,-4.9664,-4.9316,-4.9001,-4.9001,-4.9001,-4.9001,-4.9001,-4.9001,-4.8934,-4.8189,-4.7682,-4.731,-4.6938,-4.6786,-4.6786,-4.6786,-4.6786,-4.6786,-4.6786,-4.6786,-4.6718,-4.6363,-4.6244,-4.616,-4.5788,-4.5686,-4.5686,-4.5686,-4.5415,-4.5145,-4.5145,-4.4857,-4.4587,-4.4587,-4.4587,-4.4587,-4.4587,-4.4587,-4.4587,-4.4587,-4.3944,-4.3436,-4.3436,-4.3436,-4.3436,-4.3436,-4.3098,-4.2861,-4.2861,-4.2523,-4.2151,-4.1779,-4.1745,-4.1441,-4.0696,-4.0646,-4.046,-4.0104,-4.007,-4.007,-4.007,-4.007,-4.007,-4.007,-4.007,-4.007,-4.0138,-4.0368,-4.0655,0.0,0.0,0.0,0.0,0.0,0.0,0.0,0.0,-4.5949,-4.5967,-4.6064,-4.6129,-4.6129,-4.6235,-4.6346,-4.6498,-4.6897,-4.7299,-4.7622,-4.8664,-4.926,-4.8875,-4.9471,-5.0083,-5.0541,-5.095,-5.1318,-5.1612,-5.2022,-5.2234,-5.2234,-5.2858,-5.3206,-5.3206,-5.3353,-5.3445,-5.3445,-5.2981,-5.2788,-5.2788,-5.1958,-5.1209,-5.0619,-5.0368,-4.9864,-4.9204,-4.9069,-4.9001,-4.9001,-4.9001,-4.9001,-4.9001,-4.9001,-4.8646,-4.8054,-4.7445,-4.7225,-4.7225,-4.7225,-4.7225,-4.7225,-4.7225,-4.7225,-4.7192,-4.7056,-4.7005,-4.6972,-4.6836,-4.6786,-4.6786,-4.6786,-4.6363,-4.5923,-4.5923,-4.5449,-4.4976,-4.4823,-4.479,-4.4756,-4.4604,-4.4587,-4.4587,-4.4587,-4.4587,-4.4587,-4.4587,-4.4587,-4.4587,-4.4587,-4.4028,-4.3639,-4.3639,-4.3098,-4.2675,-4.2523,-4.2371,-4.2049,-4.1457,-4.1407,-4.1153,-4.0527,-4.051,-4.0443,-4.0307,-4.029,-4.029,-4.029,-4.029,-4.0375,-4.051,-4.051,-4.0608,-4.5586,-4.5699,-4.5834,-4.6026,-4.6003,-4.5967,0.0,0.0,-4.6112,-4.6228,-4.6264,-4.628,-4.628,-4.6287,-4.6511,-4.7171,-4.7236,-4.7707,-4.9124,-4.9356,-4.9913,-5.1318,-5.1568,-5.1811,-5.2259,-5.2684,-5.2803,-5.2507,-5.2853,-5.3078,-5.3078,-5.317,-5.3206,-5.3206,-5.3904,-5.4271,-5.4271,-5.4906,-5.521,-5.5192,-5.3788,-5.3085,-5.2976,-5.1674,-5.0655,-4.9932,-4.9289,-4.9001,-4.9001,-4.9001,-4.9001,-4.9001,-4.9001,-4.8951,-4.8883,-4.8781,-4.8748,-4.8748,-4.8748,-4.8748,-4.8748,-4.8748,-4.8748,-4.8629,-4.7986,-4.78,-4.7648,-4.6972,-4.6786,-4.6786,-4.6786,-4.6735,-4.6667,-4.6667,-4.6599,-4.6363,-4.572,-4.5585,-4.5382,-4.4705,-4.4587,-4.4587,-4.4587,-4.4587,-4.4587,-4.4587,-4.4587,-4.4587,-4.4587,-4.4502,-4.4451,-4.4451,-4.4367,-4.4045,-4.3352,-4.2675,-4.2252,-4.2168,-4.2168,-4.2134,-4.2049,-4.2033,-4.1745,-4.1085,-4.1085,-4.1085,-4.1085,-4.1085,-4.1407,-4.2033,-4.2033,-4.1374,-4.5738,-4.5819,-4.5922,0.0,-4.6162,-4.615,-4.6268,-4.6257,-4.6228,-4.6286,-4.6308,-4.6308,-4.6308,-4.6719,-4.7127,0.0,-4.8135,-4.8916,-4.951,-5.0317,-5.1298,-5.251,-5.3106,-5.3385,-5.3302,-5.3242,-5.3236,-5.3292,-5.3219,-5.3206,-5.3206,-5.3647,-5.3904,-5.3904,-5.4675,-5.5097,-5.5097,-5.5427,-5.5592,-5.5592,-5.4562,-5.3814,-5.335,-5.232,-5.1185,-5.0067,-4.9763,-4.9407,-4.9001,-4.9001,-4.9001,-4.9001,-4.9001,-4.9001,-4.9001,-4.9001,-4.9001,-4.9001,-4.9001,-4.9001,-4.9001,-4.9001,-4.9001,-4.8951,-4.8646,-4.8545,-4.8494,-4.8173,-4.8088,-4.8088,-4.8088,-4.7767,-4.7445,-4.7445,-4.7107,-4.6718,-4.6413,-4.6007,-4.5618,-4.5297,-4.4874,-4.4587,-4.4587,-4.4587,-4.4587,-4.4587,-4.4587,-4.4587,-4.4587,-4.4587,-4.4587,-4.4587,-4.4587,-4.4451,-4.413,-4.3809,-4.3436,-4.298,-4.2946,-4.2743,-4.2303,-4.2286,-4.2151,-4.1847,-4.183,-4.183,-4.183,-4.183,-4.1999,-4.2286,-4.2286,-4.1948,-4.5853,-4.5893,-4.5955,-4.6225,-4.6308,-4.6308,-4.6308,-4.6308,-4.6308,-4.6308,-4.6484,-4.666,-4.666,-4.7363,-4.7978,-4.8048,-4.9046,-4.9817,-4.9894,-5.1048,-5.2222,-5.3106,-5.387,-5.4226,-5.4001,-5.3732,-5.363,-5.3795,-5.3422,-5.3316,-5.3537,-5.4087,-5.4491,-5.4711,-5.55,-5.5923,-5.5923,-5.6143,-5.6253,-5.6253,-5.5511,-5.4858,-5.4331,-5.3172,-5.1949,-5.0676,-5.027,-4.9796,-4.9289,-4.9086,-4.9001,-4.9001,-4.9001,-4.9001,-4.9001,-4.9001,-4.9001,-4.9001,-4.9001,-4.9001,-4.9001,-4.9001,-4.9001,-4.9001,-4.9001,-4.9001,-4.9001,-4.9001,-4.9001,-4.9001,-4.9001,-4.8612,-4.8223,-4.8223,-4.78,-4.7344,-4.7141,-4.6684,-4.6261,-4.6041,-4.5399,-4.4891,-4.4891,-4.4722,-4.4587,-4.4587,-4.4587,-4.4587,-4.4587,-4.4587,-4.4587,-4.4587,-4.4587,-4.4587,-4.4587,-4.4587,-4.4333,-4.3775,-4.3741,-4.3487,-4.2946,-4.2912,-4.2828,-4.2608,-4.2591,-4.2591,-4.2591,-4.2591,-4.2709,-4.2912,-4.2912,-4.2912,-4.5853,-4.5893,-4.5955,-4.6225,-4.6308,-4.6308,-4.6308,-4.6308,-4.6308,-4.6308,-4.6973,-4.7558,-4.7558,-4.8262,-4.9051,-4.9634,-4.9784,-4.999,-5.0567,-5.1375,-5.2222,-5.3106,-5.357,-5.4001,0.0,-5.4465,-5.427,-5.3832,-5.3422,-5.3555,-5.4326,-5.4399,-5.4748,-5.5537,-5.6345,-5.6767,-5.6767,-5.7538,-5.7923,-5.7923,-5.7162,-5.684,-5.6701,-5.4454,-5.3015,-5.2147,-5.071,-5.0084,-4.9999,-4.9289,-4.9001,-4.9001,-4.9001,-4.9001,-4.9001,-4.9001,-4.9001,-4.9001,-4.9001,-4.9001,-4.9001,-4.9001,-4.9001,-4.9001,-4.9001,-4.9001,-4.9001,-4.9001,-4.9001,-4.9001,-4.9001,-4.8984,-4.8968,-4.8968,-4.8951,-4.8748,-4.8037,-4.7868,-4.7631,-4.6904,-4.6177,-4.5669,-4.5669,-4.506,-4.4587,-4.4587,-4.4587,-4.4587,-4.4587,-4.4587,-4.4587,-4.4587,-4.4587,-4.4587,-4.4587,-4.4587,-4.457,-4.4553,-4.4536,-4.4536,-4.4502,-4.4502,-4.4147,-4.3403,-4.3386,-4.3386,-4.3386,-4.3386,-4.3775,-4.4502,-4.4502,-4.4502,-4.5873,-4.5954,-4.6092,-4.6256,-4.6308,-4.6308,-4.6308,-4.6308,-4.6465,-4.7031,-4.7402,-4.7773,-4.8359,-4.918,-4.9775,-4.9798,-5.0283,-5.0856,-5.1414,-5.2241,-5.3087,-5.3953,-5.4412,0.0,0.0,0.0,0.0,-5.3404,-5.375,-5.4106,-5.4399,-5.5409,-5.6124,-5.64,-5.7171,-5.7593,-5.7593,-5.785,-5.7997,-5.7997,-5.7234,-5.6385,-5.5338,-5.4557,-5.353,-5.2266,-5.1775,-5.0997,-5.0067,-4.9813,-4.9441,-4.9001,-4.9001,-4.9001,-4.9001,-4.9001,-4.9001,-4.9001,-4.9001,-4.9001,-4.9001,-4.9001,-4.9001,-4.9001,-4.9001,-4.9001,-4.9001,-4.9001,-4.9001,-4.9001,-4.9001,-4.9001,-4.9001,-4.9001,-4.9001,-4.8934,-4.8697,-4.8257,-4.7851,-4.7597,-4.6938,-4.643,-4.643,-4.621,-4.5872,-4.5399,-4.4891,-4.4587,-4.4587,-4.4587,-4.4587,-4.4587,-4.4587,-4.4587,-4.4587,-4.4587,-4.4587,-4.4587,-4.4587,-4.4587,-4.4587,-4.4587,-4.4451,-4.4198,-4.4198,-4.4198,-4.4198,-4.4198,-4.4333,-4.4587,-4.4587,-4.4587,-4.595,-4.6026,-4.6139,-4.627,-4.6308,-4.6387,-4.6699,-4.6758,-4.7012,-4.7871,-4.8301,-4.8691,-4.9258,-5.0058,-5.0562,-5.0347,-5.0752,-5.1299,-5.1895,-5.2683,-5.353,-5.4395,-5.4853,-5.4952,0.0,0.0,0.0,-5.3248,-5.3959,-5.4528,-5.4803,-5.6088,-5.6932,-5.7226,-5.7721,-5.7997,-5.7997,-5.7997,-5.7997,-5.7997,-5.7516,-5.6668,-5.5396,-5.5396,-5.4557,-5.3096,-5.2823,-5.2064,-5.0845,-5.0304,-4.9813,-4.9373,-4.9103,-4.9001,-4.9001,-4.9001,-4.9001,-4.9001,-4.9001,-4.9001,-4.9001,-4.9001,-4.9001,-4.9001,-4.9001,-4.9001,-4.9001,-4.9001,-4.9001,-4.9001,-4.9001,-4.9001,-4.9001,-4.9001,-4.9001,-4.9001,-4.9001,-4.8646,-4.8308,-4.8308,-4.7699,-4.7192,-4.7192,-4.6972,-4.6633,-4.616,-4.5686,-4.5179,-4.4654,-4.4587,-4.4587,-4.4587,-4.4587,-4.4587,-4.4587,-4.4587,-4.4587,-4.4587,-4.4587,-4.4587,-4.4587,-4.4587,-4.4587,-4.4587,-4.4587,-4.4587,-4.4587,-4.4587,-4.4587,-4.4587,-4.4587,-4.4587,-4.6046,-4.61,-4.6143,-4.627,-4.6328,-4.6582,-4.7402,-4.7637,-4.791,-4.8789,-4.9629,-5.0215,0.0,-5.0898,-5.1348,-5.121,-5.1139,-5.1318,-5.1991,-5.2741,-5.353,0.0,0.0,0.0,0.0,0.0,0.0,-5.3248,0.0,-5.4785,-5.5556,-5.64,-5.7207,-5.7978,-5.7997,-5.7997,-5.7997,-5.7997,-5.7997,-5.7997,-5.7997,-5.7613,-5.6912,-5.6912,-5.6039,-5.4555,-5.3844,-5.3101,-5.2181,-5.0744,-5.0118,-5.0016,-4.9289,-4.9001,-4.9001,-4.9001,-4.9001,-4.9001,-4.9001,-4.9001,-4.9001,-4.9001,-4.9001,-4.9001,-4.9001,-4.9001,-4.9001,-4.9001,-4.9001,-4.9001,-4.9001,-4.9001,-4.9001,-4.9001,-4.9001,-4.9001,-4.9001,-4.9001,-4.9001,-4.9001,-4.8443,-4.797,-4.797,-4.7344,-4.6853,-4.6853,-4.6819,-4.6278,-4.4874,-4.4688,-4.4688,-4.4688,-4.4688,-4.4688,-4.4688,-4.4654,-4.4637,-4.4637,-4.4604,-4.4587,-4.4587,-4.4587,-4.4587,-4.4587,-4.4587,-4.4587,-4.4587,-4.4587,-4.4587,-4.4587,-4.4621,-4.4637,-4.6084,-4.6169,-4.6257,-4.6288,-4.6797,-4.7324,-4.7558,-4.8105,-4.8828,-4.9687,-5.0058,-5.0371,0.0,-5.1269,-5.1342,-5.1161,-5.1123,0.0,-5.1857,-5.2683,0.0,-5.4395,0.0,-5.4952,-5.4535,-5.4083,0.0,0.0,-5.4491,-5.5372,-5.5574,-5.6932,-5.7795,-5.7997,-5.7997,-5.7997,-5.7997,-5.7997,-5.7997,-5.7997,-5.7997,-5.7613,-5.6912,-5.6912,-5.6039,-5.4572,-5.4381,-5.3582,-5.2232,-5.1302,-5.0608,-5.0016,-4.9289,-4.9001,-4.9001,-4.9001,-4.9001,-4.9001,-4.9001,-4.9001,-4.9001,-4.9001,-4.9001,-4.9001,-4.9001,-4.9001,-4.9001,-4.9001,-4.9001,-4.9001,-4.9001,-4.9001,-4.9001,-4.9001,-4.9001,-4.9001,-4.9001,-4.9001,-4.9001,-4.9001,-4.8849,-4.8731,-4.8731,-4.8122,-4.7631,-4.7631,-4.7141,-4.665,-4.6278,-4.6227,-4.6227,-4.6227,-4.6227,-4.6227,-4.6227,-4.5737,-4.5415,-4.5415,-4.4891,-4.4587,-4.4587,-4.4587,-4.4587,-4.4587,-4.4587,-4.4587,-4.4587,-4.4587,-4.4587,-4.4587,-4.5162,-4.5415,-4.6158,-4.6231,-4.6387,-4.6777,-4.7246,-4.7793,-4.8574,-4.9121,-4.9707,-5.0547,-5.0723,0.0,-5.1328,-5.1406,0.0,0.0,0.0,0.0,-5.1896,-5.2702,-5.353,0.0,-5.4853,0.0,-5.4535,-5.4083,-5.3624,0.0,-5.4693,-5.5592,-5.5592,-5.7116,-5.7997,-5.7997,-5.7997,-5.7997,-5.7997,-5.7997,-5.7997,-5.7997,-5.7997,-5.7774,-5.7351,-5.7065,-5.6222,-5.5042,0.0,-5.396,-5.2773,-5.2012,-5.1251,-5.0507,-4.9763,-4.9289,-4.9001,-4.9001,-4.9001,-4.9001,-4.9001,-4.9001,-4.9001,-4.9001,-4.9001,-4.9001,-4.9001,-4.9001,-4.9001,-4.9001,-4.9001,-4.9001,-4.9001,-4.9001,-4.9001,-4.9001,-4.9001,-4.9001,-4.9001,-4.9001,-4.9001,-4.9001,-4.9001,-4.9001,-4.9001,-4.8663,-4.8392,-4.8392,-4.8037,-4.7767,-4.7767,-4.7192,-4.6786,-4.6786,-4.6786,-4.6786,-4.6786,-4.6413,-4.6177,-4.6177,-4.5788,-4.5551,-4.5551,-4.5551,-4.5551,-4.5551,-4.5551,-4.5551,-4.5551,-4.5551,-4.5551,-4.5568,-4.5991,-4.6177,-4.627,-4.6387,-4.6641,-4.7402,-4.7773,-4.834,-4.9863,-5.0273,-5.0566,-5.1269,0.0,-5.1406,-5.1406,-5.1406,-5.1359,-5.1223,0.0,-5.1299,-5.1856,-5.2664,-5.3491,-5.4241,-5.4776,-5.4952,-5.4535,-5.4083,-5.3624,-5.3248,-5.4693,-5.5592,-5.5592,-5.7116,-5.7997,-5.7997,-5.7997,-5.7997,-5.7997,-5.7997,-5.7997,-5.7997,-5.7997,-5.7997,-5.7997,-5.7351,-5.6545,-5.5649,-5.5042,0.0,-5.345,-5.2638,-5.1928,-5.1268,-5.0422,-4.9712,-4.9137,-4.9035,-4.9001,-4.9001,-4.9001,-4.9001,-4.9001,-4.9001,-4.9001,-4.9001,-4.9001,-4.9001,-4.9001,-4.9001,-4.9001,-4.9001,-4.9001,-4.9001,-4.9001,-4.9001,-4.9001,-4.9001,-4.9001,-4.9001,-4.9001,-4.9001,-4.9001,-4.9001,-4.9001,-4.9001,-4.9001,-4.9001,-4.9001,-4.9001,-4.9001,-4.7885,-4.709,-4.709,-4.709,-4.709,-4.709,-4.6989,-4.6938,-4.6938,-4.6836,-4.6786,-4.6786,-4.6786,-4.6786,-4.6786,-4.6786,-4.6786,-4.6786,-4.6786,-4.6786,-4.6786,-4.6887,-4.6938,-4.6288,-4.6836,-4.7402,-4.7558,-4.8672,-4.9824,-5.0137,-5.0703,0.0,0.0,-5.1406,-5.1406,-5.1406,-5.1406,0.0,-5.1213,0.0,0.0,0.0,0.0,-5.326,0.0,0.0,0.0,0.0,0.0,0.0,0.0,0.0,-5.5592,-5.5592,-5.7116,-5.7997,-5.7997,-5.7997,-5.7997,-5.7997,-5.7997,-5.7997,-5.7997,-5.7997,-5.7997,-5.7997,-5.7886,-5.7029,-5.5706,-5.5535,0.0,-5.345,-5.2638,-5.2232,-5.1978,-5.0625,-5.0016,-4.983,-4.9221,-4.9001,-4.9001,-4.9001,-4.9001,-4.9001,-4.9001,-4.9001,-4.9001,-4.9001,-4.9001,-4.9001,-4.9001,-4.9001,-4.9001,-4.9001,-4.9001,-4.9001,-4.9001,-4.9001,-4.9001,-4.9001,-4.9001,-4.9001,-4.9001,-4.9001,-4.9001,-4.9001,-4.9001,-4.9001,-4.9001,-4.9001,-4.9001,-4.9001,-4.8781,-4.8612,-4.8612,-4.8612,-4.8612,-4.8612,-4.8071,-4.7733,-4.7733,-4.7141,-4.6786,-4.6786,-4.6786,-4.6786,-4.6786,-4.6786,-4.6786,-4.6786,-4.6786,-4.6786,-4.6802,-4.7445,-4.7733,-4.6855,-4.7285,-4.7812,-4.873,-4.957,-5.0312,-5.0723,0.0,0.0,0.0,-5.1406,-5.1406,-5.1406,0.0,0.0,0.0,0.0,0.0,0.0,0.0,0.0,0.0,0.0,0.0,0.0,0.0,0.0,0.0,0.0,-5.5152,-5.5574,-5.7116,-5.7997,-5.7997,-5.7997,-5.7997,-5.7997,-5.7997,-5.7997,-5.7997,-5.7997,-5.7997,-5.7997,-5.7198,-5.6403,-5.5667,-5.4878,0.0,-5.3467,-5.3078,-5.2689,-5.2232,-5.1522,-5.0777,-5.005,-4.9695,-4.9323,-4.9001,-4.9001,-4.9001,-4.9001,-4.9001,-4.9001,-4.9001,-4.9001,-4.9001,-4.9001,-4.9001,-4.9001,-4.9001,-4.9001,-4.9001,-4.9001,-4.9001,-4.9001,-4.9001,-4.9001,-4.9001,-4.9001,-4.9001,-4.9001,-4.9001,-4.9001,-4.9001,-4.9001,-4.9001,-4.9001,-4.9001,-4.9001,-4.9001,-4.9001,-4.9001,-4.9001,-4.9001,-4.9001,-4.868,-4.8477,-4.8477,-4.8139,-4.7936,-4.7936,-4.7936,-4.7936,-4.7936,-4.7936,-4.7936,-4.7936,-4.7936,-4.7936,-4.7953,-4.8325,-4.8685,-4.7377,-4.7834,-4.8443,-4.9773,-5.0244,-5.056,-5.1211,-5.1367,0.0,0.0,-5.1406,-5.1386,-5.1359,0.0,0.0,0.0,0.0,0.0,0.0,0.0,0.0,0.0,0.0,0.0,0.0,0.0,0.0,0.0,0.0,0.0,-5.5794,-5.7207,-5.7997,-5.7997,-5.7997,-5.7997,-5.7997,-5.7997,-5.7997,-5.7997,-5.7997,-5.7997,-5.795,-5.6737,-5.5986,-5.5649,-5.4499,0.0,0.0,-5.3501,-5.3129,-5.2536,-5.2367,-5.1589,-5.0541,-5.0388,-4.9864,-4.9238,-4.9238,-4.9137,-4.9001,-4.9001,-4.9001,-4.9001,-4.9001,-4.9001,-4.9001,-4.9001,-4.9001,-4.9001,-4.9001,-4.9001,-4.9001,-4.9001,-4.9001,-4.9001,-4.9001,-4.9001,-4.9001,-4.9001,-4.9001,-4.9001,-4.9001,-4.9001,-4.9001,-4.9001,-4.9001,-4.9001,-4.9001,-4.9001,-4.9001,-4.9001,-4.9001,-4.9001,-4.9001,-4.9001,-4.9001,-4.9001,-4.9001,-4.9001,-4.9001,-4.9001,-4.9001,-4.9001,-4.9001,-4.9001,-4.9001,-4.9001,-4.9001,-4.9001,-4.9168,-4.9521,-4.7439,-4.8563,-4.9798,-4.9828,-5.0421,-5.1043,-5.1187,0.0,0.0,-5.1367,-5.1406,-5.1359,-5.1231,-5.1856,0.0,0.0,0.0,0.0,0.0,0.0,0.0,0.0,0.0,0.0,0.0,0.0,0.0,0.0,0.0,0.0,-5.662,-5.7519,-5.7997,-5.7997,-5.7997,-5.7997,-5.7997,-5.7997,-5.7997,-5.7997,-5.7997,-5.7997,-5.7997,-5.7867,-5.7011,-5.5706,-5.5552,0.0,0.0,-5.3501,-5.3467,-5.3315,-5.2587,-5.2215,-5.2029,-5.1352,-5.0642,-4.9982,-4.9982,-4.956,-4.9001,-4.9001,-4.9001,-4.9001,-4.9001,-4.9001,-4.9001,-4.9001,-4.9001,-4.9001,-4.9001,-4.9001,-4.9001,-4.9001,-4.9001,-4.9001,-4.9001,-4.9001,-4.9001,-4.9001,-4.9001,-4.9001,-4.9001,-4.9001,-4.9001,-4.9001,-4.9001,-4.9001,-4.9001,-4.9001,-4.9001,-4.9001,-4.9001,-4.9001,-4.9001,-4.9001,-4.9001,-4.9001,-4.9001,-4.9001,-4.9001,-4.9001,-4.9001,-4.9001,-4.9001,-4.9001,-4.9001,-4.9001,-4.9001,-4.9001,-4.9622,-4.9919,-4.7953,-4.8955,-4.999,-5.0452,-5.0848,-5.1106,-5.1139,0.0,0.0,-5.1219,-5.1603,-5.1924,-5.1878,-5.2566,-5.3147,0.0,0.0,0.0,0.0,0.0,0.0,0.0,0.0,0.0,0.0,0.0,0.0,0.0,0.0,0.0,-5.5317,-5.6583,-5.7501,-5.7978,-5.7997,-5.7997,-5.7997,-5.7997,-5.7997,-5.7997,-5.7997,-5.7997,-5.7997,-5.7565,-5.6755,-5.5649,-5.5203,0.0,0.0,-5.3501,-5.3501,-5.3467,-5.3145,-5.2739,-5.2266,-5.1978,-5.1403,-5.071,-5.0253,-4.9898,-4.9593,-4.9137,-4.9001,-4.9001,-4.9001,-4.9001,-4.9001,-4.9001,-4.9001,-4.9001,-4.9001,-4.9001,-4.9001,-4.9001,-4.9001,-4.9001,-4.9001,-4.9001,-4.9001,-4.9001,-4.9001,-4.9001,-4.9001,-4.9001,-4.9001,-4.9001,-4.9001,-4.9001,-4.9001,-4.9001,-4.9001,-4.9001,-4.9001,-4.9001,-4.9001,-4.9001,-4.9001,-4.9001,-4.9001,-4.9001,-4.9001,-4.9001,-4.9001,-4.9001,-4.9001,-4.9001,-4.9001,-4.9001,-4.9212,-4.9622,-4.9879,-5.0445,-4.8681,-4.9486,-5.026,-5.0856,-5.0991,-5.0991,0.0,0.0,0.0,-5.1393,-5.1903,-5.2369,-5.2601,-5.3335,-5.3893,0.0,0.0,0.0,0.0,0.0,0.0,0.0,0.0,0.0,0.0,0.0,0.0,0.0,0.0,0.0,-5.4399,-5.5482,-5.6455,-5.7262,-5.7281,-5.7281,-5.7281,-5.7519,-5.7648,-5.7648,-5.7886,-5.7997,-5.7997,-5.7234,-5.6438,-5.5649,-5.4922,0.0,0.0,-5.3501,-5.3501,-5.3501,-5.3501,-5.3162,-5.2655,-5.2655,-5.2181,-5.1454,-5.093,-5.0608,-5.0304,-4.956,-4.9323,-4.9289,-4.9069,-4.9001,-4.9001,-4.9001,-4.9001,-4.9001,-4.9001,-4.9001,-4.9001,-4.9001,-4.9001,-4.9001,-4.9001,-4.9001,-4.9001,-4.9001,-4.9001,-4.9001,-4.9001,-4.9001,-4.9001,-4.9001,-4.9001,-4.9001,-4.9001,-4.9001,-4.9001,-4.9001,-4.9001,-4.9001,-4.9001,-4.9001,-4.9001,-4.9001,-4.9001,-4.9001,-4.9001,-4.9001,-4.9001,-4.9001,-4.9001,-4.9001,-4.9001,-4.9001,-4.9359,-5.0033,-5.0241,-5.1068,-4.9587,-5.0337,-5.0875,-5.0741,-5.0702,-5.0741,0.0,0.0,0.0,-5.2105,-5.2298,-5.2528,-5.326,-5.4105,-5.4643,-5.4511,0.0,0.0,0.0,0.0,0.0,0.0,0.0,0.0,0.0,0.0,0.0,0.0,0.0,0.0,-5.4363,-5.4418,-5.4785,-5.5592,-5.5611,-5.5611,-5.5611,-5.6418,-5.6822,-5.6822,-5.7611,-5.7997,-5.7997,-5.7234,-5.6438,0.0,0.0,0.0,0.0,-5.3501,-5.3501,-5.3501,-5.3501,-5.3501,-5.3501,-5.3501,-5.2993,-5.2283,-5.2283,-5.1809,-5.1082,-5.0321,-5.0084,-4.9949,-4.9221,-4.9001,-4.9001,-4.9001,-4.9001,-4.9001,-4.9001,-4.9001,-4.9001,-4.9001,-4.9001,-4.9001,-4.9001,-4.9001,-4.9001,-4.9001,-4.9001,-4.9001,-4.9001,-4.9001,-4.9001,-4.9001,-4.9001,-4.9001,-4.9001,-4.9001,-4.9001,-4.9001,-4.9001,-4.9001,-4.9001,-4.9001,-4.9001,-4.9001,-4.9001,-4.9001,-4.9001,-4.9001,-4.9001,-4.9001,-4.9001,-4.9001,-4.9001,-4.9001,-4.9359,-5.0033,-5.077,-5.1825,-4.9621,-5.0202,-5.0741,-5.0702,-5.0702,-5.0702,-5.0741,0.0,0.0,-5.1836,-5.249,-5.3183,-5.401,-5.4838,-5.5376,-5.5318,-5.5293,0.0,0.0,0.0,0.0,0.0,0.0,0.0,0.0,0.0,0.0,0.0,0.0,0.0,-5.3573,-5.3592,-5.4197,-5.5556,-5.5592,-5.5592,-5.5592,-5.5849,-5.5978,-5.5978,-5.6804,-5.7189,-5.7207,-5.7536,-5.6927,0.0,0.0,0.0,0.0,-5.3501,-5.3501,-5.3501,-5.3501,-5.3501,-5.3501,-5.3501,-5.3348,-5.3044,-5.2486,-5.2147,-5.1843,-5.1099,-5.0507,-5.005,-4.9813,-4.9407,-4.9001,-4.9001,-4.9001,-4.9001,-4.9001,-4.9001,-4.9001,-4.9001,-4.9001,-4.9001,-4.9001,-4.9001,-4.9001,-4.9001,-4.9001,-4.9001,-4.9001,-4.9001,-4.9001,-4.9001,-4.9001,-4.9001,-4.9001,-4.9001,-4.9001,-4.9001,-4.9001,-4.9001,-4.9001,-4.9001,-4.9001,-4.9001,-4.9001,-4.9001,-4.9001,-4.9001,-4.9001,-4.9001,-4.9001,-4.9001,-4.9001,-4.9001,-4.9622,-5.077,-5.1444,-5.2289,0.0,-5.0394,-5.0702,-5.0702,-5.0702,0.0,0.0,0.0,0.0,-5.2222,-5.3087,-5.3953,-5.4799,-5.5231,-5.5489,-5.5489,-5.5134,0.0,0.0,0.0,0.0,0.0,0.0,0.0,0.0,0.0,0.0,0.0,0.0,0.0,-5.3206,-5.3206,-5.3665,-5.4656,-5.4693,-5.4693,-5.4693,-5.4987,-5.5133,-5.5152,-5.5959,-5.651,-5.6822,-5.705,-5.6758,0.0,0.0,0.0,0.0,-5.3618,-5.3501,-5.3501,-5.3501,-5.3501,-5.3501,-5.3501,-5.3501,-5.3433,-5.2942,-5.2756,-5.2638,-5.1877,-5.093,-5.0033,-4.9763,-4.9357,-4.9001,-4.9001,-4.9001,-4.9001,-4.9001,-4.9001,-4.9001,-4.9001,-4.9001,-4.9001,-4.9001,-4.9001,-4.9001,-4.9001,-4.9001,-4.9001,-4.9001,-4.9001,-4.9001,-4.9001,-4.9001,-4.9001,-4.9001,-4.9001,-4.9001,-4.9001,-4.9001,-4.9001,-4.9001,-4.9001,-4.9001,-4.9001,-4.9001,-4.9001,-4.9001,-4.9001,-4.9001,-4.9001,-4.9001,-4.9001,-4.9001,-4.9256,-5.009,-5.1494,-5.1904,-5.249,0.0,0.0,0.0,0.0,0.0,0.0,0.0,0.0,0.0,0.0,0.0,0.0,-5.5508,-5.5331,-5.5061,-5.5061,-5.4701,0.0,0.0,0.0,0.0,0.0,0.0,0.0,0.0,0.0,0.0,0.0,0.0,0.0,-5.3206,-5.3206,-5.3206,-5.3206,-5.3206,-5.3206,-5.3206,-5.394,-5.4308,-5.4326,-5.5115,-5.5904,-5.6593,-5.6049,-5.6118,0.0,0.0,0.0,0.0,-5.3766,-5.3501,-5.3501,-5.3501,-5.3501,-5.3501,-5.3501,-5.3501,-5.3501,-5.3501,-5.3501,-5.3365,-5.2553,-5.1336,-5.0033,-4.9306,-4.9035,-4.9001,-4.9001,-4.9001,-4.9001,-4.9001,-4.9001,-4.9001,-4.9001,-4.9001,-4.9001,-4.9001,-4.9001,-4.9001,-4.9001,-4.9001,-4.9001,-4.9001,-4.9001,-4.9001,-4.9001,-4.9001,-4.9001,-4.9001,-4.9001,-4.9001,-4.9001,-4.9001,-4.9001,-4.9001,-4.9001,-4.9001,-4.9001,-4.9001,-4.9001,-4.9001,-4.9001,-4.9001,-4.9001,-4.9001,-4.9001,-4.9001,-4.9664,-5.0699,-5.2047,-5.2065,-5.249,-5.0741,0.0,-5.0702,-5.0702,-5.0702,0.0,0.0,0.0,0.0,0.0,0.0,0.0,0.0,0.0,0.0,0.0,0.0,0.0,0.0,0.0,0.0,0.0,0.0,0.0,0.0,0.0,0.0,0.0,0.0,-5.3206,-5.3206,-5.3206,-5.3206,-5.3206,-5.3206,-5.3206,-5.3206,-5.339,-5.3482,-5.35,-5.4308,-5.4785,-5.5005,-5.6081,-5.6011,0.0,0.0,0.0,-5.3717,-5.3551,-5.3501,-5.3501,-5.3501,-5.3501,-5.3501,-5.3501,-5.3501,-5.3501,-5.3501,-5.3501,-5.3365,-5.2553,-5.1691,-5.0811,-5.0067,-4.9441,-4.9001,-4.9001,-4.9001,-4.9001,-4.9001,-4.9001,-4.9001,-4.9001,-4.9001,-4.9001,-4.9001,-4.9001,-4.9001,-4.9001,-4.9001,-4.9001,-4.9001,-4.9001,-4.9001,-4.9001,-4.9001,-4.9001,-4.9001,-4.9001,-4.9001,-4.9001,-4.9001,-4.9001,-4.9001,-4.9001,-4.9001,-4.9001,-4.9001,-4.9001,-4.9001,-4.9001,-4.9001,-4.9001,-4.9001,-4.9001,-4.9001,-4.9664,-5.0445,-5.1343,-5.1856,-5.249,-5.0483,-5.0565,-5.0702,-5.0702,-5.0565,-5.0483,0.0,0.0,0.0,0.0,0.0,0.0,0.0,0.0,0.0,0.0,0.0,0.0,0.0,0.0,0.0,0.0,0.0,0.0,0.0,0.0,0.0,0.0,0.0,-5.3206,-5.3206,-5.3206,-5.3206,-5.3206,-5.3206,-5.3206,-5.3206,-5.3206,-5.3206,-5.3225,-5.3647,-5.4051,-5.4436,-5.5299,-5.5668,0.0,0.0,0.0,-5.4454,-5.3783,-5.3501,-5.3501,-5.3501,-5.3501,-5.3501,-5.3501,-5.3501,-5.3501,-5.3501,-5.3501,-5.3365,-5.2553,-5.2029,-5.1505,-5.0422,-4.9813,-4.9424,-4.9103,-4.9001,-4.9001,-4.9001,-4.9001,-4.9001,-4.9001,-4.9001,-4.9001,-4.9001,-4.9001,-4.9001,-4.9001,-4.9001,-4.9001,-4.9001,-4.9001,-4.9001,-4.9001,-4.9001,-4.9001,-4.9001,-4.9001,-4.9001,-4.9001,-4.9001,-4.9001,-4.9001,-4.9001,-4.9001,-4.9001,-4.9001,-4.9001,-4.9001,-4.9001,-4.9001,-4.9001,-4.9001,-4.9152,-4.9462,-4.9821,-5.0554,-5.1544,-5.1952,-5.249,-5.0183,-5.0294,-5.0523,-5.0523,-5.0272,-5.0092,0.0,0.0,0.0,0.0,0.0,0.0,0.0,0.0,0.0,0.0,0.0,0.0,0.0,0.0,0.0,0.0,0.0,0.0,0.0,0.0,0.0,0.0,0.0,-5.3206,-5.3206,-5.3206,-5.3206,-5.3206,-5.3206,-5.3206,-5.3206,-5.3206,-5.3206,-5.3206,-5.3206,-5.3573,-5.4216,-5.4344,-5.51,-5.6179,0.0,0.0,-5.5279,-5.4011,-5.3501,-5.3501,-5.3501,-5.3501,-5.3501,-5.3501,-5.3501,-5.3501,-5.3501,-5.3501,-5.3399,-5.2706,-5.2401,-5.2063,-5.0811,-5.027,-4.9965,-4.934,-4.9086,-4.9001,-4.9001,-4.9001,-4.9001,-4.9001,-4.9001,-4.9001,-4.9001,-4.9001,-4.9001,-4.9001,-4.9001,-4.9001,-4.9001,-4.9001,-4.9001,-4.9001,-4.9001,-4.9001,-4.9001,-4.9001,-4.9001,-4.9001,-4.9001,-4.9001,-4.9001,-4.9001,-4.9001,-4.9001,-4.9001,-4.9001,-4.9001,-4.9001,-4.9001,-4.9001,-4.9001,-4.9256,-4.9879,-5.0072,-5.0752,-5.1952,-5.2159,-5.2599,-5.0135,-4.9898,-4.9673,-4.9673,-4.9636,-4.9589,-4.9664,0.0,0.0,0.0,0.0,0.0,0.0,0.0,0.0,0.0,0.0,0.0,0.0,0.0,0.0,0.0,0.0,0.0,0.0,0.0,0.0,0.0,0.0,-5.3206,-5.3206,-5.3206,-5.3206,-5.3206,-5.3206,-5.3206,-5.3206,-5.3206,-5.3206,-5.3206,-5.3206,-5.328,-5.3427,-5.4087,-5.4197,-5.3887,0.0,-5.4241,-5.3849,-5.3618,-5.3501,-5.3501,-5.3501,-5.3501,-5.3501,-5.3501,-5.3501,-5.3501,-5.3501,-5.3501,-5.3484,-5.3365,-5.2858,-5.2266,-5.2029,-5.1082,-5.0067,-4.9949,-4.9475,-4.9001,-4.9001,-4.9001,-4.9001,-4.9001,-4.9001,-4.9001,-4.9001,-4.9001,-4.9001,-4.9001,-4.9001,-4.9001,-4.9001,-4.9001,-4.9001,-4.9001,-4.9001,-4.9001,-4.9001,-4.9001,-4.9001,-4.9001,-4.9001,-4.9001,-4.9001,-4.9001,-4.9001,-4.9001,-4.9001,-4.9001,-4.9001,-4.9001,-4.9001,-4.9001,-4.9001,-4.9063,-4.9168,-5.0352,-5.1034,-5.1292,-5.2463,-5.3103,-4.9504,-4.9326,-4.9108,-4.8915,-4.9029,-4.9234,-4.9445,0.0,0.0,0.0,0.0,0.0,0.0,0.0,0.0,0.0,0.0,0.0,0.0,0.0,0.0,0.0,0.0,0.0,0.0,0.0,0.0,0.0,0.0,0.0,-5.3206,-5.3206,-5.3206,-5.3206,-5.3206,-5.3206,-5.3206,-5.3206,-5.3206,-5.3206,-5.3206,-5.3206,-5.3225,-5.3592,-5.3817,-5.3899,0.0,-5.3928,-5.4017,-5.3662,-5.3501,-5.3501,-5.3501,-5.3501,-5.3501,-5.3501,-5.3501,-5.3501,-5.3501,-5.3501,-5.3501,-5.3501,-5.3247,-5.2875,-5.2435,-5.1826,-5.12,-5.0811,-4.9881,-4.9001,-4.9001,-4.9001,-4.9001,-4.9001,-4.9001,-4.9001,-4.9001,-4.9001,-4.9001,-4.9001,-4.9001,-4.9001,-4.9001,-4.9001,-4.9001,-4.9001,-4.9001,-4.9001,-4.9001,-4.9001,-4.9001,-4.9001,-4.9001,-4.9001,-4.9001,-4.9001,-4.9001,-4.9001,-4.9001,-4.9001,-4.9001,-4.9001,-4.9001,-4.9001,-4.9001,-4.9001,-4.9001,-5.0407,-5.1086,-5.1138,-5.2527,-5.3206,-4.8978,-4.8829,-4.8692,-4.8364,0.0,-4.8847,-4.9139,0.0,0.0,0.0,0.0,0.0,0.0,0.0,0.0,0.0,0.0,0.0,0.0,0.0,0.0,0.0,0.0,0.0,0.0,0.0,0.0,0.0,0.0,0.0,-5.3206,-5.3206,-5.3206,-5.3206,-5.3206,-5.3206,-5.3206,-5.3206,-5.3206,-5.3206,-5.3206,-5.3206,-5.3206,-5.3206,-5.3438,-5.3854,-5.344,-5.3553,-5.3982,-5.3622,-5.3501,-5.3501,-5.3501,-5.3501,-5.3501,-5.3501,-5.3501,-5.3501,-5.3501,-5.3501,-5.3501,-5.3501,-5.3501,-5.3399,-5.2773,-5.2452,-5.2181,-5.164,-5.0524,-4.9492,-4.9306,-4.9137,-4.9001,-4.9001,-4.9001,-4.9001,-4.9001,-4.9001,-4.9001,-4.9001,-4.9001,-4.9001,-4.9001,-4.9001,-4.9001,-4.9001,-4.9001,-4.9001,-4.9001,-4.9001,-4.9001,-4.9001,-4.9001,-4.9001,-4.9001,-4.9001,-4.9001,-4.9001,-4.9001,-4.9001,-4.9001,-4.9001,-4.9001,-4.9001,-4.9001,-4.9001,-4.9001,-5.0407,-5.1086,-5.1138,-5.2527,-5.3316,-4.8897,-4.864,-4.8344,-4.8306,0.0,0.0,-4.8402,-4.9044,0.0,0.0,0.0,0.0,0.0,0.0,0.0,0.0,0.0,0.0,0.0,0.0,0.0,0.0,0.0,0.0,0.0,0.0,0.0,0.0,0.0,0.0,-5.3164,-5.3206,-5.3206,-5.3206,-5.3206,-5.3206,-5.3206,-5.3206,-5.3206,-5.3206,-5.3206,-5.3206,-5.3206,-5.3206,-5.2898,-5.2413,-5.3014,-5.2997,-5.253,-5.3229,-5.3501,-5.3501,-5.3501,-5.3501,-5.3501,-5.3501,-5.3501,-5.3501,-5.3501,-5.3501,-5.3501,-5.3501,-5.3501,-5.3501,-5.3433,-5.2892,-5.2283,-5.2232,-5.1657,-5.0896,-5.0202,-4.9509,-4.9001,-4.9001,-4.9001,-4.9001,-4.9001,-4.9001,-4.9001,-4.9001,-4.9001,-4.9001,-4.9001,-4.9001,-4.9001,-4.9001,-4.9001,-4.9001,-4.9001,-4.9001,-4.9001,-4.9001,-4.9001,-4.9001,-4.9001,-4.9001,-4.9001,-4.9001,-4.9001,-4.9001,-4.9001,-4.9001,-4.9001,-4.9001,-4.9001,-4.9001,-4.9001,-5.0407,-5.1086,-5.1138,-5.2527,-5.361,-4.8513,-4.8439,-4.8306,-4.8306,0.0,0.0,0.0,0.0,0.0,0.0,0.0,0.0,0.0,0.0,0.0,0.0,0.0,0.0,0.0,0.0,0.0,0.0,0.0,0.0,0.0,0.0,0.0,0.0,0.0,0.0,-5.1892,-5.1874,-5.1874,-5.1874,-5.2289,-5.2509,-5.2509,-5.298,-5.3206,-5.3206,-5.3206,-5.3206,-5.3206,-5.3206,-5.2781,-5.2144,-5.2466,-5.2472,-5.2289,-5.2615,-5.3061,-5.3501,-5.3501,-5.3501,-5.3501,-5.3501,-5.3501,-5.3501,-5.3501,-5.3501,-5.3501,-5.3501,-5.3501,-5.3501,-5.3501,-5.3298,-5.3061,-5.3061,-5.2503,-5.1725,-5.098,-5.0591,-5.0253,-4.9779,-4.9678,-4.956,-4.9103,-4.9001,-4.9001,-4.9001,-4.9001,-4.9001,-4.9001,-4.9001,-4.9001,-4.9001,-4.9001,-4.9001,-4.9001,-4.9001,-4.9001,-4.9001,-4.9001,-4.9001,-4.9001,-4.9001,-4.9001,-4.9001,-4.9001,-4.9001,-4.9001,-4.9001,-4.9001,-4.9001,-4.9001,-4.9212,-4.9622,-5.0626,-5.1292,-5.1759,-5.3235,-5.4106,-4.8306,-4.8306,-4.8249,0.0,0.0,0.0,0.0,0.0,0.0,0.0,0.0,0.0,0.0,0.0,0.0,0.0,0.0,0.0,0.0,0.0,0.0,0.0,0.0,0.0,0.0,0.0,0.0,0.0,0.0,0.0,0.0,-5.1086,-5.1086,-5.1086,-5.1759,-5.2112,-5.2112,-5.2831,-5.3206,-5.3206,-5.3206,-5.3206,-5.3206,-5.3206,-5.2662,-5.1795,-5.2075,-5.1969,-5.1657,-5.2136,-5.2773,-5.3501,-5.3501,-5.3501,-5.3501,-5.3501,-5.3501,-5.3501,-5.3501,-5.3501,-5.3501,-5.3501,-5.3501,-5.3501,-5.3501,-5.3501,-5.3501,-5.3501,-5.3112,-5.257,-5.2063,-5.1572,-5.1082,-5.0574,-5.0439,-5.0253,-4.9509,-4.9357,-4.9272,-4.9052,-4.9001,-4.9001,-4.9001,-4.9001,-4.9001,-4.9001,-4.9001,-4.9001,-4.9001,-4.9001,-4.9001,-4.9001,-4.9001,-4.9001,-4.9001,-4.9001,-4.9001,-4.9001,-4.9001,-4.9001,-4.9001,-4.9001,-4.9001,-4.9001,-4.9001,-4.9299,-4.9976,-5.0716,-5.1569,-5.2491,-5.3807,-5.4675,-4.8306,-4.8306,-4.8172,0.0,0.0,0.0,0.0,0.0,0.0,0.0,0.0,0.0,0.0,0.0,0.0,0.0,0.0,0.0,0.0,0.0,0.0,0.0,0.0,0.0,0.0,0.0,0.0,0.0,0.0,0.0,0.0,-5.1086,-5.1086,-5.1086,-5.1741,-5.2065,-5.2065,-5.2831,-5.3164,-5.3164,-5.3164,-5.3164,-5.3206,-5.3206,-5.2417,-5.1139,-5.1847,-5.1389,-5.0202,-5.1691,-5.2773,-5.3501,-5.3501,-5.3501,-5.3501,-5.3501,-5.3501,-5.3501,-5.3501,-5.3501,-5.3501,-5.3501,-5.3501,-5.3501,-5.3501,-5.3501,-5.3501,-5.3501,-5.3501,-5.3501,-5.3501,-5.2384,-5.1234,-5.1234,-5.1234,-5.1014,-5.027,-5.0101,-4.9881,-4.9154,-4.9018,-4.9018,-4.9001,-4.9001,-4.9001,-4.9001,-4.9001,-4.9001,-4.9001,-4.9001,-4.9001,-4.9001,-4.9001,-4.9001,-4.9001,-4.9001,-4.9001,-4.9001,-4.9001,-4.9001,-4.9001,-4.9001,-4.9001,-4.9001,-4.9001,-4.9359,-5.0033,-5.077,-5.1886,-5.3333,-5.4062,-5.528,-4.7797,-4.7674,0.0,0.0,0.0,0.0,0.0,0.0,0.0,0.0,0.0,0.0,0.0,0.0,0.0,0.0,0.0,0.0,0.0,0.0,0.0,0.0,0.0,0.0,0.0,0.0,0.0,0.0,0.0,0.0,0.0,-4.9639,-4.9639,-4.9639,-5.0297,-5.0591,-5.0591,-5.1343,-5.1728,-5.1728,-5.1728,-5.226,-5.3164,-5.2662,-5.1922,-5.1104,-5.0799,-5.0459,-5.0202,-5.1691,-5.2773,-5.3501,-5.3501,-5.3501,-5.3501,-5.3501,-5.3501,-5.3501,-5.3501,-5.3501,-5.3501,-5.3501,-5.3501,-5.3501,-5.3501,-5.3501,-5.3501,-5.3501,-5.3501,-5.3501,-5.3501,-5.3162,-5.2689,-5.2114,-5.1978,-5.1775,-5.1031,-5.0879,-5.0659,-4.9915,-4.9763,-4.961,-4.9086,-4.9001,-4.9001,-4.9001,-4.9001,-4.9001,-4.9001,-4.9001,-4.9001,-4.9001,-4.9001,-4.9001,-4.9001,-4.9001,-4.9001,-4.9001,-4.9001,-4.9001,-4.9001,-4.9001,-4.9001,-4.9001,-4.9462,-5.0033,-5.077,-5.1494,-5.2575,-5.4081,-5.4862,-5.5794,-4.7176,0.0,0.0,0.0,0.0,0.0,0.0,0.0,0.0,0.0,0.0,0.0,0.0,0.0,0.0,0.0,0.0,0.0,0.0,0.0,0.0,0.0,0.0,0.0,0.0,0.0,0.0,0.0,0.0,0.0,0.0,-4.9001,-4.9001,-4.9001,-4.9664,-4.9976,-4.9976,-5.0716,-5.1086,-5.1086,-5.1086,-5.1562,-5.2353,-5.1922,-5.1343,-5.0608,-4.9936,-4.9769,-5.0185,-5.1386,-5.2334,-5.3061,-5.3382,-5.3501,-5.3501,-5.3501,-5.3501,-5.3501,-5.3501,-5.3501,-5.3501,-5.3501,-5.3501,-5.3501,-5.3501,-5.3501,-5.3501,-5.3501,-5.3501,-5.3501,-5.3501,-5.3501,-5.3382,-5.2892,-5.279,-5.257,-5.1809,-5.1657,-5.1437,-5.0676,-5.0287,-4.9949,-4.9509,-4.9187,-4.9001,-4.9001,-4.9001,-4.9001,-4.9001,-4.9001,-4.9001,-4.9001,-4.9001,-4.9001,-4.9001,-4.9001,-4.9001,-4.9001,-4.9001,-4.9001,-4.9001,-4.9001,-4.9001,-4.9001,-4.9664,-5.0335,-5.1086,-5.2113,-5.3362,-5.4895,-5.5702,-5.651,0.0,0.0,0.0,0.0,0.0,0.0,0.0,0.0,0.0,0.0,0.0,0.0,0.0,0.0,0.0,0.0,0.0,0.0,0.0,0.0,0.0,0.0,0.0,0.0,0.0,0.0,0.0,0.0,0.0,0.0,0.0,-4.9001,-4.9001,-4.9001,-4.9563,-4.9919,-4.9919,-5.0554,-5.0929,-5.0929,-5.0929,-5.0929,-5.0929,-5.0981,-5.0608,-4.9879,-4.9256,-4.9424,-5.0135,-5.0828,-5.1589,-5.2367,-5.3112,-5.345,-5.3501,-5.3501,-5.3501,-5.3501,-5.3501,-5.3501,-5.3501,-5.3501,-5.3501,-5.3501,-5.3501,-5.3501,-5.3501,-5.3501,-5.3501,-5.3501,-5.3501,-5.3501,-5.3501,-5.3501,-5.3501,-5.3298,-5.257,-5.2418,-5.2198,-5.1454,-5.076,-5.0253,-5.0101,-4.9543,-4.9086,-4.9018,-4.9001,-4.9001,-4.9001,-4.9001,-4.9001,-4.9001,-4.9001,-4.9001,-4.9001,-4.9001,-4.9001,-4.9001,-4.9001,-4.9001,-4.9001,-4.9001,-4.9001,-4.9001,-4.9664,-5.0387,-5.1192,-5.2615,-5.4106,-5.5721,-5.6455,-5.7226,0.0,0.0,0.0,0.0,0.0,0.0,0.0,0.0,0.0,0.0,0.0,0.0,0.0,0.0,0.0,0.0,0.0,0.0,0.0,0.0,0.0,0.0,0.0,0.0,0.0,0.0,0.0,0.0,0.0,0.0,-4.9001,-4.9001,-4.9001,-4.9001,-4.9152,-4.9212,-4.9212,-4.9359,-4.9479,0.0,-4.9479,-4.9479,-4.9479,-4.9993,-4.9879,-4.9212,-4.9046,-4.9424,-5.0101,-5.027,-5.1099,-5.2317,-5.2486,-5.2942,-5.3501,-5.3501,-5.3501,-5.3501,-5.3501,-5.3501,-5.3501,-5.3501,-5.3501,-5.3501,-5.3501,-5.3501,-5.3501,-5.3501,-5.3501,-5.3501,-5.3501,-5.3501,-5.3501,-5.3501,-5.3501,-5.345,-5.3281,-5.3247,-5.301,-5.2232,-5.1944,-5.1454,-5.0287,-4.9965,-4.9661,-4.9086,-4.9001,-4.9001,-4.9001,-4.9001,-4.9001,-4.9001,-4.9001,-4.9001,-4.9001,-4.9001,-4.9001,-4.9001,-4.9001,-4.9001,-4.9001,-4.9001,-4.9001,-4.9001,-4.9664,-5.0704,-5.2059,-5.2884,-5.4397,-5.6547,-5.673,-5.7226,0.0,0.0,0.0,0.0,0.0,0.0,0.0,0.0,0.0,0.0,0.0,0.0,0.0,0.0,0.0,0.0,0.0,0.0,0.0,0.0,0.0,0.0,0.0,0.0,0.0,0.0,0.0,0.0,0.0,-4.9001,-4.9001,-4.9001,-4.9001,-4.9001,-4.9001,-4.9001,-4.9001,-4.9001,-4.9001,-4.9001,-4.9001,-4.9001,-4.9001,-4.9359,-4.9299,-4.9001,-4.9001,-4.9221,-4.9593,-4.9949,-5.076,-5.1809,-5.2164,-5.279,-5.3501,-5.3501,-5.3501,-5.3501,-5.3501,-5.3501,-5.3501,-5.3501,-5.3501,-5.3501,-5.3501,-5.3501,-5.3501,-5.3501,-5.3501,-5.3501,-5.3501,-5.3501,-5.3501,-5.3501,-5.3501,-5.3501,-5.3501,-5.3501,-5.3382,-5.2959,-5.2553,-5.2063,-5.1285,-5.0557,-4.9965,-4.9576,-4.9221,-4.9001,-4.9001,-4.9001,-4.9001,-4.9001,-4.9001,-4.9001,-4.9001,-4.9001,-4.9001,-4.9001,-4.9001,-4.9001,-4.9001,-4.9001,-4.9001,-4.9001,-5.0042,-5.1158,-5.2325,-5.3764,-5.525,-5.6822,-5.7207,-5.7593,0.0,0.0,0.0,0.0,0.0,0.0,0.0,0.0,0.0,0.0,0.0,0.0,0.0,0.0,0.0,0.0,0.0,0.0,0.0,0.0,0.0,0.0,0.0,0.0,0.0,0.0,0.0,0.0,0.0,-4.9001,-4.9001,-4.9001,-4.9001,-4.9001,-4.9001,-4.9001,-4.9001,-4.9001,-4.9001,-4.9001,-4.9001,-4.9001,-4.9001,-4.9001,-4.9001,-4.9001,-4.9001,-4.9001,-4.9052,-4.9661,-5.0338,-5.1099,-5.1826,-5.2604,-5.3315,-5.345,-5.3501,-5.3501,-5.3501,-5.3501,-5.3501,-5.3501,-5.3501,-5.3501,-5.3501,-5.3501,-5.3501,-5.3501,-5.3501,-5.3501,-5.3501,-5.3501,-5.3501,-5.3501,-5.3501,-5.3501,-5.3501,-5.3501,-5.3501,-5.3501,-5.2858,-5.23,-5.23,-5.1183,-5.0287,-5.0287,-4.9779,-4.934,-4.9204,-4.9187,-4.9137,-4.9018,-4.9001,-4.9001,-4.9001,-4.9001,-4.9001,-4.9001,-4.9001,-4.9069,-4.9187,-4.9187,-4.9255,-4.939,-5.0472,-5.1489,-5.2499,-5.4507,-5.5944,-5.6822,-5.7639,-5.7997,0.0,0.0,0.0,0.0,0.0,0.0,0.0,0.0,0.0,0.0,0.0,0.0,0.0,0.0,0.0,0.0,0.0,0.0,0.0,0.0,0.0,0.0,0.0,0.0,0.0,0.0,0.0,0.0,-4.8646,-4.9001,-4.9001,-4.9001,-4.9001,-4.9001,-4.9001,-4.9001,-4.9001,-4.9001,-4.9001,-4.9001,-4.9001,-4.9001,-4.9001,-4.9001,-4.9001,-4.9001,-4.9001,-4.9001,-4.9018,-4.912,-4.9576,-5.0321,-5.1065,-5.1809,-5.2536,-5.3247,-5.3501,-5.3501,-5.3501,-5.3501,-5.3501,-5.3501,-5.3501,-5.3501,-5.3501,-5.3501,-5.3501,-5.3501,-5.3501,-5.3501,-5.3501,-5.3501,-5.3501,-5.3501,-5.3501,-5.3501,-5.3501,-5.3501,-5.3501,-5.3501,-5.2858,-5.23,-5.23,-5.1623,-5.1065,-5.1065,-5.098,-5.0693,-5.0033,-4.9949,-4.9712,-4.9069,-4.9001,-4.9001,-4.9001,-4.9001,-4.9001,-4.9001,-4.9001,-4.9289,-4.9915,-4.9949,-5.0253,-5.0913,-5.0481,-5.1302,-5.3349,-5.4299,-5.5473,-5.6921,-5.7671,-5.7997,0.0,0.0,0.0,0.0,0.0,0.0,0.0,0.0,0.0,0.0,0.0,0.0,0.0,0.0,0.0,0.0,0.0,0.0,0.0,0.0,0.0,0.0,0.0,0.0,0.0,0.0,0.0,0.0,-4.8206,-4.8578,-4.8984,-4.9001,-4.9001,-4.9001,-4.9001,-4.9001,-4.9001,-4.9001,-4.9001,-4.9001,-4.9001,-4.9001,-4.9001,-4.9001,-4.9001,-4.9001,-4.9001,-4.9001,-4.9001,-4.9001,-4.9424,-5.0118,-5.0456,-5.1285,-5.235,-5.2706,-5.3112,-5.3501,-5.3501,-5.3501,-5.3501,-5.3501,-5.3501,-5.3501,-5.3501,-5.3501,-5.3501,-5.3501,-5.3501,-5.3501,-5.3501,-5.3501,-5.3501,-5.3501,-5.3501,-5.3501,-5.3501,-5.3501,-5.3501,-5.3501,-5.3213,-5.2976,-5.2976,-5.2334,-5.1826,-5.1826,-5.1471,-5.1099,-5.076,-5.0727,-5.0591,-5.0287,-5.0236,-5.0236,-5.0236,-5.0236,-5.0236,-5.0236,-5.0236,-5.0388,-5.071,-5.0727,-5.1065,-5.1809,-5.1505,-5.2055,-5.348,-5.4657,-5.5793,-5.6912,-5.7679,-5.7997,0.0,0.0,0.0,0.0,0.0,0.0,0.0,0.0,0.0,0.0,0.0,0.0,0.0,0.0,0.0,0.0,0.0,0.0,0.0,0.0,0.0,0.0,0.0,0.0,0.0,0.0,0.0,0.0,-4.7699,-4.8156,-4.8697,-4.89,-4.9001,-4.9001,-4.9001,-4.9001,-4.9001,-4.9001,-4.9001,-4.9001,-4.9001,-4.9001,-4.9001,-4.9001,-4.9001,-4.9001,-4.9001,-4.9001,-4.9001,-4.9001,-4.9323,-4.983,-5.0016,-5.0879,-5.2046,-5.2232,-5.2807,-5.3501,-5.3501,-5.3501,-5.3501,-5.3501,-5.3501,-5.3501,-5.3501,-5.3501,-5.3501,-5.3501,-5.3501,-5.3501,-5.3501,-5.3501,-5.3501,-5.3501,-5.3501,-5.3501,-5.3501,-5.3501,-5.3501,-5.3501,-5.3501,-5.3501,-5.3501,-5.301,-5.2604,-5.2604,-5.2147,-5.1725,-5.1522,-5.1488,-5.142,-5.1234,-5.1217,-5.1217,-5.1217,-5.1217,-5.1217,-5.1217,-5.1217,-5.1302,-5.1488,-5.1488,-5.1843,-5.2587,-5.2604,-5.2898,-5.3501,-5.4998,-5.6004,-5.6616,-5.7546,-5.7997,0.0,0.0,0.0,0.0,0.0,0.0,0.0,0.0,0.0,0.0,0.0,0.0,0.0,0.0,0.0,0.0,0.0,0.0,0.0,0.0,0.0,0.0,0.0,0.0,0.0,0.0,0.0,0.0,-4.7124,-4.7936,-4.797,-4.8629,-4.9001,-4.9001,-4.9001,-4.9001,-4.9001,-4.9001,-4.9001,-4.9001,-4.9001,-4.9001,-4.9001,-4.9001,-4.9001,-4.9001,-4.9001,-4.9001,-4.9001,-4.9001,-4.9018,-4.9137,-4.9813,-5.0574,-5.1352,-5.2046,-5.2807,-5.3501,-5.3501,-5.3501,-5.3501,-5.3501,-5.3501,-5.3501,-5.3501,-5.3501,-5.3501,-5.3501,-5.3501,-5.3501,-5.3501,-5.3501,-5.3501,-5.3501,-5.3501,-5.3501,-5.3501,-5.3501,-5.3501,-5.3501,-5.3501,-5.3501,-5.3501,-5.3467,-5.345,-5.345,-5.3416,-5.3112,-5.235,-5.2249,-5.1978,-5.1285,-5.1217,-5.1217,-5.1217,-5.1217,-5.1217,-5.1217,-5.1217,-5.1522,-5.2215,-5.2249,-5.2621,-5.3416,-5.345,-5.3433,-5.35,-5.4982,-5.5706,-5.578,-5.7315,-5.7997,0.0,0.0,0.0,0.0,0.0,0.0,0.0,0.0,0.0,0.0,0.0,0.0,0.0,0.0,0.0,0.0,0.0,0.0,0.0,0.0,0.0,0.0,0.0,0.0,0.0,0.0,0.0,0.0,0.0,-4.6921,-4.7868,-4.8173,-4.8528,-4.8984,-4.9001,-4.9001,-4.9001,-4.9001,-4.9001,-4.9001,-4.9001,-4.9001,-4.9001,-4.9001,-4.9001,-4.9001,-4.9001,-4.9001,-4.9001,-4.9001,-4.9001,-4.9035,-4.9289,-4.9847,-5.0574,-5.1336,-5.208,-5.2807,-5.3331,-5.3501,-5.3501,-5.3501,-5.3501,-5.3501,-5.3501,-5.3501,-5.3501,-5.3501,-5.3501,-5.3501,-5.3501,-5.3501,-5.3501,-5.3501,-5.3501,-5.3501,-5.3501,-5.3501,-5.3501,-5.3501,-5.3501,-5.3501,-5.3501,-5.3501,-5.3501,-5.3501,-5.3501,-5.3399,-5.3112,-5.3078,-5.2976,-5.2706,-5.2689,-5.2689,-5.2689,-5.2689,-5.2689,-5.2689,-5.2689,-5.2807,-5.3061,-5.3078,-5.3213,-5.3501,-5.3501,-5.3501,-5.3501,-5.4499,-5.5262,-5.5724,-5.6825,-5.7565,0.0,0.0,0.0,0.0,0.0,0.0,0.0,0.0,0.0,0.0,0.0,0.0,0.0,0.0,0.0,0.0,0.0,0.0,0.0,0.0,0.0,0.0,0.0,0.0,0.0,0.0,0.0,0.0,0.0,0.0,-4.7124,-4.7648,-4.8257,-4.8984,-4.9001,-4.9001,-4.9001,-4.9001,-4.9001,-4.9001,-4.9001,-4.9001,-4.9001,-4.9001,-4.9001,-4.9001,-4.9001,-4.9001,-4.9001,-4.9001,-4.9001,-4.9001,-4.9001,-4.9458,-5.0152,-5.0659,-5.1454,-5.2384,-5.2909,-5.3281,-5.3501,-5.3501,-5.3501,-5.3501,-5.3501,-5.3501,-5.3501,-5.3501,-5.3501,-5.3501,-5.3501,-5.3501,-5.3501,-5.3501,-5.3501,-5.3501,-5.3501,-5.3501,-5.3501,-5.3501,-5.3501,-5.3501,-5.3501,-5.3501,-5.3501,-5.3501,-5.3501,-5.3501,-5.3501,-5.3501,-5.3501,-5.3501,-5.3501,-5.3501,-5.3501,-5.3501,-5.3501,-5.3501,-5.3501,-5.3501,-5.3501,-5.3501,-5.3501,-5.3501,-5.3501,-5.3501,-5.3501,-5.4499,-5.5203,-5.5724,-5.6773,-5.7498,0.0,0.0,0.0,0.0,0.0,0.0,0.0,0.0,0.0,0.0,0.0,0.0,0.0,0.0,0.0,0.0,0.0,0.0,0.0,0.0,0.0,0.0,0.0,0.0,0.0,0.0,0.0,0.0,-4.5263,-4.5686,-4.5703,-4.7124,-4.8257,-4.8984,-4.9001,-4.9001,-4.9001,-4.9001,-4.9001,-4.9001,-4.9001,-4.9001,-4.9001,-4.9001,-4.9001,-4.9001,-4.9001,-4.9001,-4.9001,-4.9001,-4.9001,-4.9001,-4.9001,-4.9441,-5.005,-5.0084,-5.0997,-5.2249,-5.2283,-5.2807,-5.3467,-5.3501,-5.3501,-5.3501,-5.3501,-5.3501,-5.3501,-5.3501,-5.3501,-5.3501,-5.3501,-5.3501,-5.3501,-5.3501,-5.3501,-5.3501,-5.3501,-5.3501,-5.3501,-5.3501,-5.3501,-5.3501,-5.3501,-5.3501,-5.3501,-5.3501,-5.3501,-5.3501,-5.3501,-5.3501,-5.3501,-5.3501,-5.3501,-5.3501,-5.3501,-5.3501,-5.3501,-5.3501,-5.3501,-5.3501,-5.3501,-5.3501,-5.3501,-5.3501,-5.3501,-5.3501,-5.3501,-5.4939,-5.5649,-5.5706,-5.7297,-5.7997,-4.4587,0.0,0.0,0.0,0.0,0.0,0.0,0.0,0.0,0.0,0.0,0.0,0.0,0.0,0.0,0.0,0.0,0.0,0.0,0.0,0.0,0.0,0.0,0.0,0.0,0.0,0.0,0.0,-4.4773,-4.5128,-4.5669,-4.7124,-4.8257,-4.8984,-4.9001,-4.9001,-4.9001,-4.9001,-4.9001,-4.9001,-4.9001,-4.9001,-4.9001,-4.9001,-4.9001,-4.9001,-4.9001,-4.9001,-4.9001,-4.9001,-4.9001,-4.9001,-4.9001,-4.912,-4.9373,-4.9898,-5.0355,-5.0862,-5.1928,-5.2452,-5.2739,-5.3315,-5.3501,-5.3501,-5.3501,-5.3501,-5.3501,-5.3501,-5.3501,-5.3501,-5.3501,-5.3501,-5.3501,-5.3501,-5.3501,-5.3501,-5.3501,-5.3501,-5.3501,-5.3501,-5.3501,-5.3501,-5.3501,-5.3501,-5.3501,-5.3501,-5.3501,-5.3501,-5.3501,-5.3501,-5.3501,-5.3501,-5.3501,-5.3501,-5.3501,-5.3501,-5.3501,-5.3501,-5.3501,-5.3501,-5.3501,-5.3501,-5.3501,-5.3501,-5.3501,-5.3501,-5.3501,-5.4437,-5.5144,-5.5706,-5.7297,-5.7997,0.0,0.0,0.0,0.0,0.0,0.0,-4.4587,-4.4587,0.0,0.0,0.0,0.0,0.0,0.0,0.0,0.0,0.0,0.0,0.0,0.0,0.0,0.0,0.0,0.0,0.0,-4.4587,-4.4587,-4.4587,-4.4587,-4.4908,-4.5669,-4.6819,-4.7784,-4.8528,-4.8849,-4.9001,-4.9001,-4.9001,-4.9001,-4.9001,-4.9001,-4.9001,-4.9001,-4.9001,-4.9001,-4.9001,-4.9001,-4.9001,-4.9001,-4.9001,-4.9001,-4.9001,-4.9001,-4.9001,-4.9052,-4.9475,-4.983,-5.0202,-5.1082,-5.1792,-5.2384,-5.2858,-5.323,-5.3501,-5.3501,-5.3501,-5.3501,-5.3501,-5.3501,-5.3501,-5.3501,-5.3501,-5.3501,-5.3501,-5.3501,-5.3501,-5.3501,-5.3501,-5.3501,-5.3501,-5.3501,-5.3501,-5.3501,-5.3501,-5.3501,-5.3501,-5.3501,-5.3501,-5.3501,-5.3501,-5.3501,-5.3501,-5.3501,-5.3501,-5.3501,-5.3501,-5.3501,-5.3501,-5.3501,-5.3501,-5.3501,-5.3501,-5.3501,-5.3501,-5.3501,-5.3783,-5.4454,-5.4818,-5.561,-5.6685,-5.7594,-5.7997,0.0,0.0,0.0,0.0,0.0,0.0,-4.4587,-4.4587,-4.4587,0.0,0.0,0.0,0.0,0.0,0.0,0.0,0.0,0.0,0.0,0.0,0.0,0.0,0.0,0.0,-4.4587,-4.4587,-4.4587,-4.4587,-4.4587,-4.4908,-4.5669,-4.6397,-4.7141,-4.7902,-4.8629,-4.9001,-4.9001,-4.9001,-4.9001,-4.9001,-4.9001,-4.9001,-4.9001,-4.9001,-4.9001,-4.9001,-4.9001,-4.9001,-4.9001,-4.9001,-4.9001,-4.9001,-4.9001,-4.9001,-4.9001,-4.9001,-4.9407,-4.9982,-5.005,-5.0947,-5.2063,-5.2147,-5.2672,-5.3264,-5.3348,-5.3365,-5.3399,-5.3484,-5.3501,-5.3501,-5.3501,-5.3501,-5.3501,-5.3501,-5.3501,-5.3501,-5.3501,-5.3501,-5.3501,-5.3501,-5.3501,-5.3501,-5.3501,-5.3501,-5.3501,-5.3501,-5.3501,-5.3501,-5.3501,-5.3501,-5.3501,-5.3501,-5.3501,-5.3501,-5.3501,-5.3501,-5.3501,-5.3501,-5.3501,-5.3501,-5.3501,-5.3501,-5.3501,-5.3501,-5.3501,-5.4218,-5.5706,-5.5706,-5.6509,-5.7997,-5.7997,-5.7997,0.0,0.0,0.0,0.0,0.0,0.0,-4.4587,-4.4587,-4.4587,0.0,0.0,0.0,0.0,0.0,0.0,0.0,0.0,0.0,0.0,0.0,0.0,0.0,0.0,0.0,-4.4587,-4.4587,-4.4587,-4.4587,-4.4587,-4.4908,-4.5669,-4.6397,-4.7141,-4.7902,-4.8629,-4.9001,-4.9001,-4.9001,-4.9001,-4.9001,-4.9001,-4.9001,-4.9001,-4.9001,-4.9001,-4.9001,-4.9001,-4.9001,-4.9001,-4.9001,-4.9001,-4.9001,-4.9001,-4.9001,-4.9001,-4.9001,-4.9086,-4.9306,-4.9881,-5.0287,-5.0625,-5.1234,-5.1539,-5.1775,-5.235,-5.2536,-5.2672,-5.3315,-5.3501,-5.3501,-5.3501,-5.3501,-5.3501,-5.3501,-5.3501,-5.3501,-5.3501,-5.3501,-5.3501,-5.3501,-5.3501,-5.3501,-5.3501,-5.3501,-5.3501,-5.3501,-5.3501,-5.3501,-5.3501,-5.3501,-5.3501,-5.3501,-5.3501,-5.3501,-5.3501,-5.3501,-5.3501,-5.3501,-5.3501,-5.3501,-5.3501,-5.3501,-5.3501,-5.3501,-5.3501,-5.4218,-5.5706,-5.5706,-5.6509,-5.7997,-5.7997,-5.7997,0.0,0.0,0.0,-4.4587,0.0,0.0,0.0,-4.4587,-4.4587,0.0,0.0,0.0,0.0,0.0,0.0,0.0,0.0,0.0,0.0,0.0,0.0,0.0,0.0,0.0,-4.4587,-4.4587,-4.4587,-4.4587,-4.4587,-4.4739,-4.5128,-4.5838,-4.6583,-4.7344,-4.8071,-4.8646,-4.9001,-4.9001,-4.9001,-4.9001,-4.9001,-4.9001,-4.9001,-4.9001,-4.9001,-4.9001,-4.9001,-4.9001,-4.9001,-4.9001,-4.9001,-4.9001,-4.9001,-4.9001,-4.9001,-4.9001,-4.9001,-4.9052,-4.9424,-4.9779,-5.0152,-5.0524,-5.0913,-5.1285,-5.1657,-5.2012,-5.2384,-5.279,-5.3196,-5.3501,-5.3501,-5.3501,-5.3501,-5.3501,-5.3501,-5.3501,-5.3501,-5.3501,-5.3501,-5.3501,-5.3501,-5.3501,-5.3501,-5.3501,-5.3501,-5.3501,-5.3501,-5.3501,-5.3501,-5.3501,-5.3501,-5.3501,-5.3501,-5.3501,-5.3501,-5.3501,-5.3501,-5.3501,-5.3501,-5.3501,-5.3501,-5.3501,-5.3501,-5.3501,-5.3898,-5.4606,-5.5706,-5.6132,-5.6876,-5.7997,-5.7997,-5.7997,0.0,0.0,0.0,0.0,0.0,-4.4587,0.0,0.0,0.0,0.0,0.0,0.0,0.0,0.0,0.0,0.0,0.0,0.0,0.0,0.0,0.0,0.0,0.0,0.0,0.0,-4.4587,-4.4587,-4.4587,-4.4587,-4.4587,-4.4587,-4.5297,-4.5974,-4.6566,-4.7445,-4.8206,-4.8781,-4.8934,-4.9001,-4.9001,-4.9001,-4.9001,-4.9001,-4.9001,-4.9001,-4.9001,-4.9001,-4.9001,-4.9001,-4.9001,-4.9001,-4.9001,-4.9001,-4.9001,-4.9001,-4.9001,-4.9001,-4.9001,-4.9001,-4.939,-4.9881,-4.9881,-5.0388,-5.0997,-5.0997,-5.1505,-5.2097,-5.2097,-5.257,-5.3095,-5.323,-5.3281,-5.3315,-5.3467,-5.3501,-5.3501,-5.3501,-5.3501,-5.3501,-5.3501,-5.3501,-5.3501,-5.3501,-5.3501,-5.3501,-5.3501,-5.3501,-5.3501,-5.3501,-5.3501,-5.3501,-5.3501,-5.3501,-5.3501,-5.3501,-5.3501,-5.3501,-5.3501,-5.3501,-5.3501,-5.3501,-5.3501,-5.3501,-5.3501,-5.4106,-5.4818,-5.5706,-5.6367,-5.7116,-5.7997,-5.7997,-5.7997,0.0,0.0,0.0,0.0,-4.4587,0.0,0.0,0.0,-4.4587,-4.4587,0.0,0.0,0.0,0.0,0.0,0.0,0.0,0.0,0.0,0.0,0.0,0.0,0.0,0.0,0.0,-4.4587,-4.4587,-4.4587,-4.4587,-4.4587,-4.4587,-4.5297,-4.5737,-4.5821,-4.7192,-4.7953,-4.8037,-4.868,-4.9001,-4.9001,-4.9001,-4.9001,-4.9001,-4.9001,-4.9001,-4.9001,-4.9001,-4.9001,-4.9001,-4.9001,-4.9001,-4.9001,-4.9001,-4.9001,-4.9001,-4.9001,-4.9001,-4.9001,-4.9001,-4.9052,-4.912,-4.912,-4.9627,-5.0219,-5.0219,-5.0744,-5.1336,-5.1336,-5.1403,-5.1623,-5.2283,-5.2435,-5.2621,-5.3331,-5.3501,-5.3501,-5.3501,-5.3501,-5.3501,-5.3501,-5.3501,-5.3501,-5.3501,-5.3501,-5.3501,-5.3501,-5.3501,-5.3501,-5.3501,-5.3501,-5.3501,-5.3501,-5.3501,-5.3501,-5.3501,-5.3501,-5.3501,-5.3501,-5.3501,-5.3501,-5.3501,-5.3501,-5.3501,-5.3501,-5.3551,-5.4328,-5.5706,-5.578,-5.6562,-5.7997,-5.7997,-5.7997,0.0,0.0,0.0,0.0,0.0,0.0,-4.4587,0.0,-4.4587,0.0,0.0,0.0,0.0,0.0,0.0,0.0,0.0,0.0,0.0,0.0,0.0,0.0,0.0,0.0,0.0,0.0,0.0,0.0,-4.4587,-4.4587,-4.4587,-4.4874,-4.5263,-4.5703,-4.6718,-4.7479,-4.7919,-4.8646,-4.9001,-4.9001,-4.9001,-4.9001,-4.9001,-4.9001,-4.9001,-4.9001,-4.9001,-4.9001,-4.9001,-4.9001,-4.9001,-4.9001,-4.9001,-4.9001,-4.9001,-4.9001,-4.9001,-4.9001,-4.9001,-4.9001,-4.9001,-4.9001,-4.9204,-4.9458,-4.9458,-4.9982,-5.0557,-5.0557,-5.0879,-5.1285,-5.1589,-5.1674,-5.186,-5.2621,-5.2807,-5.2942,-5.3399,-5.3501,-5.3501,-5.3501,-5.3501,-5.3501,-5.3501,-5.3501,-5.3501,-5.3501,-5.3501,-5.3501,-5.3501,-5.3501,-5.3501,-5.3501,-5.3501,-5.3501,-5.3501,-5.3501,-5.3501,-5.3501,-5.3501,-5.3501,-5.3501,-5.3501,-5.3501,-5.3501,-5.3946,-5.4651,-5.5706,-5.6186,-5.6927,-5.7997,-5.7997,-5.7997,-4.4587,0.0,0.0,0.0,0.0,0.0,0.0,0.0,0.0,0.0,0.0,0.0,0.0,0.0,0.0,0.0,0.0,0.0,0.0,0.0,0.0,0.0,0.0,0.0,0.0,0.0,0.0,-4.4587,-4.4587,-4.4587,-4.4587,-4.4587,-4.484,-4.5382,-4.6109,-4.6853,-4.7597,-4.8342,-4.8798,-4.9001,-4.9001,-4.9001,-4.9001,-4.9001,-4.9001,-4.9001,-4.9001,-4.9001,-4.9001,-4.9001,-4.9001,-4.9001,-4.9001,-4.9001,-4.9001,-4.9001,-4.9001,-4.9001,-4.9001,-4.9001,-4.9001,-4.9001,-4.9001,-4.9001,-4.9001,-4.9373,-4.9796,-4.9796,-5.0185,-5.0659,-5.0862,-5.0913,-5.1082,-5.1826,-5.2012,-5.2215,-5.301,-5.3179,-5.3247,-5.3467,-5.3501,-5.3501,-5.3501,-5.3501,-5.3501,-5.3501,-5.3501,-5.3501,-5.3501,-5.3501,-5.3501,-5.3501,-5.3501,-5.3501,-5.3501,-5.3501,-5.3501,-5.3501,-5.3501,-5.3501,-5.3501,-5.3501,-5.3618,-5.3766,-5.4328,-5.5042,-5.6004,-5.6616,-5.7284,-5.7997,-5.7997,-5.7997,0.0,0.0,0.0,-4.4587,0.0,0.0,0.0,0.0,-4.4587,0.0,0.0,0.0,0.0,0.0,0.0,0.0,0.0,0.0,0.0,0.0,0.0,0.0,0.0,0.0,0.0,0.0,0.0,-4.4587,-4.4587,-4.4587,-4.4587,-4.4587,-4.4587,-4.4604,-4.5348,-4.6092,-4.6819,-4.7581,-4.8308,-4.9001,-4.9001,-4.9001,-4.9001,-4.9001,-4.9001,-4.9001,-4.9001,-4.9001,-4.9001,-4.9001,-4.9001,-4.9001,-4.9001,-4.9001,-4.9001,-4.9001,-4.9001,-4.9001,-4.9001,-4.9001,-4.9001,-4.9001,-4.9001,-4.9001,-4.9001,-4.9018,-4.9035,-4.9035,-4.9052,-4.9238,-4.9949,-5.0135,-5.0321,-5.1065,-5.1251,-5.1454,-5.2181,-5.2334,-5.257,-5.3348,-5.3501,-5.3501,-5.3501,-5.3501,-5.3501,-5.3501,-5.3501,-5.3501,-5.3501,-5.3501,-5.3501,-5.3501,-5.3501,-5.3501,-5.3501,-5.3501,-5.3501,-5.3501,-5.3501,-5.3501,-5.3501,-5.3501,-5.3832,-5.4527,-5.4589,-5.5355,-5.6861,-5.6912,-5.7284,-5.7997,-5.7997,-5.7997,0.0,0.0,-4.4587,-4.4587,0.0,0.0,0.0,0.0,0.0,0.0,0.0,0.0,0.0,0.0,0.0,0.0,0.0,0.0,0.0,0.0,-4.4587,0.0,0.0,0.0,0.0,0.0,0.0,-4.5196,-4.4814,-4.4587,-4.4587,-4.4587,-4.4587,-4.4587,-4.5314,-4.6058,-4.6786,-4.7547,-4.8291,-4.9001,-4.9001,-4.9001,-4.9001,-4.9001,-4.9001,-4.9001,-4.9001,-4.9001,-4.9001,-4.9001,-4.9001,-4.9001,-4.9001,-4.9001,-4.9001,-4.9001,-4.9001,-4.9001,-4.9001,-4.9001,-4.9001,-4.9001,-4.9001,-4.9001,-4.9001,-4.9001,-4.9001,-4.9001,-4.9001,-4.9069,-4.9306,-4.9373,-4.956,-5.0304,-5.0473,-5.0676,-5.142,-5.1961,-5.2384,-5.2655,-5.3145,-5.3501,-5.3501,-5.3501,-5.3501,-5.3501,-5.3501,-5.3501,-5.3501,-5.3501,-5.3501,-5.3501,-5.3501,-5.3501,-5.3501,-5.3501,-5.3501,-5.3501,-5.3501,-5.3501,-5.3501,-5.3501,-5.3832,-5.4589,-5.4589,-5.5355,-5.6912,-5.6912,-5.7284,-5.7997,-5.7997,-5.7997,-4.4587,-4.4587,0.0,-4.4587,-4.4587,0.0,-4.4587,0.0,0.0,0.0,0.0,0.0,0.0,0.0,0.0,0.0,0.0,0.0,0.0,-4.4587,0.0,0.0,0.0,0.0,0.0,0.0,-4.4998,-4.5196,-4.4998,-4.4814,0.0,0.0,-4.4587,-4.4587,-4.5043,-4.5652,-4.6397,-4.7141,-4.7885,-4.8612,-4.8883,-4.9001,-4.9001,-4.9001,-4.9001,-4.9001,-4.9001,-4.9001,-4.9001,-4.9001,-4.9001,-4.9001,-4.9001,-4.9001,-4.9001,-4.9001,-4.9001,-4.9001,-4.9001,-4.9001,-4.9001,-4.9001,-4.9001,-4.9001,-4.9001,-4.9001,-4.9052,-4.9323,-4.9204,-4.9069,-4.9323,-4.9204,-4.912,-4.9593,-4.9712,-4.9915,-5.0659,-5.1183,-5.1674,-5.2198,-5.2723,-5.3162,-5.345,-5.3501,-5.3501,-5.3501,-5.3501,-5.3501,-5.3501,-5.3501,-5.3501,-5.3501,-5.3501,-5.3501,-5.3501,-5.3501,-5.3501,-5.3501,-5.3501,-5.3501,-5.3501,-5.3501,-5.3696,-5.4208,-5.4739,-5.5486,-5.6497,-5.7039,-5.7516,-5.7997,-5.7997,-5.7997]}]]